Time,TemperatureF,DewpointF,PressureIn,WindDirection,WindDirectionDegrees,WindSpeedMPH,WindSpeedGustMPH,Humidity,HourlyPrecipIn,Conditions,Clouds,dailyrainin,SolarRadiationWatts/m^2,SoftwareType,DateUTC
2013-07-23 00:00:00,77.4,74.0,29.93,SSW,194,0.0,3.3,89,0.00,,,0.00,0.00,VWS V14.01,2013-07-23 04:00:00,
2013-07-23 00:01:00,77.4,74.0,29.93,South,184,3.3,3.3,89,0.00,,,0.00,0.00,VWS V14.01,2013-07-23 04:01:00,
2013-07-23 00:02:00,77.4,74.3,29.93,SW,224,1.1,4.4,90,0.00,,,0.00,0.00,VWS V14.01,2013-07-23 04:02:00,
2013-07-23 00:03:00,77.4,74.3,29.93,SW,216,1.1,2.2,90,0.00,,,0.00,0.00,VWS V14.01,2013-07-23 04:03:00,
2013-07-23 00:04:00,77.4,74.3,29.93,South,186,1.1,3.3,90,0.00,,,0.00,0.00,VWS V14.01,2013-07-23 04:04:00,
2013-07-23 00:05:00,77.4,74.3,29.92,South,186,0.0,1.1,90,0.00,,,0.00,0.00,VWS V14.01,2013-07-23 04:05:00,
2013-07-23 00:06:00,77.4,74.3,29.93,South,175,4.4,4.4,90,0.00,,,0.00,0.00,VWS V14.01,2013-07-23 04:06:00,
2013-07-23 00:07:00,77.4,74.3,29.93,SSW,202,1.1,4.4,90,0.00,,,0.00,0.00,VWS V14.01,2013-07-23 04:07:00,
2013-07-23 00:08:00,77.3,74.2,29.93,SW,214,1.1,2.2,90,0.00,,,0.00,0.00,VWS V14.01,2013-07-23 04:08:00,
2013-07-23 00:09:00,77.3,74.2,29.93,South,179,0.0,2.2,90,0.00,,,0.00,0.00,VWS V14.01,2013-07-23 04:09:00,
2013-07-23 00:10:00,77.3,74.2,29.93,South,179,0.0,0.0,90,0.00,,,0.00,0.00,VWS V14.01,2013-07-23 04:10:00,
2013-07-23 00:11:00,77.3,74.2,29.93,South,179,6.6,6.6,90,0.00,,,0.00,0.00,VWS V14.01,2013-07-23 04:11:00,
2013-07-23 00:12:00,77.3,74.2,29.93,SW,218,2.2,6.6,90,0.00,,,0.00,0.00,VWS V14.01,2013-07-23 04:12:00,
2013-07-23 00:13:00,77.3,74.2,29.93,South,179,0.0,2.2,90,0.00,,,0.00,0.00,VWS V14.01,2013-07-23 04:13:00,
2013-07-23 00:14:00,77.3,74.2,29.93,South,183,1.1,2.2,90,0.00,,,0.00,0.00,VWS V14.01,2013-07-23 04:14:00,
2013-07-23 00:15:00,77.3,74.2,29.93,South,181,0.0,2.2,90,0.00,,,0.00,0.00,VWS V14.01,2013-07-23 04:15:00,
2013-07-23 00:16:00,77.3,74.2,29.93,SW,222,0.0,1.1,90,0.00,,,0.00,0.00,VWS V14.01,2013-07-23 04:16:00,
2013-07-23 00:17:00,77.3,74.2,29.93,SW,221,0.0,1.1,90,0.00,,,0.00,0.00,VWS V14.01,2013-07-23 04:17:00,
2013-07-23 00:18:00,77.3,74.2,29.93,SW,221,0.0,0.0,90,0.00,,,0.00,0.00,VWS V14.01,2013-07-23 04:18:00,
2013-07-23 00:19:00,77.3,74.2,29.93,SSW,209,2.2,3.3,90,0.00,,,0.00,0.00,VWS V14.01,2013-07-23 04:19:00,
2013-07-23 00:20:00,77.3,74.2,29.93,SSW,209,1.1,2.2,90,0.00,,,0.00,0.00,VWS V14.01,2013-07-23 04:20:00,
2013-07-23 00:21:00,77.3,74.2,29.93,SSE,159,0.0,1.1,90,0.00,,,0.00,0.00,VWS V14.01,2013-07-23 04:21:00,
2013-07-23 00:22:00,77.3,74.5,29.93,SW,216,2.2,3.3,91,0.00,,,0.00,0.00,VWS V14.01,2013-07-23 04:22:00,
2013-07-23 00:23:00,77.3,74.5,29.93,SW,214,0.0,2.2,91,0.00,,,0.00,0.00,VWS V14.01,2013-07-23 04:23:00,
2013-07-23 00:24:00,77.2,74.4,29.93,SSW,198,4.4,4.4,91,0.00,,,0.00,0.00,VWS V14.01,2013-07-23 04:24:00,
2013-07-23 00:25:00,77.2,74.4,29.93,South,190,2.2,4.4,91,0.00,,,0.00,0.00,VWS V14.01,2013-07-23 04:25:00,
2013-07-23 00:26:00,77.2,74.4,29.93,South,187,1.1,1.1,91,0.00,,,0.00,0.00,VWS V14.01,2013-07-23 04:26:00,
2013-07-23 00:27:00,77.2,74.4,29.93,South,187,1.1,1.1,91,0.00,,,0.00,0.00,VWS V14.01,2013-07-23 04:27:00,
2013-07-23 00:28:00,77.2,74.4,29.93,SSW,206,1.1,2.2,91,0.00,,,0.00,0.00,VWS V14.01,2013-07-23 04:28:00,
2013-07-23 00:29:00,77.2,74.4,29.93,SSW,210,0.0,4.4,91,0.00,,,0.00,0.00,VWS V14.01,2013-07-23 04:29:00,
2013-07-23 00:30:00,77.2,74.4,29.93,SSW,210,0.0,0.0,91,0.00,,,0.00,0.00,VWS V14.01,2013-07-23 04:30:00,
2013-07-23 00:31:00,77.2,74.4,29.93,SSW,203,1.1,1.1,91,0.00,,,0.00,0.00,VWS V14.01,2013-07-23 04:31:00,
2013-07-23 00:32:00,77.2,74.4,29.93,SW,227,4.4,4.4,91,0.00,,,0.00,0.00,VWS V14.01,2013-07-23 04:32:00,
2013-07-23 00:33:00,77.2,74.4,29.93,SW,226,0.0,4.4,91,0.00,,,0.00,0.00,VWS V14.01,2013-07-23 04:33:00,
2013-07-23 00:34:00,77.2,74.4,29.93,SW,220,1.1,1.1,91,0.00,,,0.00,0.00,VWS V14.01,2013-07-23 04:34:00,
2013-07-23 00:35:00,77.2,74.4,29.93,SW,220,0.0,1.1,91,0.00,,,0.00,0.00,VWS V14.01,2013-07-23 04:35:00,
2013-07-23 00:36:00,77.2,74.4,29.93,ESE,106,0.0,1.1,91,0.00,,,0.00,0.00,VWS V14.01,2013-07-23 04:36:00,
2013-07-23 00:37:00,77.2,74.4,29.93,SSW,193,0.0,4.4,91,0.00,,,0.00,0.00,VWS V14.01,2013-07-23 04:37:00,
2013-07-23 00:38:00,77.2,74.4,29.93,SSW,192,0.0,2.2,91,0.00,,,0.00,0.00,VWS V14.01,2013-07-23 04:38:00,
2013-07-23 00:39:00,77.2,74.4,29.93,SSW,192,0.0,1.1,91,0.00,,,0.00,0.00,VWS V14.01,2013-07-23 04:39:00,
2013-07-23 00:40:00,77.2,74.4,29.93,SSW,207,1.1,2.2,91,0.00,,,0.00,0.00,VWS V14.01,2013-07-23 04:40:00,
2013-07-23 00:41:00,77.2,74.4,29.93,SSW,208,0.0,0.0,91,0.00,,,0.00,0.00,VWS V14.01,2013-07-23 04:41:00,
2013-07-23 00:42:00,77.2,74.4,29.93,SSW,208,0.0,0.0,91,0.00,,,0.00,0.00,VWS V14.01,2013-07-23 04:42:00,
2013-07-23 00:43:00,77.2,74.4,29.93,SSW,201,0.0,2.2,91,0.00,,,0.00,0.00,VWS V14.01,2013-07-23 04:43:00,
2013-07-23 00:44:00,77.2,74.4,29.93,South,171,4.4,4.4,91,0.00,,,0.00,0.00,VWS V14.01,2013-07-23 04:44:00,
2013-07-23 00:45:00,77.2,74.4,29.93,SSW,212,0.0,4.4,91,0.00,,,0.00,0.00,VWS V14.01,2013-07-23 04:45:00,
2013-07-23 00:46:00,77.2,74.4,29.92,SSW,211,0.0,1.1,91,0.00,,,0.00,0.00,VWS V14.01,2013-07-23 04:46:00,
2013-07-23 00:47:00,77.2,74.4,29.92,SW,216,1.1,3.3,91,0.00,,,0.00,0.00,VWS V14.01,2013-07-23 04:47:00,
2013-07-23 00:48:00,77.2,74.4,29.92,SW,226,1.1,2.2,91,0.00,,,0.00,0.00,VWS V14.01,2013-07-23 04:48:00,
2013-07-23 00:49:00,77.2,74.3,29.92,SW,226,0.0,1.1,91,0.00,,,0.00,0.00,VWS V14.01,2013-07-23 04:49:00,
2013-07-23 00:50:00,77.2,74.4,29.92,SW,225,0.0,1.1,91,0.00,,,0.00,0.00,VWS V14.01,2013-07-23 04:50:00,
2013-07-23 00:51:00,77.2,74.8,29.92,SW,221,0.0,1.1,92,0.00,,,0.00,0.00,VWS V14.01,2013-07-23 04:51:00,
2013-07-23 00:52:00,77.2,74.8,29.92,SW,221,0.0,1.1,92,0.00,,,0.00,0.00,VWS V14.01,2013-07-23 04:52:00,
2013-07-23 00:53:00,77.2,74.8,29.92,SW,221,0.0,1.1,92,0.00,,,0.00,0.00,VWS V14.01,2013-07-23 04:53:00,
2013-07-23 00:54:00,77.2,74.7,29.92,SW,221,0.0,0.0,92,0.00,,,0.00,0.00,VWS V14.01,2013-07-23 04:54:00,
2013-07-23 00:55:00,77.2,74.7,29.92,SSW,202,2.2,2.2,92,0.00,,,0.00,0.00,VWS V14.01,2013-07-23 04:55:00,
2013-07-23 00:56:00,77.2,74.8,29.92,SSW,201,0.0,0.0,92,0.00,,,0.00,0.00,VWS V14.01,2013-07-23 04:56:00,
2013-07-23 00:57:00,77.2,74.8,29.92,SSW,201,0.0,0.0,92,0.00,,,0.00,0.00,VWS V14.01,2013-07-23 04:57:00,
2013-07-23 00:58:00,77.2,74.7,29.92,SSW,201,0.0,0.0,92,0.00,,,0.00,0.00,VWS V14.01,2013-07-23 04:58:00,
2013-07-23 00:59:00,77.2,74.7,29.92,South,191,2.2,4.4,92,0.00,,,0.00,0.00,VWS V14.01,2013-07-23 04:59:00,
2013-07-23 01:00:00,77.2,74.7,29.92,SSW,207,2.2,3.3,92,0.00,,,0.00,0.00,VWS V14.01,2013-07-23 05:00:00,
2013-07-23 01:01:00,77.2,74.7,29.92,SSW,206,1.1,1.1,92,0.00,,,0.00,0.00,VWS V14.01,2013-07-23 05:01:00,
2013-07-23 01:02:00,77.2,74.7,29.92,SSE,162,0.0,2.2,92,0.00,,,0.00,0.00,VWS V14.01,2013-07-23 05:02:00,
2013-07-23 01:03:00,77.2,74.7,29.92,SW,214,0.0,3.3,92,0.00,,,0.00,0.00,VWS V14.01,2013-07-23 05:03:00,
2013-07-23 01:04:00,77.2,74.7,29.92,SW,214,1.1,2.2,92,0.00,,,0.00,0.00,VWS V14.01,2013-07-23 05:04:00,
2013-07-23 01:05:00,77.2,74.7,29.92,South,179,0.0,1.1,92,0.00,,,0.00,0.00,VWS V14.01,2013-07-23 05:05:00,
2013-07-23 01:06:00,77.2,74.7,29.92,South,179,0.0,0.0,92,0.00,,,0.00,0.00,VWS V14.01,2013-07-23 05:06:00,
2013-07-23 01:07:00,77.2,74.7,29.92,South,183,1.1,1.1,92,0.00,,,0.00,0.00,VWS V14.01,2013-07-23 05:07:00,
2013-07-23 01:08:00,77.2,74.7,29.92,SSW,199,0.0,2.2,92,0.00,,,0.00,0.00,VWS V14.01,2013-07-23 05:08:00,
2013-07-23 01:09:00,77.1,74.6,29.92,SSW,199,0.0,0.0,92,0.00,,,0.00,0.00,VWS V14.01,2013-07-23 05:09:00,
2013-07-23 01:10:00,77.1,74.6,29.92,South,190,0.0,3.3,92,0.00,,,0.00,0.00,VWS V14.01,2013-07-23 05:10:00,
2013-07-23 01:11:00,77.1,74.6,29.92,South,190,0.0,0.0,92,0.00,,,0.00,0.00,VWS V14.01,2013-07-23 05:11:00,
2013-07-23 01:12:00,77.1,74.6,29.92,South,190,0.0,1.1,92,0.00,,,0.00,0.00,VWS V14.01,2013-07-23 05:12:00,
2013-07-23 01:13:00,77.1,74.6,29.92,South,191,1.1,1.1,92,0.00,,,0.00,0.00,VWS V14.01,2013-07-23 05:13:00,
2013-07-23 01:14:00,77.1,74.6,29.92,SSW,208,0.0,2.2,92,0.00,,,0.00,0.00,VWS V14.01,2013-07-23 05:14:00,
2013-07-23 01:15:00,77.1,74.6,29.92,South,169,1.1,1.1,92,0.00,,,0.00,0.00,VWS V14.01,2013-07-23 05:15:00,
2013-07-23 01:16:00,77.1,74.6,29.92,SW,227,3.3,5.5,92,0.00,,,0.00,0.00,VWS V14.01,2013-07-23 05:16:00,
2013-07-23 01:17:00,77.1,74.6,29.92,SW,220,0.0,5.5,92,0.00,,,0.00,0.00,VWS V14.01,2013-07-23 05:17:00,
2013-07-23 01:18:00,77.1,74.6,29.92,South,182,1.1,2.2,92,0.00,,,0.00,0.00,VWS V14.01,2013-07-23 05:18:00,
2013-07-23 01:19:00,77.1,74.6,29.92,South,182,1.1,1.1,92,0.00,,,0.00,0.00,VWS V14.01,2013-07-23 05:19:00,
2013-07-23 01:20:00,77.1,74.6,29.92,South,186,0.0,4.4,92,0.00,,,0.00,0.00,VWS V14.01,2013-07-23 05:20:00,
2013-07-23 01:21:00,77.1,74.6,29.92,South,186,0.0,0.0,92,0.00,,,0.00,0.00,VWS V14.01,2013-07-23 05:21:00,
2013-07-23 01:22:00,77.1,74.6,29.92,West,269,0.0,1.1,92,0.00,,,0.00,0.00,VWS V14.01,2013-07-23 05:22:00,
2013-07-23 01:23:00,77.1,74.6,29.92,WSW,241,5.5,5.5,92,0.00,,,0.00,0.00,VWS V14.01,2013-07-23 05:23:00,
2013-07-23 01:24:00,77.1,74.6,29.92,SSE,148,1.1,5.5,92,0.00,,,0.00,0.00,VWS V14.01,2013-07-23 05:24:00,
2013-07-23 01:25:00,77.1,74.9,29.92,SSW,198,2.2,2.2,93,0.00,,,0.00,0.00,VWS V14.01,2013-07-23 05:25:00,
2013-07-23 01:26:00,77.1,74.6,29.92,SW,214,1.1,1.1,92,0.00,,,0.00,0.00,VWS V14.01,2013-07-23 05:26:00,
2013-07-23 01:27:00,77.1,74.6,29.92,SW,214,0.0,1.1,92,0.00,,,0.00,0.00,VWS V14.01,2013-07-23 05:27:00,
2013-07-23 01:28:00,77.1,74.6,29.92,SSE,162,1.1,2.2,92,0.00,,,0.00,0.00,VWS V14.01,2013-07-23 05:28:00,
2013-07-23 01:29:00,77.1,74.6,29.92,SSE,167,1.1,2.2,92,0.00,,,0.00,0.00,VWS V14.01,2013-07-23 05:29:00,
2013-07-23 01:30:00,77.1,74.9,29.92,SSW,212,1.1,3.3,93,0.00,,,0.00,0.00,VWS V14.01,2013-07-23 05:30:00,
2013-07-23 01:31:00,77.1,74.9,29.92,SSW,211,0.0,0.0,93,0.00,,,0.00,0.00,VWS V14.01,2013-07-23 05:31:00,
2013-07-23 01:32:00,77.1,74.9,29.92,SSW,211,0.0,0.0,93,0.00,,,0.00,0.00,VWS V14.01,2013-07-23 05:32:00,
2013-07-23 01:33:00,77.1,74.9,29.92,SSE,165,1.1,1.1,93,0.00,,,0.00,0.00,VWS V14.01,2013-07-23 05:33:00,
2013-07-23 01:34:00,77.1,74.9,29.92,SSW,195,0.0,5.5,93,0.00,,,0.00,0.00,VWS V14.01,2013-07-23 05:34:00,
2013-07-23 01:35:00,77.1,74.9,29.91,SSW,200,0.0,1.1,93,0.00,,,0.00,0.00,VWS V14.01,2013-07-23 05:35:00,
2013-07-23 01:36:00,77.1,74.9,29.91,South,189,3.3,3.3,93,0.00,,,0.00,0.00,VWS V14.01,2013-07-23 05:36:00,
2013-07-23 01:37:00,77.1,74.9,29.91,SW,215,4.4,4.4,93,0.00,,,0.00,0.00,VWS V14.01,2013-07-23 05:37:00,
2013-07-23 01:38:00,77.1,74.9,29.91,SSW,204,0.0,7.7,93,0.00,,,0.00,0.00,VWS V14.01,2013-07-23 05:38:00,
2013-07-23 01:39:00,77.1,74.9,29.91,WSW,256,2.2,2.2,93,0.00,,,0.00,0.00,VWS V14.01,2013-07-23 05:39:00,
2013-07-23 01:40:00,77.1,74.9,29.91,SW,220,0.0,2.2,93,0.00,,,0.00,0.00,VWS V14.01,2013-07-23 05:40:00,
2013-07-23 01:41:00,77.1,74.9,29.91,SSW,197,4.4,4.4,93,0.00,,,0.00,0.00,VWS V14.01,2013-07-23 05:41:00,
2013-07-23 01:42:00,77.1,74.9,29.91,South,178,2.2,4.4,93,0.00,,,0.00,0.00,VWS V14.01,2013-07-23 05:42:00,
2013-07-23 01:43:00,77.1,74.9,29.91,SW,224,1.1,3.3,93,0.00,,,0.00,0.00,VWS V14.01,2013-07-23 05:43:00,
2013-07-23 01:44:00,77.1,74.9,29.91,SW,224,0.0,1.1,93,0.00,,,0.00,0.00,VWS V14.01,2013-07-23 05:44:00,
2013-07-23 01:45:00,77.1,74.9,29.91,SSW,200,3.3,3.3,93,0.00,,,0.00,0.00,VWS V14.01,2013-07-23 05:45:00,
2013-07-23 01:46:00,77.1,74.9,29.91,SSW,202,0.0,0.0,93,0.00,,,0.00,0.00,VWS V14.01,2013-07-23 05:46:00,
2013-07-23 01:47:00,77.1,74.9,29.91,SSW,202,1.1,1.1,93,0.00,,,0.00,0.00,VWS V14.01,2013-07-23 05:47:00,
2013-07-23 01:48:00,77.1,74.9,29.91,South,181,2.2,3.3,93,0.00,,,0.00,0.00,VWS V14.01,2013-07-23 05:48:00,
2013-07-23 01:49:00,77.1,74.9,29.91,SSW,200,3.3,5.5,93,0.00,,,0.00,0.00,VWS V14.01,2013-07-23 05:49:00,
2013-07-23 01:50:00,77.1,74.9,29.91,SW,219,1.1,3.3,93,0.00,,,0.00,0.00,VWS V14.01,2013-07-23 05:50:00,
2013-07-23 01:51:00,77.1,74.9,29.91,SSW,198,0.0,1.1,93,0.00,,,0.00,0.00,VWS V14.01,2013-07-23 05:51:00,
2013-07-23 01:52:00,77.1,74.9,29.91,South,190,2.2,2.2,93,0.00,,,0.00,0.00,VWS V14.01,2013-07-23 05:52:00,
2013-07-23 01:53:00,77.1,74.9,29.91,SSE,158,3.3,3.3,93,0.00,,,0.00,0.00,VWS V14.01,2013-07-23 05:53:00,
2013-07-23 01:54:00,77.1,74.9,29.91,SE,145,3.3,5.5,93,0.00,,,0.00,0.00,VWS V14.01,2013-07-23 05:54:00,
2013-07-23 01:55:00,77.1,74.9,29.91,SSW,201,1.1,4.4,93,0.00,,,0.00,0.00,VWS V14.01,2013-07-23 05:55:00,
2013-07-23 01:56:00,77.1,74.9,29.91,SSW,201,3.3,3.3,93,0.00,,,0.00,0.00,VWS V14.01,2013-07-23 05:56:00,
2013-07-23 01:57:00,77.1,74.9,29.91,SSW,200,1.1,3.3,93,0.00,,,0.00,0.00,VWS V14.01,2013-07-23 05:57:00,
2013-07-23 01:58:00,77.1,74.9,29.91,SSW,208,1.1,2.2,93,0.00,,,0.00,0.00,VWS V14.01,2013-07-23 05:58:00,
2013-07-23 01:59:00,77.1,74.9,29.91,South,179,2.2,2.2,93,0.00,,,0.00,0.00,VWS V14.01,2013-07-23 05:59:00,
2013-07-23 02:00:00,77.1,74.9,29.91,SSW,199,2.2,4.4,93,0.00,,,0.00,0.00,VWS V14.01,2013-07-23 06:00:00,
2013-07-23 02:01:00,77.2,75.0,29.91,SW,223,0.0,1.1,93,0.00,,,0.00,0.00,VWS V14.01,2013-07-23 06:01:00,
2013-07-23 02:02:00,77.2,75.0,29.91,SW,223,0.0,1.1,93,0.00,,,0.00,0.00,VWS V14.01,2013-07-23 06:02:00,
2013-07-23 02:03:00,77.2,75.0,29.91,South,187,3.3,3.3,93,0.00,,,0.00,0.00,VWS V14.01,2013-07-23 06:03:00,
2013-07-23 02:04:00,77.2,75.0,29.91,SSW,206,1.1,3.3,93,0.00,,,0.00,0.00,VWS V14.01,2013-07-23 06:04:00,
2013-07-23 02:05:00,77.2,75.0,29.91,SW,214,1.1,2.2,93,0.00,,,0.00,0.00,VWS V14.01,2013-07-23 06:05:00,
2013-07-23 02:06:00,77.2,75.0,29.91,SW,214,0.0,0.0,93,0.00,,,0.00,0.00,VWS V14.01,2013-07-23 06:06:00,
2013-07-23 02:07:00,77.2,75.0,29.91,SW,218,0.0,2.2,93,0.00,,,0.00,0.00,VWS V14.01,2013-07-23 06:07:00,
2013-07-23 02:08:00,77.2,75.0,29.91,SSW,208,1.1,2.2,93,0.00,,,0.00,0.00,VWS V14.01,2013-07-23 06:08:00,
2013-07-23 02:09:00,77.2,75.0,29.91,SSW,209,2.2,2.2,93,0.00,,,0.00,0.00,VWS V14.01,2013-07-23 06:09:00,
2013-07-23 02:10:00,77.2,75.0,29.91,SSW,209,0.0,2.2,93,0.00,,,0.00,0.00,VWS V14.01,2013-07-23 06:10:00,
2013-07-23 02:11:00,77.1,74.9,29.91,SW,218,2.2,2.2,93,0.00,,,0.00,0.00,VWS V14.01,2013-07-23 06:11:00,
2013-07-23 02:12:00,77.2,75.0,29.91,SSW,210,0.0,2.2,93,0.00,,,0.00,0.00,VWS V14.01,2013-07-23 06:12:00,
2013-07-23 02:13:00,77.2,75.0,29.91,SSW,212,2.2,2.2,93,0.00,,,0.00,0.00,VWS V14.01,2013-07-23 06:13:00,
2013-07-23 02:14:00,77.2,75.0,29.91,SSW,212,0.0,2.2,93,0.00,,,0.00,0.00,VWS V14.01,2013-07-23 06:14:00,
2013-07-23 02:15:00,77.2,75.0,29.91,SSW,212,1.1,1.1,93,0.00,,,0.00,0.00,VWS V14.01,2013-07-23 06:15:00,
2013-07-23 02:16:00,77.2,75.0,29.91,South,188,3.3,3.3,93,0.00,,,0.00,0.00,VWS V14.01,2013-07-23 06:16:00,
2013-07-23 02:17:00,77.2,75.0,29.91,SE,130,0.0,4.4,93,0.00,,,0.00,0.00,VWS V14.01,2013-07-23 06:17:00,
2013-07-23 02:18:00,77.2,75.0,29.91,SW,230,1.1,6.6,93,0.00,,,0.00,0.00,VWS V14.01,2013-07-23 06:18:00,
2013-07-23 02:19:00,77.2,75.0,29.91,SSW,209,2.2,2.2,93,0.00,,,0.00,0.00,VWS V14.01,2013-07-23 06:19:00,
2013-07-23 02:20:00,77.2,75.0,29.91,SSW,209,1.1,2.2,93,0.00,,,0.00,0.00,VWS V14.01,2013-07-23 06:20:00,
2013-07-23 02:21:00,77.2,75.1,29.91,SSE,147,0.0,1.1,93,0.00,,,0.00,0.00,VWS V14.01,2013-07-23 06:21:00,
2013-07-23 02:22:00,77.2,75.1,29.91,SSE,147,0.0,1.1,93,0.00,,,0.00,0.00,VWS V14.01,2013-07-23 06:22:00,
2013-07-23 02:23:00,77.2,75.1,29.91,SSW,197,1.1,5.5,93,0.00,,,0.00,0.00,VWS V14.01,2013-07-23 06:23:00,
2013-07-23 02:24:00,77.2,75.1,29.91,West,260,3.3,3.3,93,0.00,,,0.00,0.00,VWS V14.01,2013-07-23 06:24:00,
2013-07-23 02:25:00,77.2,75.1,29.91,SSW,204,1.1,3.3,93,0.00,,,0.00,0.00,VWS V14.01,2013-07-23 06:25:00,
2013-07-23 02:26:00,77.2,75.1,29.91,SSW,204,0.0,0.0,93,0.00,,,0.00,0.00,VWS V14.01,2013-07-23 06:26:00,
2013-07-23 02:27:00,77.2,75.1,29.91,SSW,208,0.0,2.2,93,0.00,,,0.00,0.00,VWS V14.01,2013-07-23 06:27:00,
2013-07-23 02:28:00,77.2,75.1,29.91,SSW,208,0.0,0.0,93,0.00,,,0.00,0.00,VWS V14.01,2013-07-23 06:28:00,
2013-07-23 02:29:00,77.3,75.2,29.91,SW,236,1.1,4.4,93,0.00,,,0.00,0.00,VWS V14.01,2013-07-23 06:29:00,
2013-07-23 02:30:00,77.2,75.1,29.91,ESE,122,0.0,5.5,93,0.00,,,0.00,0.00,VWS V14.01,2013-07-23 06:30:00,
2013-07-23 02:31:00,77.3,75.2,29.91,SSW,195,1.1,1.1,93,0.00,,,0.00,0.00,VWS V14.01,2013-07-23 06:31:00,
2013-07-23 02:32:00,77.3,75.2,29.91,SSW,202,0.0,1.1,93,0.00,,,0.00,0.00,VWS V14.01,2013-07-23 06:32:00,
2013-07-23 02:33:00,77.3,75.2,29.91,South,171,2.2,2.2,93,0.00,,,0.00,0.00,VWS V14.01,2013-07-23 06:33:00,
2013-07-23 02:34:00,77.3,75.2,29.91,South,170,2.2,2.2,93,0.00,,,0.00,0.00,VWS V14.01,2013-07-23 06:34:00,
2013-07-23 02:35:00,77.3,75.2,29.91,South,174,2.2,2.2,93,0.00,,,0.00,0.00,VWS V14.01,2013-07-23 06:35:00,
2013-07-23 02:36:00,77.3,75.2,29.91,SSW,210,2.2,2.2,93,0.00,,,0.00,0.00,VWS V14.01,2013-07-23 06:36:00,
2013-07-23 02:37:00,77.3,75.2,29.91,West,268,3.3,3.3,93,0.00,,,0.00,0.00,VWS V14.01,2013-07-23 06:37:00,
2013-07-23 02:38:00,77.3,75.2,29.91,South,190,2.2,4.4,93,0.00,,,0.00,0.00,VWS V14.01,2013-07-23 06:38:00,
2013-07-23 02:39:00,77.3,75.2,29.91,West,261,1.1,2.2,93,0.00,,,0.00,0.00,VWS V14.01,2013-07-23 06:39:00,
2013-07-23 02:40:00,77.3,75.2,29.91,SSW,205,2.2,2.2,93,0.00,,,0.00,0.00,VWS V14.01,2013-07-23 06:40:00,
2013-07-23 02:41:00,77.3,75.2,29.90,SSW,204,2.2,2.2,93,0.00,,,0.00,0.00,VWS V14.01,2013-07-23 06:41:00,
2013-07-23 02:42:00,77.3,75.2,29.90,SW,221,3.3,5.5,93,0.00,,,0.00,0.00,VWS V14.01,2013-07-23 06:42:00,
2013-07-23 02:43:00,77.3,75.2,29.91,WSW,239,4.4,6.6,93,0.00,,,0.00,0.00,VWS V14.01,2013-07-23 06:43:00,
2013-07-23 02:44:00,77.3,75.2,29.91,South,173,0.0,4.4,93,0.00,,,0.00,0.00,VWS V14.01,2013-07-23 06:44:00,
2013-07-23 02:45:00,77.3,75.2,29.91,SSW,210,1.1,2.2,93,0.00,,,0.00,0.00,VWS V14.01,2013-07-23 06:45:00,
2013-07-23 02:46:00,77.3,74.8,29.90,South,185,3.3,3.3,92,0.00,,,0.00,0.00,VWS V14.01,2013-07-23 06:46:00,
2013-07-23 02:47:00,77.3,74.8,29.90,West,268,0.0,3.3,92,0.00,,,0.00,0.00,VWS V14.01,2013-07-23 06:47:00,
2013-07-23 02:48:00,77.3,74.8,29.90,West,268,0.0,0.0,92,0.00,,,0.00,0.00,VWS V14.01,2013-07-23 06:48:00,
2013-07-23 02:49:00,77.3,74.8,29.90,WSW,255,1.1,1.1,92,0.00,,,0.00,0.00,VWS V14.01,2013-07-23 06:49:00,
2013-07-23 02:50:00,77.3,74.8,29.90,South,189,1.1,2.2,92,0.00,,,0.00,0.00,VWS V14.01,2013-07-23 06:50:00,
2013-07-23 02:51:00,77.3,74.8,29.90,SSW,198,2.2,2.2,92,0.00,,,0.00,0.00,VWS V14.01,2013-07-23 06:51:00,
2013-07-23 02:52:00,77.3,74.8,29.90,SSW,198,0.0,4.4,92,0.00,,,0.00,0.00,VWS V14.01,2013-07-23 06:52:00,
2013-07-23 02:53:00,77.3,74.8,29.90,SSW,209,2.2,3.3,92,0.00,,,0.00,0.00,VWS V14.01,2013-07-23 06:53:00,
2013-07-23 02:54:00,77.3,74.8,29.90,South,176,0.0,2.2,92,0.00,,,0.00,0.00,VWS V14.01,2013-07-23 06:54:00,
2013-07-23 02:55:00,77.3,74.8,29.90,SSW,198,3.3,3.3,92,0.00,,,0.00,0.00,VWS V14.01,2013-07-23 06:55:00,
2013-07-23 02:56:00,77.3,74.8,29.90,SSW,202,1.1,1.1,92,0.00,,,0.00,0.00,VWS V14.01,2013-07-23 06:56:00,
2013-07-23 02:57:00,77.3,74.8,29.90,South,185,1.1,1.1,92,0.00,,,0.00,0.00,VWS V14.01,2013-07-23 06:57:00,
2013-07-23 02:58:00,77.3,74.8,29.90,SSE,156,3.3,3.3,92,0.00,,,0.00,0.00,VWS V14.01,2013-07-23 06:58:00,
2013-07-23 02:59:00,77.3,74.8,29.90,SW,215,1.1,3.3,92,0.00,,,0.00,0.00,VWS V14.01,2013-07-23 06:59:00,
2013-07-23 03:00:00,77.4,74.9,29.90,South,180,1.1,4.4,92,0.00,,,0.00,0.00,VWS V14.01,2013-07-23 07:00:00,
2013-07-23 03:01:00,77.4,74.9,29.90,South,181,0.0,0.0,92,0.00,,,0.00,0.00,VWS V14.01,2013-07-23 07:01:00,
2013-07-23 03:02:00,77.4,74.9,29.90,South,181,0.0,0.0,92,0.00,,,0.00,0.00,VWS V14.01,2013-07-23 07:02:00,
2013-07-23 03:03:00,77.4,74.9,29.90,South,185,0.0,2.2,92,0.00,,,0.00,0.00,VWS V14.01,2013-07-23 07:03:00,
2013-07-23 03:04:00,77.4,74.9,29.90,South,187,0.0,1.1,92,0.00,,,0.00,0.00,VWS V14.01,2013-07-23 07:04:00,
2013-07-23 03:05:00,77.4,74.9,29.90,SSW,207,2.2,2.2,92,0.00,,,0.00,0.00,VWS V14.01,2013-07-23 07:05:00,
2013-07-23 03:06:00,77.4,74.9,29.90,SSW,211,2.2,2.2,92,0.00,,,0.00,0.00,VWS V14.01,2013-07-23 07:06:00,
2013-07-23 03:07:00,77.4,74.9,29.90,South,180,1.1,2.2,92,0.00,,,0.00,0.00,VWS V14.01,2013-07-23 07:07:00,
2013-07-23 03:08:00,77.4,74.9,29.90,South,181,1.1,1.1,92,0.00,,,0.00,0.00,VWS V14.01,2013-07-23 07:08:00,
2013-07-23 03:09:00,77.4,74.9,29.90,SSW,206,2.2,3.3,92,0.00,,,0.00,0.00,VWS V14.01,2013-07-23 07:09:00,
2013-07-23 03:10:00,77.4,74.9,29.90,SW,233,2.2,4.4,92,0.00,,,0.00,0.00,VWS V14.01,2013-07-23 07:10:00,
2013-07-23 03:11:00,77.4,74.9,29.90,SW,214,5.5,5.5,92,0.00,,,0.00,0.00,VWS V14.01,2013-07-23 07:11:00,
2013-07-23 03:12:00,77.4,74.9,29.90,SW,231,2.2,5.5,92,0.00,,,0.00,0.00,VWS V14.01,2013-07-23 07:12:00,
2013-07-23 03:13:00,77.4,74.9,29.90,SSW,202,4.4,5.5,92,0.00,,,0.00,0.00,VWS V14.01,2013-07-23 07:13:00,
2013-07-23 03:14:00,77.4,74.9,29.90,SSW,193,2.2,5.5,92,0.00,,,0.00,0.00,VWS V14.01,2013-07-23 07:14:00,
2013-07-23 03:15:00,77.4,74.9,29.90,SSW,211,0.0,3.3,92,0.00,,,0.00,0.00,VWS V14.01,2013-07-23 07:15:00,
2013-07-23 03:16:00,77.4,74.9,29.90,SSE,153,1.1,2.2,92,0.00,,,0.00,0.00,VWS V14.01,2013-07-23 07:16:00,
2013-07-23 03:17:00,77.4,74.9,29.90,SSW,199,0.0,4.4,92,0.00,,,0.00,0.00,VWS V14.01,2013-07-23 07:17:00,
2013-07-23 03:18:00,77.4,74.9,29.90,WSW,242,0.0,3.3,92,0.00,,,0.00,0.00,VWS V14.01,2013-07-23 07:18:00,
2013-07-23 03:19:00,77.4,74.6,29.90,SSW,202,2.2,3.3,91,0.00,,,0.00,0.00,VWS V14.01,2013-07-23 07:19:00,
2013-07-23 03:20:00,77.4,74.6,29.90,SW,235,3.3,3.3,91,0.00,,,0.00,0.00,VWS V14.01,2013-07-23 07:20:00,
2013-07-23 03:21:00,77.4,74.6,29.90,South,183,4.4,4.4,91,0.00,,,0.00,0.00,VWS V14.01,2013-07-23 07:21:00,
2013-07-23 03:22:00,77.4,74.6,29.90,SSE,163,0.0,5.5,91,0.00,,,0.00,0.00,VWS V14.01,2013-07-23 07:22:00,
2013-07-23 03:23:00,77.4,74.6,29.90,WNW,293,2.2,4.4,91,0.00,,,0.00,0.00,VWS V14.01,2013-07-23 07:23:00,
2013-07-23 03:24:00,77.4,74.6,29.90,SSW,200,1.1,2.2,91,0.00,,,0.00,0.00,VWS V14.01,2013-07-23 07:24:00,
2013-07-23 03:25:00,77.4,74.6,29.90,SSW,204,0.0,3.3,91,0.00,,,0.00,0.00,VWS V14.01,2013-07-23 07:25:00,
2013-07-23 03:26:00,77.4,74.6,29.89,SSW,193,5.5,5.5,91,0.00,,,0.00,0.00,VWS V14.01,2013-07-23 07:26:00,
2013-07-23 03:27:00,77.4,74.6,29.89,SSW,212,0.0,5.5,91,0.00,,,0.00,0.00,VWS V14.01,2013-07-23 07:27:00,
2013-07-23 03:28:00,77.4,74.6,29.89,SW,216,1.1,5.5,91,0.00,,,0.00,0.00,VWS V14.01,2013-07-23 07:28:00,
2013-07-23 03:29:00,77.6,74.7,29.89,SSW,210,1.1,2.2,91,0.00,,,0.00,0.00,VWS V14.01,2013-07-23 07:29:00,
2013-07-23 03:30:00,77.6,74.7,29.89,ESE,105,1.1,4.4,91,0.00,,,0.00,0.00,VWS V14.01,2013-07-23 07:30:00,
2013-07-23 03:31:00,77.4,74.6,29.89,SW,231,2.2,3.3,91,0.00,,,0.00,0.00,VWS V14.01,2013-07-23 07:31:00,
2013-07-23 03:32:00,77.6,74.7,29.89,SSW,203,0.0,4.4,91,0.00,,,0.00,0.00,VWS V14.01,2013-07-23 07:32:00,
2013-07-23 03:33:00,77.6,74.7,29.89,SSW,212,5.5,5.5,91,0.00,,,0.00,0.00,VWS V14.01,2013-07-23 07:33:00,
2013-07-23 03:34:00,77.6,74.7,29.89,SSE,163,1.1,5.5,91,0.00,,,0.00,0.00,VWS V14.01,2013-07-23 07:34:00,
2013-07-23 03:35:00,77.6,74.7,29.89,SW,232,1.1,2.2,91,0.00,,,0.00,0.00,VWS V14.01,2013-07-23 07:35:00,
2013-07-23 03:36:00,77.6,74.7,29.89,South,169,5.5,6.6,91,0.00,,,0.00,0.00,VWS V14.01,2013-07-23 07:36:00,
2013-07-23 03:37:00,77.6,74.7,29.89,SSE,164,1.1,6.6,91,0.00,,,0.00,0.00,VWS V14.01,2013-07-23 07:37:00,
2013-07-23 03:38:00,77.6,74.7,29.89,South,191,1.1,3.3,91,0.00,,,0.00,0.00,VWS V14.01,2013-07-23 07:38:00,
2013-07-23 03:39:00,77.6,74.7,29.89,SSW,204,2.2,3.3,91,0.00,,,0.00,0.00,VWS V14.01,2013-07-23 07:39:00,
2013-07-23 03:40:00,77.6,74.7,29.89,SSW,199,2.2,6.6,91,0.00,,,0.00,0.00,VWS V14.01,2013-07-23 07:40:00,
2013-07-23 03:41:00,77.7,74.5,29.89,SSW,209,4.4,4.4,90,0.00,,,0.00,0.00,VWS V14.01,2013-07-23 07:41:00,
2013-07-23 03:42:00,77.7,74.5,29.89,SSE,167,0.0,4.4,90,0.00,,,0.00,0.00,VWS V14.01,2013-07-23 07:42:00,
2013-07-23 03:43:00,77.7,74.5,29.89,SW,223,3.3,3.3,90,0.00,,,0.00,0.00,VWS V14.01,2013-07-23 07:43:00,
2013-07-23 03:44:00,77.7,74.5,29.89,South,187,2.2,4.4,90,0.00,,,0.00,0.00,VWS V14.01,2013-07-23 07:44:00,
2013-07-23 03:45:00,77.7,74.5,29.89,South,181,0.0,7.7,90,0.00,,,0.00,0.00,VWS V14.01,2013-07-23 07:45:00,
2013-07-23 03:46:00,77.7,74.5,29.89,WSW,242,4.4,4.4,90,0.00,,,0.00,0.00,VWS V14.01,2013-07-23 07:46:00,
2013-07-23 03:47:00,77.7,74.5,29.89,South,169,4.4,4.4,90,0.00,,,0.00,0.00,VWS V14.01,2013-07-23 07:47:00,
2013-07-23 03:48:00,77.7,74.5,29.89,SSW,207,0.0,4.4,90,0.00,,,0.00,0.00,VWS V14.01,2013-07-23 07:48:00,
2013-07-23 03:49:00,77.7,74.5,29.89,SSW,202,1.1,2.2,90,0.00,,,0.00,0.00,VWS V14.01,2013-07-23 07:49:00,
2013-07-23 03:50:00,77.7,74.5,29.89,SSW,201,0.0,2.2,90,0.00,,,0.00,0.00,VWS V14.01,2013-07-23 07:50:00,
2013-07-23 03:51:00,77.7,74.5,29.89,SSE,163,1.1,2.2,90,0.00,,,0.00,0.00,VWS V14.01,2013-07-23 07:51:00,
2013-07-23 03:52:00,77.7,74.5,29.89,South,171,1.1,2.2,90,0.00,,,0.00,0.00,VWS V14.01,2013-07-23 07:52:00,
2013-07-23 03:53:00,77.7,74.5,29.89,SSW,193,3.3,5.5,90,0.00,,,0.00,0.00,VWS V14.01,2013-07-23 07:53:00,
2013-07-23 03:54:00,77.7,74.5,29.89,South,184,1.1,5.5,90,0.00,,,0.00,0.00,VWS V14.01,2013-07-23 07:54:00,
2013-07-23 03:55:00,77.7,74.5,29.89,South,171,2.2,6.6,90,0.00,,,0.00,0.00,VWS V14.01,2013-07-23 07:55:00,
2013-07-23 03:56:00,77.7,74.5,29.89,SW,214,1.1,2.2,90,0.00,,,0.00,0.00,VWS V14.01,2013-07-23 07:56:00,
2013-07-23 03:57:00,77.7,74.5,29.89,SW,214,1.1,1.1,90,0.00,,,0.00,0.00,VWS V14.01,2013-07-23 07:57:00,
2013-07-23 03:58:00,77.7,74.5,29.89,South,183,0.0,1.1,90,0.00,,,0.00,0.00,VWS V14.01,2013-07-23 07:58:00,
2013-07-23 03:59:00,77.7,74.5,29.89,SW,217,1.1,3.3,90,0.00,,,0.00,0.00,VWS V14.01,2013-07-23 07:59:00,
2013-07-23 04:00:00,77.7,74.5,29.89,South,181,0.0,1.1,90,0.00,,,0.00,0.00,VWS V14.01,2013-07-23 08:00:00,
2013-07-23 04:01:00,77.7,74.5,29.89,SW,216,0.0,3.3,90,0.00,,,0.00,0.00,VWS V14.01,2013-07-23 08:01:00,
2013-07-23 04:02:00,77.7,74.5,29.89,SSW,202,1.1,2.2,90,0.00,,,0.00,0.00,VWS V14.01,2013-07-23 08:02:00,
2013-07-23 04:03:00,77.7,74.5,29.89,SSW,204,1.1,2.2,90,0.00,,,0.00,0.00,VWS V14.01,2013-07-23 08:03:00,
2013-07-23 04:04:00,77.7,74.5,29.89,South,173,1.1,3.3,90,0.00,,,0.00,0.00,VWS V14.01,2013-07-23 08:04:00,
2013-07-23 04:05:00,77.7,74.5,29.89,SSW,193,6.6,6.6,90,0.00,,,0.00,0.00,VWS V14.01,2013-07-23 08:05:00,
2013-07-23 04:06:00,77.7,74.5,29.89,SSW,210,1.1,6.6,90,0.00,,,0.00,0.00,VWS V14.01,2013-07-23 08:06:00,
2013-07-23 04:07:00,77.7,74.5,29.89,South,177,0.0,2.2,90,0.00,,,0.00,0.00,VWS V14.01,2013-07-23 08:07:00,
2013-07-23 04:08:00,77.7,74.5,29.89,South,177,1.1,1.1,90,0.00,,,0.00,0.00,VWS V14.01,2013-07-23 08:08:00,
2013-07-23 04:09:00,77.7,74.5,29.89,South,181,0.0,1.1,90,0.00,,,0.00,0.00,VWS V14.01,2013-07-23 08:09:00,
2013-07-23 04:10:00,77.7,74.5,29.89,SSE,168,2.2,4.4,90,0.00,,,0.00,0.00,VWS V14.01,2013-07-23 08:10:00,
2013-07-23 04:11:00,77.7,74.5,29.89,SW,225,3.3,7.7,90,0.00,,,0.00,0.00,VWS V14.01,2013-07-23 08:11:00,
2013-07-23 04:12:00,77.7,74.5,29.89,WSW,247,0.0,4.4,90,0.00,,,0.00,0.00,VWS V14.01,2013-07-23 08:12:00,
2013-07-23 04:13:00,77.7,74.5,29.89,South,179,1.1,3.3,90,0.00,,,0.00,0.00,VWS V14.01,2013-07-23 08:13:00,
2013-07-23 04:14:00,77.7,74.5,29.89,SW,216,5.5,5.5,90,0.00,,,0.00,0.00,VWS V14.01,2013-07-23 08:14:00,
2013-07-23 04:15:00,77.7,74.5,29.89,SSW,200,2.2,5.5,90,0.00,,,0.00,0.00,VWS V14.01,2013-07-23 08:15:00,
2013-07-23 04:16:00,77.6,74.4,29.89,SSE,164,0.0,2.2,90,0.00,,,0.00,0.00,VWS V14.01,2013-07-23 08:16:00,
2013-07-23 04:17:00,77.6,74.4,29.89,SSW,205,2.2,4.4,90,0.00,,,0.00,0.00,VWS V14.01,2013-07-23 08:17:00,
2013-07-23 04:18:00,77.6,74.4,29.89,South,174,1.1,5.5,90,0.00,,,0.00,0.00,VWS V14.01,2013-07-23 08:18:00,
2013-07-23 04:19:00,77.6,74.4,29.89,SSE,160,0.0,2.2,90,0.00,,,0.00,0.00,VWS V14.01,2013-07-23 08:19:00,
2013-07-23 04:20:00,77.6,74.4,29.89,South,181,2.2,2.2,90,0.00,,,0.00,0.00,VWS V14.01,2013-07-23 08:20:00,
2013-07-23 04:21:00,77.6,74.4,29.89,SSE,168,3.3,4.4,90,0.00,,,0.00,0.00,VWS V14.01,2013-07-23 08:21:00,
2013-07-23 04:22:00,77.6,74.4,29.89,SW,232,0.0,7.7,90,0.00,,,0.00,0.00,VWS V14.01,2013-07-23 08:22:00,
2013-07-23 04:23:00,77.6,74.4,29.89,SSE,164,2.2,4.4,90,0.00,,,0.00,0.00,VWS V14.01,2013-07-23 08:23:00,
2013-07-23 04:24:00,77.6,74.4,29.89,WSW,239,0.0,5.5,90,0.00,,,0.00,0.00,VWS V14.01,2013-07-23 08:24:00,
2013-07-23 04:25:00,77.6,74.4,29.89,WSW,239,0.0,0.0,90,0.00,,,0.00,0.00,VWS V14.01,2013-07-23 08:25:00,
2013-07-23 04:26:00,77.6,74.4,29.89,SW,216,2.2,2.2,90,0.00,,,0.00,0.00,VWS V14.01,2013-07-23 08:26:00,
2013-07-23 04:27:00,77.6,74.4,29.88,SW,216,3.3,5.5,90,0.00,,,0.00,0.00,VWS V14.01,2013-07-23 08:27:00,
2013-07-23 04:28:00,77.6,74.1,29.88,WSW,237,2.2,3.3,89,0.00,,,0.00,0.00,VWS V14.01,2013-07-23 08:28:00,
2013-07-23 04:29:00,77.6,74.1,29.88,SW,216,0.0,3.3,89,0.00,,,0.00,0.00,VWS V14.01,2013-07-23 08:29:00,
2013-07-23 04:30:00,77.6,74.1,29.88,South,184,1.1,4.4,89,0.00,,,0.00,0.00,VWS V14.01,2013-07-23 08:30:00,
2013-07-23 04:31:00,77.6,74.1,29.88,SSW,212,3.3,3.3,89,0.00,,,0.00,0.00,VWS V14.01,2013-07-23 08:31:00,
2013-07-23 04:32:00,77.6,74.1,29.88,SSW,204,0.0,3.3,89,0.00,,,0.00,0.00,VWS V14.01,2013-07-23 08:32:00,
2013-07-23 04:33:00,77.6,74.1,29.88,SSE,168,1.1,1.1,89,0.00,,,0.00,0.00,VWS V14.01,2013-07-23 08:33:00,
2013-07-23 04:34:00,77.6,74.4,29.88,SSE,168,1.1,1.1,90,0.00,,,0.00,0.00,VWS V14.01,2013-07-23 08:34:00,
2013-07-23 04:35:00,77.6,74.4,29.88,SSE,157,3.3,4.4,90,0.00,,,0.00,0.00,VWS V14.01,2013-07-23 08:35:00,
2013-07-23 04:36:00,77.6,74.4,29.88,SSE,162,1.1,3.3,90,0.00,,,0.00,0.00,VWS V14.01,2013-07-23 08:36:00,
2013-07-23 04:37:00,77.6,74.1,29.88,SW,219,2.2,4.4,89,0.00,,,0.00,0.00,VWS V14.01,2013-07-23 08:37:00,
2013-07-23 04:38:00,77.6,74.1,29.88,SSW,212,1.1,2.2,89,0.00,,,0.00,0.00,VWS V14.01,2013-07-23 08:38:00,
2013-07-23 04:39:00,77.6,74.1,29.88,SW,220,2.2,2.2,89,0.00,,,0.00,0.00,VWS V14.01,2013-07-23 08:39:00,
2013-07-23 04:40:00,77.6,74.1,29.88,SW,216,0.0,4.4,89,0.00,,,0.00,0.00,VWS V14.01,2013-07-23 08:40:00,
2013-07-23 04:41:00,77.4,74.0,29.88,SW,215,0.0,3.3,89,0.00,,,0.00,0.00,VWS V14.01,2013-07-23 08:41:00,
2013-07-23 04:42:00,77.6,74.1,29.88,SSW,194,2.2,4.4,89,0.00,,,0.00,0.00,VWS V14.01,2013-07-23 08:42:00,
2013-07-23 04:43:00,77.6,74.1,29.88,SSW,194,1.1,2.2,89,0.00,,,0.00,0.00,VWS V14.01,2013-07-23 08:43:00,
2013-07-23 04:44:00,77.6,74.1,29.88,SSE,156,2.2,5.5,89,0.00,,,0.00,0.00,VWS V14.01,2013-07-23 08:44:00,
2013-07-23 04:45:00,77.4,74.0,29.88,SSW,206,2.2,2.2,89,0.00,,,0.00,0.00,VWS V14.01,2013-07-23 08:45:00,
2013-07-23 04:46:00,77.4,74.0,29.88,SW,218,8.8,8.8,89,0.00,,,0.00,0.00,VWS V14.01,2013-07-23 08:46:00,
2013-07-23 04:47:00,77.4,74.0,29.88,WSW,242,2.2,8.8,89,0.00,,,0.00,0.00,VWS V14.01,2013-07-23 08:47:00,
2013-07-23 04:48:00,77.4,74.0,29.88,SSW,198,3.3,3.3,89,0.00,,,0.00,0.00,VWS V14.01,2013-07-23 08:48:00,
2013-07-23 04:49:00,77.4,74.0,29.89,South,189,2.2,5.5,89,0.00,,,0.00,0.00,VWS V14.01,2013-07-23 08:49:00,
2013-07-23 04:50:00,77.4,74.0,29.89,South,188,1.1,2.2,89,0.00,,,0.00,0.00,VWS V14.01,2013-07-23 08:50:00,
2013-07-23 04:51:00,77.4,74.0,29.89,SSW,205,2.2,3.3,89,0.00,,,0.00,0.00,VWS V14.01,2013-07-23 08:51:00,
2013-07-23 04:52:00,77.4,74.0,29.89,SSW,204,4.4,4.4,89,0.00,,,0.00,0.00,VWS V14.01,2013-07-23 08:52:00,
2013-07-23 04:53:00,77.4,74.0,29.89,SW,223,3.3,4.4,89,0.00,,,0.00,0.00,VWS V14.01,2013-07-23 08:53:00,
2013-07-23 04:54:00,77.4,74.0,29.88,SSW,208,1.1,3.3,89,0.00,,,0.00,0.00,VWS V14.01,2013-07-23 08:54:00,
2013-07-23 04:55:00,77.4,74.0,29.89,South,181,3.3,3.3,89,0.00,,,0.00,0.00,VWS V14.01,2013-07-23 08:55:00,
2013-07-23 04:56:00,77.4,74.0,29.88,South,178,0.0,3.3,89,0.00,,,0.00,0.00,VWS V14.01,2013-07-23 08:56:00,
2013-07-23 04:57:00,77.3,73.9,29.88,South,171,2.2,3.3,89,0.00,,,0.00,0.00,VWS V14.01,2013-07-23 08:57:00,
2013-07-23 04:58:00,77.3,73.9,29.88,South,189,2.2,3.3,89,0.00,,,0.00,0.00,VWS V14.01,2013-07-23 08:58:00,
2013-07-23 04:59:00,77.3,73.9,29.88,WSW,238,1.1,3.3,89,0.00,,,0.00,0.00,VWS V14.01,2013-07-23 08:59:00,
2013-07-23 05:00:00,77.3,73.9,29.89,South,182,1.1,6.6,89,0.00,,,0.00,0.00,VWS V14.01,2013-07-23 09:00:00,
2013-07-23 05:01:00,77.2,73.8,29.89,SSE,159,0.0,3.3,89,0.00,,,0.00,0.00,VWS V14.01,2013-07-23 09:01:00,
2013-07-23 05:02:00,77.2,73.8,29.89,SSW,205,2.2,2.2,89,0.00,,,0.00,0.00,VWS V14.01,2013-07-23 09:02:00,
2013-07-23 05:03:00,77.2,73.8,29.89,SSW,203,1.1,2.2,89,0.00,,,0.00,0.00,VWS V14.01,2013-07-23 09:03:00,
2013-07-23 05:04:00,77.2,73.8,29.89,South,169,2.2,5.5,89,0.00,,,0.00,0.00,VWS V14.01,2013-07-23 09:04:00,
2013-07-23 05:05:00,77.2,73.8,29.89,SW,214,0.0,2.2,89,0.00,,,0.00,0.00,VWS V14.01,2013-07-23 09:05:00,
2013-07-23 05:06:00,77.2,73.8,29.89,SW,214,0.0,1.1,89,0.00,,,0.00,0.00,VWS V14.01,2013-07-23 09:06:00,
2013-07-23 05:07:00,77.2,73.8,29.89,South,181,3.3,4.4,89,0.00,,,0.00,0.00,VWS V14.01,2013-07-23 09:07:00,
2013-07-23 05:08:00,77.2,73.7,29.89,SSW,200,2.2,3.3,89,0.00,,,0.00,0.00,VWS V14.01,2013-07-23 09:08:00,
2013-07-23 05:09:00,77.2,73.7,29.89,SW,229,0.0,2.2,89,0.00,,,0.00,0.00,VWS V14.01,2013-07-23 09:09:00,
2013-07-23 05:10:00,77.2,73.7,29.89,South,183,4.4,5.5,89,0.00,,,0.00,0.00,VWS V14.01,2013-07-23 09:10:00,
2013-07-23 05:11:00,77.2,73.7,29.89,South,187,2.2,4.4,89,0.00,,,0.00,0.00,VWS V14.01,2013-07-23 09:11:00,
2013-07-23 05:12:00,77.2,73.7,29.89,SSE,162,1.1,3.3,89,0.00,,,0.00,0.00,VWS V14.01,2013-07-23 09:12:00,
2013-07-23 05:13:00,77.2,73.7,29.89,SSW,194,0.0,3.3,89,0.00,,,0.00,0.00,VWS V14.01,2013-07-23 09:13:00,
2013-07-23 05:14:00,77.1,73.6,29.89,SSE,166,0.0,3.3,89,0.00,,,0.00,0.00,VWS V14.01,2013-07-23 09:14:00,
2013-07-23 05:15:00,77.1,73.9,29.89,SE,130,1.1,3.3,90,0.00,,,0.00,0.00,VWS V14.01,2013-07-23 09:15:00,
2013-07-23 05:16:00,77.1,73.9,29.89,SSE,148,2.2,3.3,90,0.00,,,0.00,0.00,VWS V14.01,2013-07-23 09:16:00,
2013-07-23 05:17:00,77.1,73.9,29.89,SSE,148,0.0,2.2,90,0.00,,,0.00,0.00,VWS V14.01,2013-07-23 09:17:00,
2013-07-23 05:18:00,77.1,73.9,29.89,SE,135,3.3,3.3,90,0.00,,,0.00,0.00,VWS V14.01,2013-07-23 09:18:00,
2013-07-23 05:19:00,77.1,73.9,29.89,SE,144,0.0,3.3,90,0.00,,,0.00,0.00,VWS V14.01,2013-07-23 09:19:00,
2013-07-23 05:20:00,77.1,73.9,29.89,SW,233,3.3,3.3,90,0.00,,,0.00,0.00,VWS V14.01,2013-07-23 09:20:00,
2013-07-23 05:21:00,77.1,73.9,29.89,SW,216,4.4,4.4,90,0.00,,,0.00,0.00,VWS V14.01,2013-07-23 09:21:00,
2013-07-23 05:22:00,77.1,73.9,29.89,SSW,204,0.0,4.4,90,0.00,,,0.00,0.00,VWS V14.01,2013-07-23 09:22:00,
2013-07-23 05:23:00,77.1,73.9,29.90,SSW,204,1.1,1.1,90,0.00,,,0.00,0.00,VWS V14.01,2013-07-23 09:23:00,
2013-07-23 05:24:00,77.1,73.9,29.90,South,187,2.2,3.3,90,0.00,,,0.00,0.00,VWS V14.01,2013-07-23 09:24:00,
2013-07-23 05:25:00,77.1,73.9,29.90,SW,229,3.3,8.8,90,0.00,,,0.00,0.00,VWS V14.01,2013-07-23 09:25:00,
2013-07-23 05:26:00,77.1,73.9,29.90,SSW,206,3.3,8.8,90,0.00,,,0.00,0.00,VWS V14.01,2013-07-23 09:26:00,
2013-07-23 05:27:00,77.1,73.9,29.90,SSW,193,2.2,6.6,90,0.00,,,0.00,0.00,VWS V14.01,2013-07-23 09:27:00,
2013-07-23 05:28:00,77.1,73.9,29.90,SSW,195,0.0,2.2,90,0.00,,,0.00,0.00,VWS V14.01,2013-07-23 09:28:00,
2013-07-23 05:29:00,77.1,73.9,29.90,SW,214,4.4,5.5,90,0.00,,,0.00,0.00,VWS V14.01,2013-07-23 09:29:00,
2013-07-23 05:30:00,77.1,73.9,29.90,SSW,200,1.1,2.2,90,0.00,,,0.00,0.00,VWS V14.01,2013-07-23 09:30:00,
2013-07-23 05:31:00,77.1,73.9,29.90,SSW,200,2.2,2.2,90,0.00,,,0.00,0.00,VWS V14.01,2013-07-23 09:31:00,
2013-07-23 05:32:00,77.1,73.9,29.90,SSW,204,2.2,2.2,90,0.00,,,0.00,0.00,VWS V14.01,2013-07-23 09:32:00,
2013-07-23 05:33:00,77.1,73.9,29.90,SSW,195,3.3,7.7,90,0.00,,,0.00,0.00,VWS V14.01,2013-07-23 09:33:00,
2013-07-23 05:34:00,77.1,73.9,29.90,SSW,208,2.2,4.4,90,0.00,,,0.00,0.00,VWS V14.01,2013-07-23 09:34:00,
2013-07-23 05:35:00,77.1,73.9,29.90,SSW,192,3.3,3.3,90,0.00,,,0.00,0.00,VWS V14.01,2013-07-23 09:35:00,
2013-07-23 05:36:00,76.9,73.8,29.90,SW,215,6.6,6.6,90,0.00,,,0.00,0.00,VWS V14.01,2013-07-23 09:36:00,
2013-07-23 05:37:00,76.9,73.8,29.90,SSW,200,0.0,6.6,90,0.00,,,0.00,0.00,VWS V14.01,2013-07-23 09:37:00,
2013-07-23 05:38:00,76.9,73.8,29.90,SSW,213,1.1,2.2,90,0.00,,,0.00,0.00,VWS V14.01,2013-07-23 09:38:00,
2013-07-23 05:39:00,76.9,73.8,29.90,SW,214,4.4,4.4,90,0.00,,,0.00,0.00,VWS V14.01,2013-07-23 09:39:00,
2013-07-23 05:40:00,76.9,73.5,29.90,WSW,252,1.1,1.1,89,0.00,,,0.00,0.00,VWS V14.01,2013-07-23 09:40:00,
2013-07-23 05:41:00,76.9,73.5,29.90,WSW,252,2.2,2.2,89,0.00,,,0.00,0.00,VWS V14.01,2013-07-23 09:41:00,
2013-07-23 05:42:00,76.9,73.8,29.90,WSW,252,1.1,2.2,90,0.00,,,0.00,0.00,VWS V14.01,2013-07-23 09:42:00,
2013-07-23 05:43:00,76.8,73.7,29.90,WSW,241,1.1,4.4,90,0.00,,,0.00,0.00,VWS V14.01,2013-07-23 09:43:00,
2013-07-23 05:44:00,76.8,73.7,29.90,WSW,237,0.0,1.1,90,0.00,,,0.00,0.00,VWS V14.01,2013-07-23 09:44:00,
2013-07-23 05:45:00,76.8,73.7,29.90,SW,219,1.1,1.1,90,0.00,,,0.00,0.00,VWS V14.01,2013-07-23 09:45:00,
2013-07-23 05:46:00,76.8,73.7,29.90,SW,219,2.2,2.2,90,0.00,,,0.00,0.00,VWS V14.01,2013-07-23 09:46:00,
2013-07-23 05:47:00,76.8,73.7,29.90,South,170,0.0,2.2,90,0.00,,,0.00,0.00,VWS V14.01,2013-07-23 09:47:00,
2013-07-23 05:48:00,76.8,73.7,29.90,WSW,250,0.0,1.1,90,0.00,,,0.00,0.00,VWS V14.01,2013-07-23 09:48:00,
2013-07-23 05:49:00,76.8,73.7,29.90,WSW,246,0.0,1.1,90,0.00,,,0.00,0.00,VWS V14.01,2013-07-23 09:49:00,
2013-07-23 05:50:00,76.8,73.6,29.90,SSW,210,0.0,5.5,90,0.00,,,0.00,0.00,VWS V14.01,2013-07-23 09:50:00,
2013-07-23 05:51:00,76.8,73.6,29.90,SSW,210,1.1,5.5,90,0.00,,,0.00,0.00,VWS V14.01,2013-07-23 09:51:00,
2013-07-23 05:52:00,76.8,73.6,29.90,SSE,158,2.2,4.4,90,0.00,,,0.00,0.00,VWS V14.01,2013-07-23 09:52:00,
2013-07-23 05:53:00,76.8,73.6,29.90,SSE,165,0.0,2.2,90,0.00,,,0.00,0.00,VWS V14.01,2013-07-23 09:53:00,
2013-07-23 05:54:00,76.8,73.7,29.90,SW,226,3.3,6.6,90,0.00,,,0.00,0.00,VWS V14.01,2013-07-23 09:54:00,
2013-07-23 05:55:00,76.8,73.6,29.90,SSW,205,2.2,6.6,90,0.00,,,0.00,0.00,VWS V14.01,2013-07-23 09:55:00,
2013-07-23 05:56:00,76.8,73.7,29.90,SSW,206,0.0,6.6,90,0.00,,,0.00,0.00,VWS V14.01,2013-07-23 09:56:00,
2013-07-23 05:57:00,76.8,73.6,29.90,SSW,206,2.2,2.2,90,0.00,,,0.00,0.00,VWS V14.01,2013-07-23 09:57:00,
2013-07-23 05:58:00,76.8,73.6,29.90,SSW,206,1.1,2.2,90,0.00,,,0.00,0.00,VWS V14.01,2013-07-23 09:58:00,
2013-07-23 05:59:00,76.8,73.6,29.90,SSW,206,0.0,1.1,90,0.00,,,0.00,0.00,VWS V14.01,2013-07-23 09:59:00,
2013-07-23 06:00:00,76.8,73.6,29.90,SSW,206,0.0,1.1,90,0.00,,,0.00,0.00,VWS V14.01,2013-07-23 10:00:00,
2013-07-23 06:01:00,76.8,73.7,29.90,SSW,206,0.0,1.1,90,0.00,,,0.00,0.00,VWS V14.01,2013-07-23 10:01:00,
2013-07-23 06:02:00,76.8,73.6,29.90,SSE,148,2.2,8.8,90,0.00,,,0.00,0.00,VWS V14.01,2013-07-23 10:02:00,
2013-07-23 06:03:00,76.8,73.6,29.90,SSE,148,0.0,2.2,90,0.00,,,0.00,0.00,VWS V14.01,2013-07-23 10:03:00,
2013-07-23 06:04:00,76.8,73.6,29.90,South,174,2.2,2.2,90,0.00,,,0.00,0.00,VWS V14.01,2013-07-23 10:04:00,
2013-07-23 06:05:00,76.8,73.6,29.90,SW,216,3.3,3.3,90,0.00,,,0.00,0.00,VWS V14.01,2013-07-23 10:05:00,
2013-07-23 06:06:00,76.8,73.6,29.90,South,174,2.2,3.3,90,0.00,,,0.00,0.00,VWS V14.01,2013-07-23 10:06:00,
2013-07-23 06:07:00,76.8,73.6,29.90,SW,214,1.1,3.3,90,0.00,,,0.00,0.00,VWS V14.01,2013-07-23 10:07:00,
2013-07-23 06:08:00,76.8,73.7,29.90,SSW,208,1.1,2.2,90,0.00,,,0.00,0.00,VWS V14.01,2013-07-23 10:08:00,
2013-07-23 06:09:00,76.8,73.7,29.90,SSW,202,1.1,2.2,90,0.00,,,0.00,0.00,VWS V14.01,2013-07-23 10:09:00,
2013-07-23 06:10:00,76.8,73.6,29.90,SSW,195,0.0,4.4,90,0.00,,,0.00,0.00,VWS V14.01,2013-07-23 10:10:00,
2013-07-23 06:11:00,76.8,73.7,29.90,SSW,195,0.0,4.4,90,0.00,,,0.00,0.00,VWS V14.01,2013-07-23 10:11:00,
2013-07-23 06:12:00,76.8,73.7,29.90,SSW,205,0.0,1.1,90,0.00,,,0.00,0.00,VWS V14.01,2013-07-23 10:12:00,
2013-07-23 06:13:00,76.8,73.7,29.90,SW,224,2.2,3.3,90,0.00,,,0.00,0.00,VWS V14.01,2013-07-23 10:13:00,
2013-07-23 06:14:00,76.8,73.7,29.90,West,264,2.2,3.3,90,0.00,,,0.00,0.00,VWS V14.01,2013-07-23 10:14:00,
2013-07-23 06:15:00,76.8,73.6,29.90,SSE,153,2.2,3.3,90,0.00,,,0.00,0.00,VWS V14.01,2013-07-23 10:15:00,
2013-07-23 06:16:00,76.8,73.7,29.90,SSE,153,1.1,3.3,90,0.00,,,0.00,0.00,VWS V14.01,2013-07-23 10:16:00,
2013-07-23 06:17:00,76.8,73.7,29.90,WNW,291,2.2,3.3,90,0.00,,,0.00,0.00,VWS V14.01,2013-07-23 10:17:00,
2013-07-23 06:18:00,76.8,73.7,29.90,SW,233,2.2,3.3,90,0.00,,,0.00,0.00,VWS V14.01,2013-07-23 10:18:00,
2013-07-23 06:19:00,76.8,73.7,29.90,South,180,1.1,4.4,90,0.00,,,0.00,0.00,VWS V14.01,2013-07-23 10:19:00,
2013-07-23 06:20:00,76.8,73.7,29.90,SSE,168,1.1,1.1,90,0.00,,,0.00,0.00,VWS V14.01,2013-07-23 10:20:00,
2013-07-23 06:21:00,76.8,73.6,29.90,SSE,168,1.1,1.1,90,0.00,,,0.00,0.00,VWS V14.01,2013-07-23 10:21:00,
2013-07-23 06:22:00,76.8,73.6,29.90,SSE,154,2.2,3.3,90,0.00,,,0.00,0.00,VWS V14.01,2013-07-23 10:22:00,
2013-07-23 06:23:00,76.8,73.7,29.90,SSE,161,5.5,5.5,90,0.00,,,0.00,0.00,VWS V14.01,2013-07-23 10:23:00,
2013-07-23 06:24:00,76.8,73.7,29.90,South,170,4.4,5.5,90,0.00,,,0.00,0.00,VWS V14.01,2013-07-23 10:24:00,
2013-07-23 06:25:00,76.8,73.7,29.90,SSW,200,0.0,5.5,90,0.00,,,0.00,0.00,VWS V14.01,2013-07-23 10:25:00,
2013-07-23 06:26:00,76.8,73.7,29.90,South,187,1.1,5.5,90,0.00,,,0.00,0.00,VWS V14.01,2013-07-23 10:26:00,
2013-07-23 06:27:00,76.8,73.7,29.90,South,187,0.0,2.2,90,0.00,,,0.00,0.00,VWS V14.01,2013-07-23 10:27:00,
2013-07-23 06:28:00,76.8,73.7,29.90,SW,223,0.0,1.1,90,0.00,,,0.00,0.00,VWS V14.01,2013-07-23 10:28:00,
2013-07-23 06:29:00,76.8,73.7,29.90,SW,224,3.3,7.7,90,0.00,,,0.00,0.00,VWS V14.01,2013-07-23 10:29:00,
2013-07-23 06:30:00,76.8,73.7,29.90,SSW,195,0.0,1.1,90,0.00,,,0.00,0.00,VWS V14.01,2013-07-23 10:30:00,
2013-07-23 06:31:00,76.8,73.7,29.90,SSE,166,1.1,1.1,90,0.00,,,0.00,0.00,VWS V14.01,2013-07-23 10:31:00,
2013-07-23 06:32:00,76.9,73.8,29.91,NW,321,2.2,6.6,90,0.00,,,0.00,0.00,VWS V14.01,2013-07-23 10:32:00,
2013-07-23 06:33:00,76.8,73.7,29.91,South,177,1.1,2.2,90,0.00,,,0.00,0.00,VWS V14.01,2013-07-23 10:33:00,
2013-07-23 06:34:00,76.8,73.7,29.91,SSW,194,4.4,4.4,90,0.00,,,0.00,0.00,VWS V14.01,2013-07-23 10:34:00,
2013-07-23 06:35:00,76.8,73.7,29.91,SSW,195,7.7,7.7,90,0.00,,,0.00,0.00,VWS V14.01,2013-07-23 10:35:00,
2013-07-23 06:36:00,76.9,73.8,29.91,SSW,204,1.1,7.7,90,0.00,,,0.00,0.00,VWS V14.01,2013-07-23 10:36:00,
2013-07-23 06:37:00,76.9,73.8,29.91,South,191,1.1,4.4,90,0.00,,,0.00,0.00,VWS V14.01,2013-07-23 10:37:00,
2013-07-23 06:38:00,76.8,73.7,29.91,SSW,192,0.0,1.1,90,0.00,,,0.00,0.00,VWS V14.01,2013-07-23 10:38:00,
2013-07-23 06:39:00,76.9,73.8,29.91,SSW,192,0.0,0.0,90,0.00,,,0.00,0.00,VWS V14.01,2013-07-23 10:39:00,
2013-07-23 06:40:00,76.9,73.8,29.91,SW,218,1.1,4.4,90,0.00,,,0.00,0.00,VWS V14.01,2013-07-23 10:40:00,
2013-07-23 06:41:00,76.9,73.8,29.91,SW,218,0.0,4.4,90,0.00,,,0.00,0.00,VWS V14.01,2013-07-23 10:41:00,
2013-07-23 06:42:00,76.9,73.8,29.91,SW,223,1.1,4.4,90,0.00,,,0.00,5.00,VWS V14.01,2013-07-23 10:42:00,
2013-07-23 06:43:00,76.9,73.8,29.91,SW,223,0.0,1.1,90,0.00,,,0.00,5.00,VWS V14.01,2013-07-23 10:43:00,
2013-07-23 06:44:00,76.9,73.8,29.91,SSW,204,2.2,2.2,90,0.00,,,0.00,5.00,VWS V14.01,2013-07-23 10:44:00,
2013-07-23 06:45:00,76.9,73.8,29.91,SSW,213,3.3,5.5,90,0.00,,,0.00,0.00,VWS V14.01,2013-07-23 10:45:00,
2013-07-23 06:46:00,76.9,73.8,29.91,West,269,7.7,7.7,90,0.00,,,0.00,0.00,VWS V14.01,2013-07-23 10:46:00,
2013-07-23 06:47:00,76.9,73.8,29.91,WNW,282,0.0,7.7,90,0.00,,,0.00,0.00,VWS V14.01,2013-07-23 10:47:00,
2013-07-23 06:48:00,76.9,73.8,29.91,South,182,1.1,2.2,90,0.00,,,0.00,0.00,VWS V14.01,2013-07-23 10:48:00,
2013-07-23 06:49:00,76.9,73.8,29.90,SSW,204,2.2,3.3,90,0.00,,,0.00,0.00,VWS V14.01,2013-07-23 10:49:00,
2013-07-23 06:50:00,76.9,73.8,29.90,NW,308,1.1,5.5,90,0.00,,,0.00,5.00,VWS V14.01,2013-07-23 10:50:00,
2013-07-23 06:51:00,76.9,73.8,29.90,SW,218,3.3,5.5,90,0.00,,,0.00,5.00,VWS V14.01,2013-07-23 10:51:00,
2013-07-23 06:52:00,76.9,73.8,29.90,WSW,258,0.0,3.3,90,0.00,,,0.00,5.00,VWS V14.01,2013-07-23 10:52:00,
2013-07-23 06:53:00,76.9,73.8,29.90,WSW,258,0.0,1.1,90,0.00,,,0.00,5.00,VWS V14.01,2013-07-23 10:53:00,
2013-07-23 06:54:00,76.9,73.8,29.90,WSW,258,0.0,0.0,90,0.00,,,0.00,5.00,VWS V14.01,2013-07-23 10:54:00,
2013-07-23 06:55:00,76.9,73.8,29.90,SSE,150,2.2,2.2,90,0.00,,,0.00,5.00,VWS V14.01,2013-07-23 10:55:00,
2013-07-23 06:56:00,76.9,73.8,29.90,South,190,3.3,3.3,90,0.00,,,0.00,5.00,VWS V14.01,2013-07-23 10:56:00,
2013-07-23 06:57:00,76.9,73.8,29.90,SW,227,4.4,5.5,90,0.00,,,0.00,7.00,VWS V14.01,2013-07-23 10:57:00,
2013-07-23 06:58:00,76.9,73.8,29.90,SE,143,3.3,4.4,90,0.00,,,0.00,7.00,VWS V14.01,2013-07-23 10:58:00,
2013-07-23 06:59:00,76.9,73.8,29.90,SSW,208,1.1,3.3,90,0.00,,,0.00,7.00,VWS V14.01,2013-07-23 10:59:00,
2013-07-23 07:00:00,76.9,73.8,29.90,South,188,3.3,4.4,90,0.00,,,0.00,11.00,VWS V14.01,2013-07-23 11:00:00,
2013-07-23 07:01:00,76.9,73.8,29.90,SSW,195,2.2,4.4,90,0.00,,,0.00,12.00,VWS V14.01,2013-07-23 11:01:00,
2013-07-23 07:02:00,76.9,73.8,29.90,SSW,210,1.1,3.3,90,0.00,,,0.00,12.00,VWS V14.01,2013-07-23 11:02:00,
2013-07-23 07:03:00,76.9,73.8,29.90,SSW,210,0.0,1.1,90,0.00,,,0.00,14.00,VWS V14.01,2013-07-23 11:03:00,
2013-07-23 07:04:00,76.9,73.8,29.90,SSW,210,0.0,0.0,90,0.00,,,0.00,12.00,VWS V14.01,2013-07-23 11:04:00,
2013-07-23 07:05:00,76.9,73.8,29.90,SSE,167,0.0,1.1,90,0.00,,,0.00,12.00,VWS V14.01,2013-07-23 11:05:00,
2013-07-23 07:06:00,76.9,73.8,29.90,South,185,2.2,2.2,90,0.00,,,0.00,14.00,VWS V14.01,2013-07-23 11:06:00,
2013-07-23 07:07:00,76.9,73.8,29.90,South,183,2.2,2.2,90,0.00,,,0.00,16.00,VWS V14.01,2013-07-23 11:07:00,
2013-07-23 07:08:00,76.9,73.8,29.90,SE,139,4.4,4.4,90,0.00,,,0.00,16.00,VWS V14.01,2013-07-23 11:08:00,
2013-07-23 07:09:00,76.9,73.8,29.90,SSE,164,1.1,4.4,90,0.00,,,0.00,16.00,VWS V14.01,2013-07-23 11:09:00,
2013-07-23 07:10:00,76.9,73.8,29.90,WSW,252,2.2,2.2,90,0.00,,,0.00,16.00,VWS V14.01,2013-07-23 11:10:00,
2013-07-23 07:11:00,76.9,73.8,29.90,SW,227,0.0,2.2,90,0.00,,,0.00,18.00,VWS V14.01,2013-07-23 11:11:00,
2013-07-23 07:12:00,76.9,73.8,29.90,SSW,210,2.2,3.3,90,0.00,,,0.00,18.00,VWS V14.01,2013-07-23 11:12:00,
2013-07-23 07:13:00,76.9,73.8,29.90,SW,222,0.0,3.3,90,0.00,,,0.00,18.00,VWS V14.01,2013-07-23 11:13:00,
2013-07-23 07:14:00,76.9,73.8,29.90,South,182,1.1,2.2,90,0.00,,,0.00,19.00,VWS V14.01,2013-07-23 11:14:00,
2013-07-23 07:15:00,76.9,73.8,29.90,South,173,0.0,1.1,90,0.00,,,0.00,21.00,VWS V14.01,2013-07-23 11:15:00,
2013-07-23 07:16:00,76.9,73.8,29.90,South,173,1.1,1.1,90,0.00,,,0.00,21.00,VWS V14.01,2013-07-23 11:16:00,
2013-07-23 07:17:00,76.9,73.8,29.90,South,179,1.1,2.2,90,0.00,,,0.00,21.00,VWS V14.01,2013-07-23 11:17:00,
2013-07-23 07:18:00,76.9,73.8,29.90,SW,214,4.4,4.4,90,0.00,,,0.00,21.00,VWS V14.01,2013-07-23 11:18:00,
2013-07-23 07:19:00,76.9,73.8,29.90,WSW,250,3.3,7.7,90,0.00,,,0.00,21.00,VWS V14.01,2013-07-23 11:19:00,
2013-07-23 07:20:00,76.9,73.8,29.90,SSW,201,0.0,2.2,90,0.00,,,0.00,19.00,VWS V14.01,2013-07-23 11:20:00,
2013-07-23 07:21:00,76.9,73.8,29.90,SSW,201,1.1,2.2,90,0.00,,,0.00,19.00,VWS V14.01,2013-07-23 11:21:00,
2013-07-23 07:22:00,76.9,73.8,29.90,SSW,210,2.2,3.3,90,0.00,,,0.00,18.00,VWS V14.01,2013-07-23 11:22:00,
2013-07-23 07:23:00,76.9,73.8,29.90,SE,132,0.0,6.6,90,0.00,,,0.00,18.00,VWS V14.01,2013-07-23 11:23:00,
2013-07-23 07:24:00,76.9,73.8,29.90,SSE,160,0.0,1.1,90,0.00,,,0.00,16.00,VWS V14.01,2013-07-23 11:24:00,
2013-07-23 07:25:00,76.9,73.8,29.90,SSW,198,4.4,4.4,90,0.00,,,0.00,18.00,VWS V14.01,2013-07-23 11:25:00,
2013-07-23 07:26:00,76.9,73.8,29.90,SSW,195,1.1,4.4,90,0.00,,,0.00,18.00,VWS V14.01,2013-07-23 11:26:00,
2013-07-23 07:27:00,76.9,73.8,29.90,SSW,204,1.1,3.3,90,0.00,,,0.00,18.00,VWS V14.01,2013-07-23 11:27:00,
2013-07-23 07:28:00,76.9,73.8,29.90,SSW,204,1.1,1.1,90,0.00,,,0.00,19.00,VWS V14.01,2013-07-23 11:28:00,
2013-07-23 07:29:00,76.9,73.8,29.91,SE,139,1.1,2.2,90,0.00,,,0.00,18.00,VWS V14.01,2013-07-23 11:29:00,
2013-07-23 07:30:00,76.9,73.8,29.90,ESE,120,0.0,2.2,90,0.00,,,0.00,18.00,VWS V14.01,2013-07-23 11:30:00,
2013-07-23 07:31:00,76.9,73.8,29.90,ESE,120,0.0,2.2,90,0.00,,,0.00,14.00,VWS V14.01,2013-07-23 11:31:00,
2013-07-23 07:32:00,76.9,73.8,29.90,ESE,120,0.0,0.0,90,0.00,,,0.00,14.00,VWS V14.01,2013-07-23 11:32:00,
2013-07-23 07:33:00,76.9,73.8,29.90,SE,131,1.1,1.1,90,0.00,,,0.00,16.00,VWS V14.01,2013-07-23 11:33:00,
2013-07-23 07:34:00,76.9,73.8,29.90,SSW,208,5.5,6.6,90,0.00,,,0.00,14.00,VWS V14.01,2013-07-23 11:34:00,
2013-07-23 07:35:00,76.9,73.8,29.90,SSW,211,0.0,1.1,90,0.00,,,0.00,14.00,VWS V14.01,2013-07-23 11:35:00,
2013-07-23 07:36:00,76.9,73.8,29.90,SSW,211,0.0,1.1,90,0.00,,,0.00,14.00,VWS V14.01,2013-07-23 11:36:00,
2013-07-23 07:37:00,76.9,73.8,29.90,SW,233,3.3,4.4,90,0.00,,,0.00,14.00,VWS V14.01,2013-07-23 11:37:00,
2013-07-23 07:38:00,76.9,73.8,29.90,South,191,1.1,3.3,90,0.00,,,0.00,14.00,VWS V14.01,2013-07-23 11:38:00,
2013-07-23 07:39:00,76.9,73.8,29.90,SW,215,1.1,1.1,90,0.00,,,0.00,16.00,VWS V14.01,2013-07-23 11:39:00,
2013-07-23 07:40:00,76.9,73.8,29.90,SSW,197,3.3,3.3,90,0.00,,,0.00,28.00,VWS V14.01,2013-07-23 11:40:00,
2013-07-23 07:41:00,76.9,73.8,29.90,SSW,197,0.0,3.3,90,0.00,,,0.00,39.00,VWS V14.01,2013-07-23 11:41:00,
2013-07-23 07:42:00,76.9,73.8,29.91,SW,229,1.1,5.5,90,0.00,,,0.00,44.00,VWS V14.01,2013-07-23 11:42:00,
2013-07-23 07:43:00,76.9,73.8,29.90,SSW,207,0.0,1.1,90,0.00,,,0.00,54.00,VWS V14.01,2013-07-23 11:43:00,
2013-07-23 07:44:00,76.8,73.7,29.90,SSE,150,0.0,3.3,90,0.00,,,0.00,58.00,VWS V14.01,2013-07-23 11:44:00,
2013-07-23 07:45:00,76.9,73.8,29.91,South,187,1.1,1.1,90,0.00,,,0.00,67.00,VWS V14.01,2013-07-23 11:45:00,
2013-07-23 07:46:00,76.9,73.8,29.91,South,182,2.2,2.2,90,0.00,,,0.00,67.00,VWS V14.01,2013-07-23 11:46:00,
2013-07-23 07:47:00,76.9,73.8,29.90,SSW,209,4.4,4.4,90,0.00,,,0.00,49.00,VWS V14.01,2013-07-23 11:47:00,
2013-07-23 07:48:00,76.9,73.8,29.91,SSW,196,0.0,5.5,90,0.00,,,0.00,53.00,VWS V14.01,2013-07-23 11:48:00,
2013-07-23 07:49:00,76.9,73.8,29.91,SSW,196,0.0,1.1,90,0.00,,,0.00,56.00,VWS V14.01,2013-07-23 11:49:00,
2013-07-23 07:50:00,76.9,73.8,29.91,SSW,199,0.0,1.1,90,0.00,,,0.00,56.00,VWS V14.01,2013-07-23 11:50:00,
2013-07-23 07:51:00,76.9,74.1,29.91,SSW,199,0.0,2.2,91,0.00,,,0.00,56.00,VWS V14.01,2013-07-23 11:51:00,
2013-07-23 07:52:00,77.1,74.2,29.91,SSW,208,3.3,6.6,91,0.00,,,0.00,49.00,VWS V14.01,2013-07-23 11:52:00,
2013-07-23 07:53:00,77.1,73.9,29.91,SW,214,4.4,8.8,90,0.00,,,0.00,49.00,VWS V14.01,2013-07-23 11:53:00,
2013-07-23 07:54:00,77.1,73.9,29.91,SSW,212,1.1,4.4,90,0.00,,,0.00,49.00,VWS V14.01,2013-07-23 11:54:00,
2013-07-23 07:55:00,77.1,74.2,29.91,SSE,163,1.1,1.1,91,0.00,,,0.00,63.00,VWS V14.01,2013-07-23 11:55:00,
2013-07-23 07:56:00,77.1,74.2,29.91,SSW,193,3.3,3.3,91,0.00,,,0.00,63.00,VWS V14.01,2013-07-23 11:56:00,
2013-07-23 07:57:00,77.2,74.3,29.90,SSW,192,0.0,3.3,91,0.00,,,0.00,74.00,VWS V14.01,2013-07-23 11:57:00,
2013-07-23 07:58:00,77.2,74.3,29.90,WNW,287,2.2,2.2,91,0.00,,,0.00,72.00,VWS V14.01,2013-07-23 11:58:00,
2013-07-23 07:59:00,77.2,74.0,29.90,West,262,0.0,2.2,90,0.00,,,0.00,70.00,VWS V14.01,2013-07-23 11:59:00,
2013-07-23 08:00:00,77.2,74.3,29.91,ENE,63,0.0,1.1,91,0.00,,,0.00,77.00,VWS V14.01,2013-07-23 12:00:00,
2013-07-23 08:01:00,77.2,74.3,29.91,ENE,60,0.0,1.1,91,0.00,,,0.00,77.00,VWS V14.01,2013-07-23 12:01:00,
2013-07-23 08:02:00,77.2,74.4,29.91,ENE,58,0.0,0.0,91,0.00,,,0.00,81.00,VWS V14.01,2013-07-23 12:02:00,
2013-07-23 08:03:00,77.2,74.4,29.91,SE,134,0.0,0.0,91,0.00,,,0.00,79.00,VWS V14.01,2013-07-23 12:03:00,
2013-07-23 08:04:00,77.2,74.4,29.91,SSW,193,0.0,4.4,91,0.00,,,0.00,72.00,VWS V14.01,2013-07-23 12:04:00,
2013-07-23 08:05:00,77.3,74.2,29.91,SW,234,0.0,4.4,90,0.00,,,0.00,81.00,VWS V14.01,2013-07-23 12:05:00,
2013-07-23 08:06:00,77.3,74.2,29.91,SW,231,1.1,4.4,90,0.00,,,0.00,88.00,VWS V14.01,2013-07-23 12:06:00,
2013-07-23 08:07:00,77.3,74.2,29.91,South,182,1.1,2.2,90,0.00,,,0.00,100.00,VWS V14.01,2013-07-23 12:07:00,
2013-07-23 08:08:00,77.3,74.2,29.90,WSW,237,0.0,5.5,90,0.00,,,0.00,104.00,VWS V14.01,2013-07-23 12:08:00,
2013-07-23 08:09:00,77.3,74.2,29.90,SSW,198,2.2,3.3,90,0.00,,,0.00,109.00,VWS V14.01,2013-07-23 12:09:00,
2013-07-23 08:10:00,77.4,74.3,29.90,SSW,198,1.1,1.1,90,0.00,,,0.00,95.00,VWS V14.01,2013-07-23 12:10:00,
2013-07-23 08:11:00,77.4,74.3,29.90,South,175,4.4,4.4,90,0.00,,,0.00,95.00,VWS V14.01,2013-07-23 12:11:00,
2013-07-23 08:12:00,77.6,74.4,29.90,WSW,247,0.0,4.4,90,0.00,,,0.00,86.00,VWS V14.01,2013-07-23 12:12:00,
2013-07-23 08:13:00,77.6,74.4,29.90,SSW,200,1.1,2.2,90,0.00,,,0.00,77.00,VWS V14.01,2013-07-23 12:13:00,
2013-07-23 08:14:00,77.6,74.4,29.90,South,188,1.1,2.2,90,0.00,,,0.00,70.00,VWS V14.01,2013-07-23 12:14:00,
2013-07-23 08:15:00,77.6,74.4,29.90,SW,218,3.3,4.4,90,0.00,,,0.00,81.00,VWS V14.01,2013-07-23 12:15:00,
2013-07-23 08:16:00,77.6,74.4,29.90,NNW,331,4.4,4.4,90,0.00,,,0.00,86.00,VWS V14.01,2013-07-23 12:16:00,
2013-07-23 08:17:00,77.6,74.4,29.90,SSE,157,5.5,5.5,90,0.00,,,0.00,88.00,VWS V14.01,2013-07-23 12:17:00,
2013-07-23 08:18:00,77.6,74.4,29.90,South,187,3.3,5.5,90,0.00,,,0.00,81.00,VWS V14.01,2013-07-23 12:18:00,
2013-07-23 08:19:00,77.6,74.4,29.90,SSW,209,1.1,5.5,90,0.00,,,0.00,83.00,VWS V14.01,2013-07-23 12:19:00,
2013-07-23 08:20:00,77.7,74.5,29.90,WSW,244,0.0,3.3,90,0.00,,,0.00,84.00,VWS V14.01,2013-07-23 12:20:00,
2013-07-23 08:21:00,77.6,74.4,29.90,WSW,240,0.0,1.1,90,0.00,,,0.00,74.00,VWS V14.01,2013-07-23 12:21:00,
2013-07-23 08:22:00,77.7,74.5,29.90,SW,218,2.2,5.5,90,0.00,,,0.00,69.00,VWS V14.01,2013-07-23 12:22:00,
2013-07-23 08:23:00,77.7,74.5,29.90,WSW,240,2.2,4.4,90,0.00,,,0.00,70.00,VWS V14.01,2013-07-23 12:23:00,
2013-07-23 08:24:00,77.7,74.5,29.90,SW,218,1.1,3.3,90,0.00,,,0.00,67.00,VWS V14.01,2013-07-23 12:24:00,
2013-07-23 08:25:00,77.7,74.5,29.90,SSW,196,2.2,4.4,90,0.00,,,0.00,65.00,VWS V14.01,2013-07-23 12:25:00,
2013-07-23 08:26:00,77.7,74.5,29.90,SW,218,1.1,2.2,90,0.00,,,0.00,70.00,VWS V14.01,2013-07-23 12:26:00,
2013-07-23 08:27:00,77.8,74.6,29.90,SSW,196,0.0,1.1,90,0.00,,,0.00,74.00,VWS V14.01,2013-07-23 12:27:00,
2013-07-23 08:28:00,77.8,74.6,29.90,SSW,196,0.0,1.1,90,0.00,,,0.00,85.00,VWS V14.01,2013-07-23 12:28:00,
2013-07-23 08:29:00,77.8,74.6,29.90,SW,218,1.1,3.3,90,0.00,,,0.00,90.00,VWS V14.01,2013-07-23 12:29:00,
2013-07-23 08:30:00,77.8,74.6,29.90,SW,218,1.1,3.3,90,0.00,,,0.00,86.00,VWS V14.01,2013-07-23 12:30:00,
2013-07-23 08:31:00,77.8,74.6,29.90,SSW,196,2.2,4.4,90,0.00,,,0.00,65.00,VWS V14.01,2013-07-23 12:31:00,
2013-07-23 08:32:00,77.8,74.6,29.90,SSW,196,2.2,4.4,90,0.00,,,0.00,77.00,VWS V14.01,2013-07-23 12:32:00,
2013-07-23 08:33:00,77.8,74.6,29.90,SSW,196,1.1,3.3,90,0.00,,,0.00,91.00,VWS V14.01,2013-07-23 12:33:00,
2013-07-23 08:34:00,77.8,74.6,29.90,SSW,196,0.0,3.3,90,0.00,,,0.00,84.00,VWS V14.01,2013-07-23 12:34:00,
2013-07-23 08:35:00,77.8,74.6,29.90,South,173,2.2,2.2,90,0.00,,,0.00,76.00,VWS V14.01,2013-07-23 12:35:00,
2013-07-23 08:36:00,77.8,74.7,29.90,SW,218,1.1,2.2,90,0.00,,,0.00,60.00,VWS V14.01,2013-07-23 12:36:00,
2013-07-23 08:37:00,77.8,74.7,29.90,SW,218,0.0,1.1,90,0.00,,,0.00,62.00,VWS V14.01,2013-07-23 12:37:00,
2013-07-23 08:38:00,77.8,74.7,29.90,SW,218,0.0,1.1,90,0.00,,,0.00,62.00,VWS V14.01,2013-07-23 12:38:00,
2013-07-23 08:39:00,77.8,74.7,29.90,SW,218,0.0,1.1,90,0.00,,,0.00,92.00,VWS V14.01,2013-07-23 12:39:00,
2013-07-23 08:40:00,77.8,74.7,29.90,NW,308,1.1,4.4,90,0.00,,,0.00,104.00,VWS V14.01,2013-07-23 12:40:00,
2013-07-23 08:41:00,77.8,74.7,29.90,WSW,240,1.1,4.4,90,0.00,,,0.00,102.00,VWS V14.01,2013-07-23 12:41:00,
2013-07-23 08:42:00,77.8,74.7,29.90,SW,218,1.1,3.3,90,0.00,,,0.00,90.00,VWS V14.01,2013-07-23 12:42:00,
2013-07-23 08:43:00,77.9,74.8,29.90,SSW,196,2.2,7.7,90,0.00,,,0.00,98.00,VWS V14.01,2013-07-23 12:43:00,
2013-07-23 08:44:00,77.9,74.4,29.90,SSW,196,2.2,4.4,89,0.00,,,0.00,104.00,VWS V14.01,2013-07-23 12:44:00,
2013-07-23 08:45:00,77.9,74.4,29.90,SW,218,1.1,3.3,89,0.00,,,0.00,101.00,VWS V14.01,2013-07-23 12:45:00,
2013-07-23 08:46:00,77.9,74.4,29.90,SW,218,2.2,3.3,89,0.00,,,0.00,98.00,VWS V14.01,2013-07-23 12:46:00,
2013-07-23 08:47:00,77.9,74.4,29.90,SSW,196,2.2,3.3,89,0.00,,,0.00,102.00,VWS V14.01,2013-07-23 12:47:00,
2013-07-23 08:48:00,77.9,74.4,29.90,SSW,196,1.1,1.1,89,0.00,,,0.00,97.00,VWS V14.01,2013-07-23 12:48:00,
2013-07-23 08:49:00,77.9,74.8,29.90,WSW,240,1.1,4.4,90,0.00,,,0.00,97.00,VWS V14.01,2013-07-23 12:49:00,
2013-07-23 08:50:00,78.1,74.6,29.90,SSW,196,2.2,4.4,89,0.00,,,0.00,107.00,VWS V14.01,2013-07-23 12:50:00,
2013-07-23 08:51:00,78.1,74.6,29.89,SSW,196,1.1,3.3,89,0.00,,,0.00,92.00,VWS V14.01,2013-07-23 12:51:00,
2013-07-23 08:52:00,78.1,74.6,29.90,SW,218,1.1,3.3,89,0.00,,,0.00,97.00,VWS V14.01,2013-07-23 12:52:00,
2013-07-23 08:53:00,78.1,74.6,29.90,South,173,2.2,4.4,89,0.00,,,0.00,100.00,VWS V14.01,2013-07-23 12:53:00,
2013-07-23 08:54:00,78.1,74.6,29.90,SSW,196,0.0,1.1,89,0.00,,,0.00,95.00,VWS V14.01,2013-07-23 12:54:00,
2013-07-23 08:55:00,78.1,74.9,29.90,SSW,196,0.0,1.1,90,0.00,,,0.00,88.00,VWS V14.01,2013-07-23 12:55:00,
2013-07-23 08:56:00,78.1,74.6,29.89,SW,218,3.3,6.6,89,0.00,,,0.00,79.00,VWS V14.01,2013-07-23 12:56:00,
2013-07-23 08:57:00,78.2,74.7,29.89,SSW,196,2.2,4.4,89,0.00,,,0.00,88.00,VWS V14.01,2013-07-23 12:57:00,
2013-07-23 08:58:00,78.2,74.7,29.89,SSW,196,2.2,5.5,89,0.00,,,0.00,60.00,VWS V14.01,2013-07-23 12:58:00,
2013-07-23 08:59:00,78.2,74.7,29.89,SW,218,2.2,4.4,89,0.00,,,0.00,46.00,VWS V14.01,2013-07-23 12:59:00,
2013-07-23 09:00:00,78.2,74.7,29.89,SW,218,1.1,2.2,89,0.00,,,0.00,39.00,VWS V14.01,2013-07-23 13:00:00,
2013-07-23 09:01:00,78.2,74.7,29.89,NW,308,1.1,3.3,89,0.00,,,0.00,35.00,VWS V14.01,2013-07-23 13:01:00,
2013-07-23 09:02:00,78.2,74.7,29.90,SSW,196,2.2,4.4,89,0.00,,,0.00,33.00,VWS V14.01,2013-07-23 13:02:00,
2013-07-23 09:03:00,78.2,74.7,29.90,SSW,196,1.1,2.2,89,0.00,,,0.00,36.00,VWS V14.01,2013-07-23 13:03:00,
2013-07-23 09:04:00,78.2,74.7,29.89,SW,218,3.3,6.6,89,0.00,,,0.00,40.00,VWS V14.01,2013-07-23 13:04:00,
2013-07-23 09:05:00,78.2,74.7,29.89,SW,218,1.1,3.3,89,0.00,,,0.00,46.00,VWS V14.01,2013-07-23 13:05:00,
2013-07-23 09:06:00,78.1,74.6,29.90,NNW,330,1.1,2.2,89,0.00,,,0.00,42.00,VWS V14.01,2013-07-23 13:06:00,
2013-07-23 09:07:00,78.1,74.6,29.90,NNW,330,2.2,5.5,89,0.00,,,0.00,51.00,VWS V14.01,2013-07-23 13:07:00,
2013-07-23 09:08:00,78.1,74.6,29.89,SSW,196,2.2,4.4,89,0.00,,,0.00,74.00,VWS V14.01,2013-07-23 13:08:00,
2013-07-23 09:09:00,78.1,74.6,29.90,SSW,196,3.3,4.4,89,0.00,,,0.00,105.00,VWS V14.01,2013-07-23 13:09:00,
2013-07-23 09:10:00,78.1,74.6,29.89,SW,218,2.2,3.3,89,0.00,,,0.00,132.00,VWS V14.01,2013-07-23 13:10:00,
2013-07-23 09:11:00,78.1,74.6,29.89,SW,218,1.1,3.3,89,0.00,,,0.00,137.00,VWS V14.01,2013-07-23 13:11:00,
2013-07-23 09:12:00,78.1,74.6,29.89,SW,218,1.1,3.3,89,0.00,,,0.00,127.00,VWS V14.01,2013-07-23 13:12:00,
2013-07-23 09:13:00,78.1,74.6,29.89,SW,218,0.0,2.2,89,0.00,,,0.00,127.00,VWS V14.01,2013-07-23 13:13:00,
2013-07-23 09:14:00,78.2,74.7,29.89,South,173,0.0,2.2,89,0.00,,,0.00,123.00,VWS V14.01,2013-07-23 13:14:00,
2013-07-23 09:15:00,78.2,74.7,29.89,SSW,196,0.0,2.2,89,0.00,,,0.00,109.00,VWS V14.01,2013-07-23 13:15:00,
2013-07-23 09:16:00,78.2,74.8,29.89,SSW,196,1.1,2.2,89,0.00,,,0.00,104.00,VWS V14.01,2013-07-23 13:16:00,
2013-07-23 09:17:00,78.2,74.8,29.89,SSW,196,1.1,2.2,89,0.00,,,0.00,137.00,VWS V14.01,2013-07-23 13:17:00,
2013-07-23 09:18:00,78.3,74.8,29.89,South,173,0.0,1.1,89,0.00,,,0.00,125.00,VWS V14.01,2013-07-23 13:18:00,
2013-07-23 09:19:00,78.3,74.8,29.89,SW,218,1.1,3.3,89,0.00,,,0.00,104.00,VWS V14.01,2013-07-23 13:19:00,
2013-07-23 09:20:00,78.3,74.8,29.89,SW,218,0.0,1.1,89,0.00,,,0.00,93.00,VWS V14.01,2013-07-23 13:20:00,
2013-07-23 09:21:00,78.4,74.9,29.89,SW,218,0.0,1.1,89,0.00,,,0.00,107.00,VWS V14.01,2013-07-23 13:21:00,
2013-07-23 09:22:00,78.4,74.9,29.89,SSW,196,3.3,5.5,89,0.00,,,0.00,113.00,VWS V14.01,2013-07-23 13:22:00,
2013-07-23 09:23:00,78.4,74.9,29.89,SSW,196,1.1,3.3,89,0.00,,,0.00,102.00,VWS V14.01,2013-07-23 13:23:00,
2013-07-23 09:24:00,78.6,75.0,29.89,NNW,330,1.1,2.2,89,0.00,,,0.00,111.00,VWS V14.01,2013-07-23 13:24:00,
2013-07-23 09:25:00,78.6,75.0,29.89,WSW,240,1.1,4.4,89,0.00,,,0.00,130.00,VWS V14.01,2013-07-23 13:25:00,
2013-07-23 09:26:00,78.6,75.0,29.89,SSW,196,3.3,6.6,89,0.00,,,0.00,162.00,VWS V14.01,2013-07-23 13:26:00,
2013-07-23 09:27:00,78.6,75.0,29.89,SSW,196,1.1,3.3,89,0.00,,,0.00,179.00,VWS V14.01,2013-07-23 13:27:00,
2013-07-23 09:28:00,78.7,75.1,29.89,SSW,196,0.0,1.1,89,0.00,,,0.00,162.00,VWS V14.01,2013-07-23 13:28:00,
2013-07-23 09:29:00,78.8,75.2,29.89,SSW,196,1.1,2.2,89,0.00,,,0.00,163.00,VWS V14.01,2013-07-23 13:29:00,
2013-07-23 09:30:00,78.8,74.9,29.89,SW,218,2.2,3.3,88,0.00,,,0.00,183.00,VWS V14.01,2013-07-23 13:30:00,
2013-07-23 09:31:00,78.8,75.0,29.89,SW,218,0.0,1.1,88,0.00,,,0.00,188.00,VWS V14.01,2013-07-23 13:31:00,
2013-07-23 09:32:00,78.9,75.4,29.89,SW,218,1.1,2.2,89,0.00,,,0.00,183.00,VWS V14.01,2013-07-23 13:32:00,
2013-07-23 09:33:00,79.1,75.2,29.89,WSW,240,1.1,2.2,88,0.00,,,0.00,188.00,VWS V14.01,2013-07-23 13:33:00,
2013-07-23 09:34:00,79.1,75.5,29.89,WSW,240,3.3,6.6,89,0.00,,,0.00,176.00,VWS V14.01,2013-07-23 13:34:00,
2013-07-23 09:35:00,79.2,75.3,29.89,SSW,196,3.3,5.5,88,0.00,,,0.00,181.00,VWS V14.01,2013-07-23 13:35:00,
2013-07-23 09:36:00,79.2,74.9,29.89,SSW,196,2.2,4.4,87,0.00,,,0.00,158.00,VWS V14.01,2013-07-23 13:36:00,
2013-07-23 09:37:00,79.2,74.9,29.89,SSW,196,2.2,4.4,87,0.00,,,0.00,160.00,VWS V14.01,2013-07-23 13:37:00,
2013-07-23 09:38:00,79.2,74.9,29.89,SSW,196,3.3,7.7,87,0.00,,,0.00,125.00,VWS V14.01,2013-07-23 13:38:00,
2013-07-23 09:39:00,79.2,75.1,29.89,SSW,196,3.3,5.5,87,0.00,,,0.00,105.00,VWS V14.01,2013-07-23 13:39:00,
2013-07-23 09:40:00,79.2,75.1,29.89,West,263,1.1,2.2,87,0.00,,,0.00,97.00,VWS V14.01,2013-07-23 13:40:00,
2013-07-23 09:41:00,79.2,75.1,29.89,SW,218,0.0,3.3,87,0.00,,,0.00,90.00,VWS V14.01,2013-07-23 13:41:00,
2013-07-23 09:42:00,79.2,75.1,29.89,WSW,240,3.3,6.6,87,0.00,,,0.00,102.00,VWS V14.01,2013-07-23 13:42:00,
2013-07-23 09:43:00,79.2,75.1,29.89,South,173,1.1,2.2,87,0.00,,,0.00,113.00,VWS V14.01,2013-07-23 13:43:00,
2013-07-23 09:44:00,79.2,75.1,29.89,SSW,196,4.4,7.7,87,0.00,,,0.00,121.00,VWS V14.01,2013-07-23 13:44:00,
2013-07-23 09:45:00,79.2,75.1,29.89,SW,218,2.2,8.8,87,0.00,,,0.00,148.00,VWS V14.01,2013-07-23 13:45:00,
2013-07-23 09:46:00,79.2,74.9,29.89,SW,218,1.1,5.5,87,0.00,,,0.00,151.00,VWS V14.01,2013-07-23 13:46:00,
2013-07-23 09:47:00,79.2,74.9,29.89,South,173,1.1,2.2,87,0.00,,,0.00,141.00,VWS V14.01,2013-07-23 13:47:00,
2013-07-23 09:48:00,79.2,74.9,29.89,NW,308,1.1,2.2,87,0.00,,,0.00,135.00,VWS V14.01,2013-07-23 13:48:00,
2013-07-23 09:49:00,79.2,75.4,29.89,NW,308,0.0,2.2,88,0.00,,,0.00,146.00,VWS V14.01,2013-07-23 13:49:00,
2013-07-23 09:50:00,79.2,75.4,29.89,North,353,1.1,2.2,88,0.00,,,0.00,145.00,VWS V14.01,2013-07-23 13:50:00,
2013-07-23 09:51:00,79.2,75.4,29.89,NNW,330,1.1,2.2,88,0.00,,,0.00,128.00,VWS V14.01,2013-07-23 13:51:00,
2013-07-23 09:52:00,79.2,75.1,29.89,NNW,330,2.2,4.4,87,0.00,,,0.00,125.00,VWS V14.01,2013-07-23 13:52:00,
2013-07-23 09:53:00,79.2,75.1,29.89,South,173,1.1,5.5,87,0.00,,,0.00,137.00,VWS V14.01,2013-07-23 13:53:00,
2013-07-23 09:54:00,79.2,75.1,29.89,NNW,330,1.1,3.3,87,0.00,,,0.00,148.00,VWS V14.01,2013-07-23 13:54:00,
2013-07-23 09:55:00,79.2,74.9,29.89,NNW,330,0.0,1.1,87,0.00,,,0.00,133.00,VWS V14.01,2013-07-23 13:55:00,
2013-07-23 09:56:00,79.2,74.9,29.89,NNW,330,0.0,0.0,87,0.00,,,0.00,128.00,VWS V14.01,2013-07-23 13:56:00,
2013-07-23 09:57:00,79.2,74.9,29.89,NNW,330,0.0,1.1,87,0.00,,,0.00,144.00,VWS V14.01,2013-07-23 13:57:00,
2013-07-23 09:58:00,79.2,74.9,29.89,WNW,286,0.0,1.1,87,0.00,,,0.00,146.00,VWS V14.01,2013-07-23 13:58:00,
2013-07-23 09:59:00,79.2,74.9,29.89,ESE,106,0.0,2.2,87,0.00,,,0.00,149.00,VWS V14.01,2013-07-23 13:59:00,
2013-07-23 10:00:00,79.2,75.1,29.89,NNE,16,2.2,3.3,87,0.00,,,0.00,151.00,VWS V14.01,2013-07-23 14:00:00,
2013-07-23 10:01:00,79.2,75.1,29.89,NNE,16,2.2,3.3,87,0.00,,,0.00,158.00,VWS V14.01,2013-07-23 14:01:00,
2013-07-23 10:02:00,79.2,75.1,29.89,SSW,196,2.2,3.3,87,0.00,,,0.00,135.00,VWS V14.01,2013-07-23 14:02:00,
2013-07-23 10:03:00,79.2,75.1,29.89,NNE,16,2.2,5.5,87,0.00,,,0.00,134.00,VWS V14.01,2013-07-23 14:03:00,
2013-07-23 10:04:00,79.2,75.1,29.89,NW,308,1.1,2.2,87,0.00,,,0.00,148.00,VWS V14.01,2013-07-23 14:04:00,
2013-07-23 10:05:00,79.2,74.7,29.89,SW,218,2.2,4.4,86,0.00,,,0.00,149.00,VWS V14.01,2013-07-23 14:05:00,
2013-07-23 10:06:00,79.2,75.1,29.89,West,263,0.0,1.1,87,0.00,,,0.00,160.00,VWS V14.01,2013-07-23 14:06:00,
2013-07-23 10:07:00,79.2,75.1,29.89,SSW,196,1.1,4.4,87,0.00,,,0.00,176.00,VWS V14.01,2013-07-23 14:07:00,
2013-07-23 10:08:00,79.3,75.2,29.89,South,173,2.2,5.5,87,0.00,,,0.00,160.00,VWS V14.01,2013-07-23 14:08:00,
2013-07-23 10:09:00,79.3,75.2,29.89,WNW,286,1.1,3.3,87,0.00,,,0.00,149.00,VWS V14.01,2013-07-23 14:09:00,
2013-07-23 10:10:00,79.3,75.2,29.89,WNW,286,0.0,1.1,87,0.00,,,0.00,153.00,VWS V14.01,2013-07-23 14:10:00,
2013-07-23 10:11:00,79.4,75.2,29.89,WNW,286,0.0,1.1,87,0.00,,,0.00,186.00,VWS V14.01,2013-07-23 14:11:00,
2013-07-23 10:12:00,79.6,75.3,29.89,North,353,1.1,2.2,87,0.00,,,0.00,192.00,VWS V14.01,2013-07-23 14:12:00,
2013-07-23 10:13:00,79.6,75.3,29.89,SW,218,3.3,6.6,87,0.00,,,0.00,216.00,VWS V14.01,2013-07-23 14:13:00,
2013-07-23 10:14:00,79.6,75.0,29.89,SSW,196,2.2,4.4,86,0.00,,,0.00,178.00,VWS V14.01,2013-07-23 14:14:00,
2013-07-23 10:15:00,79.6,75.3,29.89,NNW,330,2.2,6.6,87,0.00,,,0.00,174.00,VWS V14.01,2013-07-23 14:15:00,
2013-07-23 10:16:00,79.7,75.4,29.89,SSW,196,4.4,6.6,87,0.00,,,0.00,214.00,VWS V14.01,2013-07-23 14:16:00,
2013-07-23 10:17:00,79.7,75.1,29.89,SW,218,2.2,5.5,86,0.00,,,0.00,234.00,VWS V14.01,2013-07-23 14:17:00,
2013-07-23 10:18:00,79.7,75.1,29.89,SW,218,1.1,2.2,86,0.00,,,0.00,190.00,VWS V14.01,2013-07-23 14:18:00,
2013-07-23 10:19:00,79.8,75.2,29.89,NW,308,1.1,3.3,86,0.00,,,0.00,210.00,VWS V14.01,2013-07-23 14:19:00,
2013-07-23 10:20:00,79.8,75.2,29.89,WNW,286,1.1,2.2,86,0.00,,,0.00,193.00,VWS V14.01,2013-07-23 14:20:00,
2013-07-23 10:21:00,79.8,74.8,29.89,SSW,196,1.1,3.3,85,0.00,,,0.00,181.00,VWS V14.01,2013-07-23 14:21:00,
2013-07-23 10:22:00,79.8,74.9,29.89,SW,218,3.3,4.4,85,0.00,,,0.00,195.00,VWS V14.01,2013-07-23 14:22:00,
2013-07-23 10:23:00,79.8,74.9,29.89,SSW,196,1.1,3.3,85,0.00,,,0.00,185.00,VWS V14.01,2013-07-23 14:23:00,
2013-07-23 10:24:00,79.8,74.9,29.89,South,173,1.1,3.3,85,0.00,,,0.00,204.00,VWS V14.01,2013-07-23 14:24:00,
2013-07-23 10:25:00,79.9,75.0,29.88,SSW,196,1.1,3.3,85,0.00,,,0.00,230.00,VWS V14.01,2013-07-23 14:25:00,
2013-07-23 10:26:00,80.2,75.2,29.88,SSE,150,2.2,3.3,85,0.00,,,0.00,214.00,VWS V14.01,2013-07-23 14:26:00,
2013-07-23 10:27:00,80.2,75.3,29.88,SW,218,1.1,2.2,85,0.00,,,0.00,234.00,VWS V14.01,2013-07-23 14:27:00,
2013-07-23 10:28:00,80.2,75.3,29.88,South,173,1.1,3.3,85,0.00,,,0.00,230.00,VWS V14.01,2013-07-23 14:28:00,
2013-07-23 10:29:00,80.3,75.4,29.88,SW,218,2.2,4.4,85,0.00,,,0.00,211.00,VWS V14.01,2013-07-23 14:29:00,
2013-07-23 10:30:00,80.4,75.5,29.88,WNW,286,0.0,1.1,85,0.00,,,0.00,214.00,VWS V14.01,2013-07-23 14:30:00,
2013-07-23 10:31:00,80.4,75.5,29.88,NW,308,1.1,3.3,85,0.00,,,0.00,218.00,VWS V14.01,2013-07-23 14:31:00,
2013-07-23 10:32:00,80.4,75.5,29.88,NNW,330,1.1,2.2,85,0.00,,,0.00,223.00,VWS V14.01,2013-07-23 14:32:00,
2013-07-23 10:33:00,80.6,75.6,29.88,NNW,330,0.0,2.2,85,0.00,,,0.00,232.00,VWS V14.01,2013-07-23 14:33:00,
2013-07-23 10:34:00,80.6,75.6,29.88,SW,218,2.2,6.6,85,0.00,,,0.00,229.00,VWS V14.01,2013-07-23 14:34:00,
2013-07-23 10:35:00,80.6,75.3,29.88,SE,128,2.2,4.4,84,0.00,,,0.00,209.00,VWS V14.01,2013-07-23 14:35:00,
2013-07-23 10:36:00,80.6,75.6,29.88,SE,128,1.1,3.3,85,0.00,,,0.00,235.00,VWS V14.01,2013-07-23 14:36:00,
2013-07-23 10:37:00,80.7,76.1,29.88,SW,218,0.0,1.1,86,0.00,,,0.00,202.00,VWS V14.01,2013-07-23 14:37:00,
2013-07-23 10:38:00,80.8,75.8,29.88,SW,218,0.0,1.1,85,0.00,,,0.00,190.00,VWS V14.01,2013-07-23 14:38:00,
2013-07-23 10:39:00,80.8,76.3,29.89,South,173,1.1,2.2,86,0.00,,,0.00,178.00,VWS V14.01,2013-07-23 14:39:00,
2013-07-23 10:40:00,80.8,75.6,29.89,SSW,196,2.2,4.4,84,0.00,,,0.00,169.00,VWS V14.01,2013-07-23 14:40:00,
2013-07-23 10:41:00,80.8,75.5,29.88,South,173,2.2,5.5,84,0.00,,,0.00,171.00,VWS V14.01,2013-07-23 14:41:00,
2013-07-23 10:42:00,80.8,75.5,29.88,North,353,2.2,4.4,84,0.00,,,0.00,157.00,VWS V14.01,2013-07-23 14:42:00,
2013-07-23 10:43:00,80.7,75.4,29.89,West,263,2.2,6.6,84,0.00,,,0.00,176.00,VWS V14.01,2013-07-23 14:43:00,
2013-07-23 10:44:00,80.7,75.4,29.89,SW,218,2.2,5.5,84,0.00,,,0.00,188.00,VWS V14.01,2013-07-23 14:44:00,
2013-07-23 10:45:00,80.7,75.7,29.89,SW,218,1.1,3.3,85,0.00,,,0.00,197.00,VWS V14.01,2013-07-23 14:45:00,
2013-07-23 10:46:00,80.6,75.3,29.89,SW,218,2.2,4.4,84,0.00,,,0.00,200.00,VWS V14.01,2013-07-23 14:46:00,
2013-07-23 10:47:00,80.6,75.6,29.89,South,173,1.1,4.4,85,0.00,,,0.00,209.00,VWS V14.01,2013-07-23 14:47:00,
2013-07-23 10:48:00,80.6,75.6,29.89,West,263,0.0,1.1,85,0.00,,,0.00,174.00,VWS V14.01,2013-07-23 14:48:00,
2013-07-23 10:49:00,80.6,75.6,29.89,SSW,196,2.2,5.5,85,0.00,,,0.00,174.00,VWS V14.01,2013-07-23 14:49:00,
2013-07-23 10:50:00,80.6,75.6,29.89,WSW,240,1.1,5.5,85,0.00,,,0.00,167.00,VWS V14.01,2013-07-23 14:50:00,
2013-07-23 10:51:00,80.6,75.6,29.89,SSW,196,2.2,6.6,85,0.00,,,0.00,167.00,VWS V14.01,2013-07-23 14:51:00,
2013-07-23 10:52:00,80.6,75.6,29.89,SW,218,0.0,2.2,85,0.00,,,0.00,165.00,VWS V14.01,2013-07-23 14:52:00,
2013-07-23 10:53:00,80.6,75.6,29.89,SW,218,0.0,0.0,85,0.00,,,0.00,181.00,VWS V14.01,2013-07-23 14:53:00,
2013-07-23 10:54:00,80.7,75.7,29.89,West,263,1.1,2.2,85,0.00,,,0.00,179.00,VWS V14.01,2013-07-23 14:54:00,
2013-07-23 10:55:00,80.7,75.7,29.89,SSE,150,0.0,2.2,85,0.00,,,0.00,153.00,VWS V14.01,2013-07-23 14:55:00,
2013-07-23 10:56:00,80.7,75.7,29.89,SSE,150,3.3,4.4,85,0.00,,,0.00,162.00,VWS V14.01,2013-07-23 14:56:00,
2013-07-23 10:57:00,80.7,75.7,29.89,SSW,196,3.3,5.5,85,0.00,,,0.00,185.00,VWS V14.01,2013-07-23 14:57:00,
2013-07-23 10:58:00,80.7,75.4,29.89,SSW,196,1.1,2.2,84,0.00,,,0.00,211.00,VWS V14.01,2013-07-23 14:58:00,
2013-07-23 10:59:00,80.8,75.8,29.89,WSW,240,1.1,3.3,85,0.00,,,0.00,220.00,VWS V14.01,2013-07-23 14:59:00,
2013-07-23 11:00:00,80.7,75.4,29.89,WSW,240,1.1,2.2,84,0.00,,,0.00,242.00,VWS V14.01,2013-07-23 15:00:00,
2013-07-23 11:01:00,80.8,75.8,29.89,SSW,196,3.3,5.5,85,0.00,,,0.00,257.00,VWS V14.01,2013-07-23 15:01:00,
2013-07-23 11:02:00,80.8,75.5,29.89,WSW,240,2.2,4.4,84,0.00,,,0.00,281.00,VWS V14.01,2013-07-23 15:02:00,
2013-07-23 11:03:00,80.8,75.9,29.89,SW,218,3.3,5.5,85,0.00,,,0.00,234.00,VWS V14.01,2013-07-23 15:03:00,
2013-07-23 11:04:00,80.9,75.7,29.89,SSW,196,2.2,3.3,84,0.00,,,0.00,229.00,VWS V14.01,2013-07-23 15:04:00,
2013-07-23 11:05:00,81.1,76.1,29.89,WNW,286,2.2,4.4,85,0.00,,,0.00,241.00,VWS V14.01,2013-07-23 15:05:00,
2013-07-23 11:06:00,81.1,75.8,29.89,SW,218,1.1,3.3,84,0.00,,,0.00,278.00,VWS V14.01,2013-07-23 15:06:00,
2013-07-23 11:07:00,81.1,75.8,29.89,WNW,286,1.1,2.2,84,0.00,,,0.00,297.00,VWS V14.01,2013-07-23 15:07:00,
2013-07-23 11:08:00,81.1,75.8,29.89,WNW,286,1.1,2.2,84,0.00,,,0.00,325.00,VWS V14.01,2013-07-23 15:08:00,
2013-07-23 11:09:00,81.2,76.2,29.89,SSW,196,1.1,4.4,85,0.00,,,0.00,274.00,VWS V14.01,2013-07-23 15:09:00,
2013-07-23 11:10:00,81.3,76.1,29.89,SW,218,2.2,3.3,84,0.00,,,0.00,287.00,VWS V14.01,2013-07-23 15:10:00,
2013-07-23 11:11:00,81.6,76.2,29.89,SSW,196,4.4,6.6,84,0.00,,,0.00,288.00,VWS V14.01,2013-07-23 15:11:00,
2013-07-23 11:12:00,81.6,75.9,29.89,SSW,196,4.4,7.7,83,0.00,,,0.00,236.00,VWS V14.01,2013-07-23 15:12:00,
2013-07-23 11:13:00,81.7,76.0,29.89,SSE,150,2.2,5.5,83,0.00,,,0.00,232.00,VWS V14.01,2013-07-23 15:13:00,
2013-07-23 11:14:00,81.6,75.5,29.89,SW,218,3.3,6.6,82,0.00,,,0.00,221.00,VWS V14.01,2013-07-23 15:14:00,
2013-07-23 11:15:00,81.6,75.9,29.89,West,263,2.2,5.5,83,0.00,,,0.00,221.00,VWS V14.01,2013-07-23 15:15:00,
2013-07-23 11:16:00,81.6,75.9,29.89,SW,218,3.3,7.7,83,0.00,,,0.00,239.00,VWS V14.01,2013-07-23 15:16:00,
2013-07-23 11:17:00,81.6,75.9,29.89,SSW,196,3.3,7.7,83,0.00,,,0.00,247.00,VWS V14.01,2013-07-23 15:17:00,
2013-07-23 11:18:00,81.6,75.5,29.89,SW,218,2.2,4.4,82,0.00,,,0.00,243.00,VWS V14.01,2013-07-23 15:18:00,
2013-07-23 11:19:00,81.4,75.4,29.89,NNW,330,2.2,4.4,82,0.00,,,0.00,265.00,VWS V14.01,2013-07-23 15:19:00,
2013-07-23 11:20:00,81.6,75.9,29.89,North,353,3.3,5.5,83,0.00,,,0.00,301.00,VWS V14.01,2013-07-23 15:20:00,
2013-07-23 11:21:00,81.4,75.8,29.89,WNW,286,2.2,4.4,83,0.00,,,0.00,304.00,VWS V14.01,2013-07-23 15:21:00,
2013-07-23 11:22:00,81.6,76.2,29.89,WNW,286,0.0,1.1,84,0.00,,,0.00,290.00,VWS V14.01,2013-07-23 15:22:00,
2013-07-23 11:23:00,81.7,76.3,29.89,West,263,0.0,2.2,84,0.00,,,0.00,247.00,VWS V14.01,2013-07-23 15:23:00,
2013-07-23 11:24:00,81.7,76.0,29.89,West,263,3.3,6.6,83,0.00,,,0.00,216.00,VWS V14.01,2013-07-23 15:24:00,
2013-07-23 11:25:00,81.7,75.6,29.89,West,263,2.2,6.6,82,0.00,,,0.00,213.00,VWS V14.01,2013-07-23 15:25:00,
2013-07-23 11:26:00,81.6,75.5,29.89,NW,308,3.3,7.7,82,0.00,,,0.00,207.00,VWS V14.01,2013-07-23 15:26:00,
2013-07-23 11:27:00,81.4,75.4,29.89,WNW,286,3.3,7.7,82,0.00,,,0.00,211.00,VWS V14.01,2013-07-23 15:27:00,
2013-07-23 11:28:00,81.3,75.3,29.89,SSW,196,3.3,6.6,82,0.00,,,0.00,232.00,VWS V14.01,2013-07-23 15:28:00,
2013-07-23 11:29:00,81.3,75.7,29.89,SW,218,1.1,2.2,83,0.00,,,0.00,251.00,VWS V14.01,2013-07-23 15:29:00,
2013-07-23 11:30:00,81.4,75.8,29.89,West,263,1.1,4.4,83,0.00,,,0.00,260.00,VWS V14.01,2013-07-23 15:30:00,
2013-07-23 11:31:00,81.4,75.4,29.89,SSW,196,3.3,4.4,82,0.00,,,0.00,253.00,VWS V14.01,2013-07-23 15:31:00,
2013-07-23 11:32:00,81.6,75.9,29.89,South,173,0.0,3.3,83,0.00,,,0.00,250.00,VWS V14.01,2013-07-23 15:32:00,
2013-07-23 11:33:00,81.7,76.0,29.89,SSW,196,2.2,4.4,83,0.00,,,0.00,265.00,VWS V14.01,2013-07-23 15:33:00,
2013-07-23 11:34:00,81.7,76.0,29.89,WSW,240,2.2,4.4,83,0.00,,,0.00,290.00,VWS V14.01,2013-07-23 15:34:00,
2013-07-23 11:35:00,81.7,76.0,29.89,WSW,240,1.1,2.2,83,0.00,,,0.00,336.00,VWS V14.01,2013-07-23 15:35:00,
2013-07-23 11:36:00,81.7,76.0,29.89,West,263,1.1,3.3,83,0.00,,,0.00,443.00,VWS V14.01,2013-07-23 15:36:00,
2013-07-23 11:37:00,81.8,76.1,29.89,WNW,286,0.0,1.1,83,0.00,,,0.00,443.00,VWS V14.01,2013-07-23 15:37:00,
2013-07-23 11:38:00,81.8,76.2,29.89,West,263,0.0,1.1,83,0.00,,,0.00,360.00,VWS V14.01,2013-07-23 15:38:00,
2013-07-23 11:39:00,81.9,76.3,29.89,West,263,2.2,9.9,83,0.00,,,0.00,360.00,VWS V14.01,2013-07-23 15:39:00,
2013-07-23 11:40:00,82.1,76.0,29.89,WNW,286,2.2,9.9,82,0.00,,,0.00,301.00,VWS V14.01,2013-07-23 15:40:00,
2013-07-23 11:41:00,81.9,75.9,29.89,NW,308,1.1,4.4,82,0.00,,,0.00,308.00,VWS V14.01,2013-07-23 15:41:00,
2013-07-23 11:42:00,81.8,75.8,29.89,NNW,330,1.1,2.2,82,0.00,,,0.00,308.00,VWS V14.01,2013-07-23 15:42:00,
2013-07-23 11:43:00,81.8,75.3,29.89,SSW,196,1.1,2.2,81,0.00,,,0.00,232.00,VWS V14.01,2013-07-23 15:43:00,
2013-07-23 11:44:00,81.7,75.6,29.89,North,353,3.3,5.5,82,0.00,,,0.00,220.00,VWS V14.01,2013-07-23 15:44:00,
2013-07-23 11:45:00,81.6,75.5,29.89,NNW,330,3.3,6.6,82,0.00,,,0.00,309.00,VWS V14.01,2013-07-23 15:45:00,
2013-07-23 11:46:00,81.6,75.5,29.89,NW,308,3.3,4.4,82,0.00,,,0.00,309.00,VWS V14.01,2013-07-23 15:46:00,
2013-07-23 11:47:00,81.6,75.5,29.89,North,353,0.0,2.2,82,0.00,,,0.00,374.00,VWS V14.01,2013-07-23 15:47:00,
2013-07-23 11:48:00,81.7,76.0,29.89,North,353,2.2,6.6,83,0.00,,,0.00,374.00,VWS V14.01,2013-07-23 15:48:00,
2013-07-23 11:49:00,81.8,76.1,29.89,WNW,286,1.1,2.2,83,0.00,,,0.00,374.00,VWS V14.01,2013-07-23 15:49:00,
2013-07-23 11:50:00,81.9,76.6,29.89,WNW,286,0.0,1.1,84,0.00,,,0.00,374.00,VWS V14.01,2013-07-23 15:50:00,
2013-07-23 11:51:00,82.2,76.5,29.89,NW,308,3.3,6.6,83,0.00,,,0.00,374.00,VWS V14.01,2013-07-23 15:51:00,
2013-07-23 11:52:00,82.2,76.1,29.89,NW,308,2.2,7.7,82,0.00,,,0.00,374.00,VWS V14.01,2013-07-23 15:52:00,
2013-07-23 11:53:00,82.1,75.7,29.89,NW,308,3.3,4.4,81,0.00,,,0.00,299.00,VWS V14.01,2013-07-23 15:53:00,
2013-07-23 11:54:00,82.1,76.0,29.89,North,353,2.2,4.4,82,0.00,,,0.00,299.00,VWS V14.01,2013-07-23 15:54:00,
2013-07-23 11:55:00,82.2,76.6,29.89,WSW,240,3.3,8.8,83,0.00,,,0.00,898.00,VWS V14.01,2013-07-23 15:55:00,
2013-07-23 11:56:00,82.3,76.3,29.89,SSE,150,2.2,4.4,82,0.00,,,0.00,898.00,VWS V14.01,2013-07-23 15:56:00,
2013-07-23 11:57:00,82.6,76.5,29.89,South,173,1.1,3.3,82,0.00,,,0.00,213.00,VWS V14.01,2013-07-23 15:57:00,
2013-07-23 11:58:00,82.7,76.2,29.89,SSW,196,4.4,8.8,81,0.00,,,0.00,210.00,VWS V14.01,2013-07-23 15:58:00,
2013-07-23 11:59:00,82.7,75.9,29.89,SE,128,2.2,4.4,80,0.00,,,0.00,234.00,VWS V14.01,2013-07-23 15:59:00,
2013-07-23 12:00:00,82.7,76.6,29.89,SE,128,0.0,1.1,82,0.00,,,0.00,304.00,VWS V14.01,2013-07-23 16:00:00,
2013-07-23 12:01:00,82.7,76.6,29.89,NW,308,2.2,4.4,82,0.00,,,0.00,350.00,VWS V14.01,2013-07-23 16:01:00,
2013-07-23 12:02:00,82.6,76.1,29.89,North,353,1.1,3.3,81,0.00,,,0.00,350.00,VWS V14.01,2013-07-23 16:02:00,
2013-07-23 12:03:00,82.7,76.2,29.89,SW,218,1.1,3.3,81,0.00,,,0.00,350.00,VWS V14.01,2013-07-23 16:03:00,
2013-07-23 12:04:00,82.8,76.3,29.89,SSW,196,2.2,3.3,81,0.00,,,0.00,308.00,VWS V14.01,2013-07-23 16:04:00,
2013-07-23 12:05:00,82.8,76.4,29.89,SW,218,2.2,5.5,81,0.00,,,0.00,311.00,VWS V14.01,2013-07-23 16:05:00,
2013-07-23 12:06:00,82.9,76.2,29.89,SW,218,4.4,7.7,80,0.00,,,0.00,396.00,VWS V14.01,2013-07-23 16:06:00,
2013-07-23 12:07:00,82.9,76.2,29.89,SW,218,2.2,4.4,80,0.00,,,0.00,394.00,VWS V14.01,2013-07-23 16:07:00,
2013-07-23 12:08:00,82.8,76.1,29.89,SW,218,1.1,3.3,80,0.00,,,0.00,394.00,VWS V14.01,2013-07-23 16:08:00,
2013-07-23 12:09:00,82.8,75.9,29.89,NNW,330,2.2,3.3,80,0.00,,,0.00,253.00,VWS V14.01,2013-07-23 16:09:00,
2013-07-23 12:10:00,82.7,75.9,29.89,WNW,286,3.3,5.5,80,0.00,,,0.00,226.00,VWS V14.01,2013-07-23 16:10:00,
2013-07-23 12:11:00,82.7,76.2,29.89,WNW,286,3.3,5.5,81,0.00,,,0.00,225.00,VWS V14.01,2013-07-23 16:11:00,
2013-07-23 12:12:00,82.6,75.8,29.89,SSW,196,3.3,7.7,80,0.00,,,0.00,206.00,VWS V14.01,2013-07-23 16:12:00,
2013-07-23 12:13:00,82.6,75.8,29.89,SW,218,2.2,6.6,80,0.00,,,0.00,209.00,VWS V14.01,2013-07-23 16:13:00,
2013-07-23 12:14:00,82.4,75.7,29.89,SSW,196,3.3,7.7,80,0.00,,,0.00,232.00,VWS V14.01,2013-07-23 16:14:00,
2013-07-23 12:15:00,82.3,75.6,29.89,WSW,240,3.3,5.5,80,0.00,,,0.00,255.00,VWS V14.01,2013-07-23 16:15:00,
2013-07-23 12:16:00,82.2,75.5,29.89,WSW,240,2.2,3.3,80,0.00,,,0.00,306.00,VWS V14.01,2013-07-23 16:16:00,
2013-07-23 12:17:00,82.4,75.7,29.89,SW,218,2.2,3.3,80,0.00,,,0.00,306.00,VWS V14.01,2013-07-23 16:17:00,
2013-07-23 12:18:00,82.6,75.8,29.89,SSW,196,5.5,8.8,80,0.00,,,0.00,306.00,VWS V14.01,2013-07-23 16:18:00,
2013-07-23 12:19:00,82.8,75.9,29.89,SSW,196,4.4,7.7,80,0.00,,,0.00,643.00,VWS V14.01,2013-07-23 16:19:00,
2013-07-23 12:20:00,82.8,76.1,29.89,NNW,330,1.1,3.3,80,0.00,,,0.00,643.00,VWS V14.01,2013-07-23 16:20:00,
2013-07-23 12:21:00,83.1,76.6,29.89,SW,218,2.2,3.3,81,0.00,,,0.00,643.00,VWS V14.01,2013-07-23 16:21:00,
2013-07-23 12:22:00,83.3,76.9,29.89,SSW,196,1.1,3.3,81,0.00,,,0.00,746.00,VWS V14.01,2013-07-23 16:22:00,
2013-07-23 12:23:00,83.7,77.2,29.89,WNW,286,1.1,2.2,81,0.00,,,0.00,729.00,VWS V14.01,2013-07-23 16:23:00,
2013-07-23 12:24:00,83.8,77.0,29.89,North,353,3.3,5.5,80,0.00,,,0.00,420.00,VWS V14.01,2013-07-23 16:24:00,
2013-07-23 12:25:00,83.8,76.3,29.89,NW,308,1.1,2.2,78,0.00,,,0.00,420.00,VWS V14.01,2013-07-23 16:25:00,
2013-07-23 12:26:00,83.8,76.2,29.89,NW,308,3.3,5.5,78,0.00,,,0.00,309.00,VWS V14.01,2013-07-23 16:26:00,
2013-07-23 12:27:00,83.6,76.0,29.89,NNW,330,4.4,7.7,78,0.00,,,0.00,318.00,VWS V14.01,2013-07-23 16:27:00,
2013-07-23 12:28:00,83.3,75.8,29.89,SW,218,3.3,4.4,78,0.00,,,0.00,345.00,VWS V14.01,2013-07-23 16:28:00,
2013-07-23 12:29:00,83.3,76.2,29.89,NW,308,1.1,2.2,79,0.00,,,0.00,374.00,VWS V14.01,2013-07-23 16:29:00,
2013-07-23 12:30:00,83.3,76.2,29.89,West,263,1.1,1.1,79,0.00,,,0.00,374.00,VWS V14.01,2013-07-23 16:30:00,
2013-07-23 12:31:00,83.6,77.1,29.89,SSW,196,0.0,3.3,81,0.00,,,0.00,374.00,VWS V14.01,2013-07-23 16:31:00,
2013-07-23 12:32:00,83.8,76.2,29.89,SW,218,2.2,5.5,78,0.00,,,0.00,374.00,VWS V14.01,2013-07-23 16:32:00,
2013-07-23 12:33:00,83.8,76.2,29.89,South,173,1.1,4.4,78,0.00,,,0.00,374.00,VWS V14.01,2013-07-23 16:33:00,
2013-07-23 12:34:00,83.8,75.9,29.89,SSW,196,3.3,7.7,77,0.00,,,0.00,993.00,VWS V14.01,2013-07-23 16:34:00,
2013-07-23 12:35:00,84.2,76.6,29.89,SW,218,4.4,7.7,78,0.00,,,0.00,1034.00,VWS V14.01,2013-07-23 16:35:00,
2013-07-23 12:36:00,84.6,76.6,29.89,SSW,196,1.1,4.4,77,0.00,,,0.00,1053.00,VWS V14.01,2013-07-23 16:36:00,
2013-07-23 12:37:00,85.2,79.1,29.89,SW,218,3.3,7.7,82,0.00,,,0.00,1034.00,VWS V14.01,2013-07-23 16:37:00,
2013-07-23 12:38:00,85.3,76.5,29.88,SSW,196,3.3,5.5,75,0.00,,,0.00,1051.00,VWS V14.01,2013-07-23 16:38:00,
2013-07-23 12:39:00,85.3,76.1,29.89,SSW,196,5.5,8.8,74,0.00,,,0.00,1051.00,VWS V14.01,2013-07-23 16:39:00,
2013-07-23 12:40:00,85.2,76.0,29.88,SSW,196,4.4,6.6,74,0.00,,,0.00,1051.00,VWS V14.01,2013-07-23 16:40:00,
2013-07-23 12:41:00,85.1,75.8,29.88,South,173,1.1,2.2,74,0.00,,,0.00,202.00,VWS V14.01,2013-07-23 16:41:00,
2013-07-23 12:42:00,84.8,76.1,29.88,North,353,3.3,5.5,75,0.00,,,0.00,216.00,VWS V14.01,2013-07-23 16:42:00,
2013-07-23 12:43:00,84.7,76.2,29.88,NNW,330,3.3,4.4,76,0.00,,,0.00,281.00,VWS V14.01,2013-07-23 16:43:00,
2013-07-23 12:44:00,84.6,76.6,29.88,NNW,330,2.2,3.3,77,0.00,,,0.00,207.00,VWS V14.01,2013-07-23 16:44:00,
2013-07-23 12:45:00,84.4,76.4,29.88,NNW,330,1.1,2.2,77,0.00,,,0.00,207.00,VWS V14.01,2013-07-23 16:45:00,
2013-07-23 12:46:00,84.4,77.2,29.88,NNW,330,0.0,1.1,79,0.00,,,0.00,434.00,VWS V14.01,2013-07-23 16:46:00,
2013-07-23 12:47:00,84.7,77.8,29.88,ENE,60,1.1,4.4,80,0.00,,,0.00,434.00,VWS V14.01,2013-07-23 16:47:00,
2013-07-23 12:48:00,84.8,77.2,29.88,NE,38,1.1,2.2,78,0.00,,,0.00,434.00,VWS V14.01,2013-07-23 16:48:00,
2013-07-23 12:49:00,84.9,77.3,29.88,SW,218,1.1,3.3,78,0.00,,,0.00,979.00,VWS V14.01,2013-07-23 16:49:00,
2013-07-23 12:50:00,85.2,77.5,29.88,North,353,1.1,3.3,78,0.00,,,0.00,997.00,VWS V14.01,2013-07-23 16:50:00,
2013-07-23 12:51:00,85.3,76.9,29.88,SSW,196,4.4,6.6,76,0.00,,,0.00,1038.00,VWS V14.01,2013-07-23 16:51:00,
2013-07-23 12:52:00,85.4,76.6,29.88,SSW,196,4.4,5.5,75,0.00,,,0.00,1086.00,VWS V14.01,2013-07-23 16:52:00,
2013-07-23 12:53:00,85.6,76.7,29.88,WSW,240,0.0,2.2,75,0.00,,,0.00,1046.00,VWS V14.01,2013-07-23 16:53:00,
2013-07-23 12:54:00,85.9,78.3,29.87,West,263,0.0,1.1,78,0.00,,,0.00,1056.00,VWS V14.01,2013-07-23 16:54:00,
2013-07-23 12:55:00,86.2,77.8,29.87,West,263,0.0,1.1,76,0.00,,,0.00,1090.00,VWS V14.01,2013-07-23 16:55:00,
2013-07-23 12:56:00,86.3,77.5,29.87,NNW,330,2.2,4.4,75,0.00,,,0.00,1090.00,VWS V14.01,2013-07-23 16:56:00,
2013-07-23 12:57:00,86.2,77.8,29.87,NNW,330,3.3,4.4,76,0.00,,,0.00,204.00,VWS V14.01,2013-07-23 16:57:00,
2013-07-23 12:58:00,86.1,76.8,29.87,WNW,286,2.2,4.4,74,0.00,,,0.00,190.00,VWS V14.01,2013-07-23 16:58:00,
2013-07-23 12:59:00,85.8,76.1,29.87,SW,218,4.4,8.8,73,0.00,,,0.00,188.00,VWS V14.01,2013-07-23 16:59:00,
2013-07-23 13:00:00,85.4,75.8,29.87,SW,218,2.2,4.4,73,0.00,,,0.00,188.00,VWS V14.01,2013-07-23 17:00:00,
2013-07-23 13:01:00,85.2,76.3,29.87,North,353,2.2,4.4,75,0.00,,,0.00,188.00,VWS V14.01,2013-07-23 17:01:00,
2013-07-23 13:02:00,84.9,75.7,29.87,West,263,1.1,2.2,74,0.00,,,0.00,954.00,VWS V14.01,2013-07-23 17:02:00,
2013-07-23 13:03:00,84.9,76.1,29.87,NNE,16,1.1,4.4,75,0.00,,,0.00,920.00,VWS V14.01,2013-07-23 17:03:00,
2013-07-23 13:04:00,85.1,77.0,29.87,WNW,286,2.2,3.3,77,0.00,,,0.00,925.00,VWS V14.01,2013-07-23 17:04:00,
2013-07-23 13:05:00,85.1,75.8,29.87,WNW,286,3.3,6.6,74,0.00,,,0.00,928.00,VWS V14.01,2013-07-23 17:05:00,
2013-07-23 13:06:00,85.1,75.4,29.87,WNW,286,1.1,2.2,73,0.00,,,0.00,947.00,VWS V14.01,2013-07-23 17:06:00,
2013-07-23 13:07:00,85.1,76.2,29.87,SW,218,4.4,5.5,75,0.00,,,0.00,998.00,VWS V14.01,2013-07-23 17:07:00,
2013-07-23 13:08:00,85.3,76.1,29.87,SSW,196,4.4,6.6,74,0.00,,,0.00,998.00,VWS V14.01,2013-07-23 17:08:00,
2013-07-23 13:09:00,85.8,76.1,29.87,SSE,150,3.3,5.5,73,0.00,,,0.00,991.00,VWS V14.01,2013-07-23 17:09:00,
2013-07-23 13:10:00,86.2,76.5,29.87,SSW,196,3.3,5.5,73,0.00,,,0.00,995.00,VWS V14.01,2013-07-23 17:10:00,
2013-07-23 13:11:00,86.4,76.4,29.87,West,263,4.4,7.7,72,0.00,,,0.00,1016.00,VWS V14.01,2013-07-23 17:11:00,
2013-07-23 13:12:00,86.6,76.0,29.87,SW,218,3.3,7.7,71,0.00,,,0.00,993.00,VWS V14.01,2013-07-23 17:12:00,
2013-07-23 13:13:00,86.8,76.2,29.86,SW,218,2.2,3.3,71,0.00,,,0.00,1028.00,VWS V14.01,2013-07-23 17:13:00,
2013-07-23 13:14:00,86.8,75.9,29.86,West,263,3.3,5.5,70,0.00,,,0.00,1046.00,VWS V14.01,2013-07-23 17:14:00,
2013-07-23 13:15:00,86.8,76.3,29.86,NNW,330,3.3,5.5,71,0.00,,,0.00,1046.00,VWS V14.01,2013-07-23 17:15:00,
2013-07-23 13:16:00,86.8,75.8,29.86,NW,308,3.3,5.5,70,0.00,,,0.00,1111.00,VWS V14.01,2013-07-23 17:16:00,
2013-07-23 13:17:00,86.7,76.1,29.86,NW,308,3.3,5.5,71,0.00,,,0.00,1111.00,VWS V14.01,2013-07-23 17:17:00,
2013-07-23 13:19:00,86.4,75.9,29.86,NW,308,1.1,4.4,71,0.00,,,0.00,1111.00,VWS V14.01,2013-07-23 17:19:00,
2013-07-23 13:20:00,86.4,75.9,29.86,SW,218,3.3,5.5,71,0.00,,,0.00,1116.00,VWS V14.01,2013-07-23 17:20:00,
2013-07-23 13:21:00,86.6,76.0,29.86,WSW,240,2.2,5.5,71,0.00,,,0.00,1120.00,VWS V14.01,2013-07-23 17:21:00,
2013-07-23 13:22:00,86.8,77.2,29.86,South,173,3.3,5.5,73,0.00,,,0.00,1120.00,VWS V14.01,2013-07-23 17:22:00,
2013-07-23 13:23:00,87.1,76.9,29.86,SW,218,3.3,5.5,72,0.00,,,0.00,1120.00,VWS V14.01,2013-07-23 17:23:00,
2013-07-23 13:24:00,87.1,76.5,29.86,SSW,196,3.3,4.4,71,0.00,,,0.00,1120.00,VWS V14.01,2013-07-23 17:24:00,
2013-07-23 13:25:00,86.9,76.0,29.86,SW,218,4.4,7.7,70,0.00,,,0.00,230.00,VWS V14.01,2013-07-23 17:25:00,
2013-07-23 13:26:00,86.8,76.2,29.86,WSW,240,1.1,3.3,71,0.00,,,0.00,230.00,VWS V14.01,2013-07-23 17:26:00,
2013-07-23 13:27:00,86.4,76.4,29.86,WSW,240,2.2,4.4,72,0.00,,,0.00,230.00,VWS V14.01,2013-07-23 17:27:00,
2013-07-23 13:28:00,86.2,75.8,29.86,WSW,240,1.1,3.3,71,0.00,,,0.00,330.00,VWS V14.01,2013-07-23 17:28:00,
2013-07-23 13:29:00,86.2,76.1,29.86,SSW,196,3.3,6.6,72,0.00,,,0.00,330.00,VWS V14.01,2013-07-23 17:29:00,
2013-07-23 13:30:00,86.2,76.5,29.86,South,173,2.2,4.4,73,0.00,,,0.00,977.00,VWS V14.01,2013-07-23 17:30:00,
2013-07-23 13:31:00,86.4,76.8,29.86,North,353,3.3,5.5,73,0.00,,,0.00,977.00,VWS V14.01,2013-07-23 17:31:00,
2013-07-23 13:32:00,86.7,76.6,29.86,NW,308,1.1,2.2,72,0.00,,,0.00,995.00,VWS V14.01,2013-07-23 17:32:00,
2013-07-23 13:33:00,86.7,76.6,29.86,SSW,196,3.3,4.4,72,0.00,,,0.00,995.00,VWS V14.01,2013-07-23 17:33:00,
2013-07-23 13:34:00,86.8,76.2,29.86,SSW,196,2.2,4.4,71,0.00,,,0.00,304.00,VWS V14.01,2013-07-23 17:34:00,
2013-07-23 13:35:00,86.8,76.7,29.85,South,173,1.1,3.3,72,0.00,,,0.00,304.00,VWS V14.01,2013-07-23 17:35:00,
2013-07-23 13:36:00,86.8,77.2,29.85,NW,308,2.2,5.5,73,0.00,,,0.00,304.00,VWS V14.01,2013-07-23 17:36:00,
2013-07-23 13:37:00,86.8,77.6,29.85,NNW,330,0.0,3.3,74,0.00,,,0.00,304.00,VWS V14.01,2013-07-23 17:37:00,
2013-07-23 13:38:00,86.8,76.2,29.85,SSW,196,1.1,2.2,71,0.00,,,0.00,1076.00,VWS V14.01,2013-07-23 17:38:00,
2013-07-23 13:39:00,86.8,77.6,29.85,South,173,1.1,3.3,74,0.00,,,0.00,1076.00,VWS V14.01,2013-07-23 17:39:00,
2013-07-23 13:40:00,86.9,76.8,29.85,SSW,196,1.1,5.5,72,0.00,,,0.00,1076.00,VWS V14.01,2013-07-23 17:40:00,
2013-07-23 13:41:00,86.9,76.8,29.85,WNW,286,2.2,5.5,72,0.00,,,0.00,1076.00,VWS V14.01,2013-07-23 17:41:00,
2013-07-23 13:42:00,86.9,76.0,29.85,WSW,240,3.3,6.6,70,0.00,,,0.00,1076.00,VWS V14.01,2013-07-23 17:42:00,
2013-07-23 13:43:00,87.1,76.5,29.85,SSW,196,2.2,8.8,71,0.00,,,0.00,1076.00,VWS V14.01,2013-07-23 17:43:00,
2013-07-23 13:44:00,87.1,76.1,29.85,SSW,196,4.4,7.7,70,0.00,,,0.00,1076.00,VWS V14.01,2013-07-23 17:44:00,
2013-07-23 13:45:00,86.9,76.0,29.85,South,173,3.3,5.5,70,0.00,,,0.00,190.00,VWS V14.01,2013-07-23 17:45:00,
2013-07-23 13:46:00,86.9,76.0,29.85,SSW,196,3.3,5.5,70,0.00,,,0.00,207.00,VWS V14.01,2013-07-23 17:46:00,
2013-07-23 13:47:00,86.8,75.8,29.85,WSW,240,3.3,8.8,70,0.00,,,0.00,269.00,VWS V14.01,2013-07-23 17:47:00,
2013-07-23 13:48:00,86.7,76.6,29.85,WSW,240,0.0,1.1,72,0.00,,,0.00,269.00,VWS V14.01,2013-07-23 17:48:00,
2013-07-23 13:49:00,86.6,76.4,29.85,SW,218,1.1,2.2,72,0.00,,,0.00,269.00,VWS V14.01,2013-07-23 17:49:00,
2013-07-23 13:50:00,86.4,76.4,29.85,SW,218,3.3,7.7,72,0.00,,,0.00,279.00,VWS V14.01,2013-07-23 17:50:00,
2013-07-23 13:51:00,86.3,75.4,29.85,SSW,196,2.2,4.4,70,0.00,,,0.00,279.00,VWS V14.01,2013-07-23 17:51:00,
2013-07-23 13:52:00,86.4,75.9,29.85,SW,218,2.2,3.3,71,0.00,,,0.00,279.00,VWS V14.01,2013-07-23 17:52:00,
2013-07-23 13:53:00,86.6,76.0,29.85,SSE,150,1.1,2.2,71,0.00,,,0.00,420.00,VWS V14.01,2013-07-23 17:53:00,
2013-07-23 13:54:00,86.7,76.1,29.85,SE,128,1.1,4.4,71,0.00,,,0.00,420.00,VWS V14.01,2013-07-23 17:54:00,
2013-07-23 13:55:00,86.8,76.2,29.85,West,263,2.2,4.4,71,0.00,,,0.00,420.00,VWS V14.01,2013-07-23 17:55:00,
2013-07-23 13:56:00,86.9,77.2,29.85,SW,218,1.1,3.3,73,0.00,,,0.00,1081.00,VWS V14.01,2013-07-23 17:56:00,
2013-07-23 13:57:00,87.2,77.0,29.85,SW,218,2.2,4.4,72,0.00,,,0.00,287.00,VWS V14.01,2013-07-23 17:57:00,
2013-07-23 13:58:00,87.2,76.7,29.85,WNW,286,2.2,6.6,71,0.00,,,0.00,287.00,VWS V14.01,2013-07-23 17:58:00,
2013-07-23 13:59:00,87.4,76.9,29.85,SSW,196,3.3,6.6,71,0.00,,,0.00,1083.00,VWS V14.01,2013-07-23 17:59:00,
2013-07-23 14:00:00,87.6,77.4,29.85,SSW,196,2.2,7.7,72,0.00,,,0.00,1083.00,VWS V14.01,2013-07-23 18:00:00,
2013-07-23 14:01:00,87.8,77.6,29.85,SSW,196,1.1,2.2,72,0.00,,,0.00,255.00,VWS V14.01,2013-07-23 18:01:00,
2013-07-23 14:02:00,87.9,76.9,29.85,South,173,3.3,5.5,70,0.00,,,0.00,255.00,VWS V14.01,2013-07-23 18:02:00,
2013-07-23 14:03:00,87.8,76.4,29.84,SSW,196,2.2,6.6,69,0.00,,,0.00,255.00,VWS V14.01,2013-07-23 18:03:00,
2013-07-23 14:04:00,87.9,76.1,29.84,SSW,196,0.0,1.1,68,0.00,,,0.00,350.00,VWS V14.01,2013-07-23 18:04:00,
2013-07-23 14:05:00,88.1,77.0,29.84,SSW,196,2.2,5.5,70,0.00,,,0.00,350.00,VWS V14.01,2013-07-23 18:05:00,
2013-07-23 14:06:00,88.2,77.1,29.84,South,173,3.3,6.6,70,0.00,,,0.00,350.00,VWS V14.01,2013-07-23 18:06:00,
2013-07-23 14:07:00,88.2,76.7,29.84,South,173,3.3,7.7,69,0.00,,,0.00,225.00,VWS V14.01,2013-07-23 18:07:00,
2013-07-23 14:08:00,88.1,76.2,29.84,South,173,2.2,4.4,68,0.00,,,0.00,276.00,VWS V14.01,2013-07-23 18:08:00,
2013-07-23 14:09:00,87.8,75.5,29.84,SW,218,1.1,4.4,67,0.00,,,0.00,216.00,VWS V14.01,2013-07-23 18:09:00,
2013-07-23 14:10:00,87.6,75.7,29.84,SW,218,0.0,0.0,68,0.00,,,0.00,195.00,VWS V14.01,2013-07-23 18:10:00,
2013-07-23 14:11:00,87.3,75.9,29.84,NW,308,1.1,3.3,69,0.00,,,0.00,260.00,VWS V14.01,2013-07-23 18:11:00,
2013-07-23 14:12:00,87.2,76.2,29.84,NNW,330,1.1,2.2,70,0.00,,,0.00,260.00,VWS V14.01,2013-07-23 18:12:00,
2013-07-23 14:13:00,87.2,77.4,29.84,SW,218,0.0,3.3,73,0.00,,,0.00,260.00,VWS V14.01,2013-07-23 18:13:00,
2013-07-23 14:14:00,87.2,76.2,29.84,NW,308,1.1,2.2,70,0.00,,,0.00,260.00,VWS V14.01,2013-07-23 18:14:00,
2013-07-23 14:15:00,87.2,76.7,29.84,WSW,240,1.1,3.3,71,0.00,,,0.00,260.00,VWS V14.01,2013-07-23 18:15:00,
2013-07-23 14:16:00,87.4,77.3,29.84,SW,218,1.1,2.2,72,0.00,,,0.00,260.00,VWS V14.01,2013-07-23 18:16:00,
2013-07-23 14:17:00,87.7,76.2,29.84,SSW,196,3.3,5.5,69,0.00,,,0.00,260.00,VWS V14.01,2013-07-23 18:17:00,
2013-07-23 14:18:00,87.8,76.4,29.84,South,173,2.2,5.5,69,0.00,,,0.00,260.00,VWS V14.01,2013-07-23 18:18:00,
2013-07-23 14:19:00,87.8,76.4,29.84,SW,218,3.3,4.4,69,0.00,,,0.00,288.00,VWS V14.01,2013-07-23 18:19:00,
2013-07-23 14:20:00,87.8,75.9,29.84,SW,218,3.3,5.5,68,0.00,,,0.00,288.00,VWS V14.01,2013-07-23 18:20:00,
2013-07-23 14:21:00,87.7,76.7,29.84,North,353,3.3,5.5,70,0.00,,,0.00,972.00,VWS V14.01,2013-07-23 18:21:00,
2013-07-23 14:22:00,87.6,76.6,29.84,North,353,3.3,6.6,70,0.00,,,0.00,944.00,VWS V14.01,2013-07-23 18:22:00,
2013-07-23 14:23:00,87.4,76.9,29.84,NW,308,2.2,4.4,71,0.00,,,0.00,935.00,VWS V14.01,2013-07-23 18:23:00,
2013-07-23 14:24:00,87.6,76.6,29.84,NW,308,0.0,1.1,70,0.00,,,0.00,923.00,VWS V14.01,2013-07-23 18:24:00,
2013-07-23 14:25:00,87.8,77.7,29.84,South,173,1.1,2.2,72,0.00,,,0.00,931.00,VWS V14.01,2013-07-23 18:25:00,
2013-07-23 14:26:00,88.4,78.3,29.84,South,173,1.1,5.5,72,0.00,,,0.00,939.00,VWS V14.01,2013-07-23 18:26:00,
2013-07-23 14:27:00,88.8,77.7,29.84,NW,308,3.3,7.7,70,0.00,,,0.00,939.00,VWS V14.01,2013-07-23 18:27:00,
2013-07-23 14:28:00,88.8,76.9,29.84,NNW,330,2.2,5.5,68,0.00,,,0.00,942.00,VWS V14.01,2013-07-23 18:28:00,
2013-07-23 14:29:00,88.8,76.8,29.84,WSW,240,1.1,3.3,68,0.00,,,0.00,946.00,VWS V14.01,2013-07-23 18:29:00,
2013-07-23 14:30:00,88.7,75.8,29.84,South,173,1.1,3.3,66,0.00,,,0.00,942.00,VWS V14.01,2013-07-23 18:30:00,
2013-07-23 14:31:00,88.6,76.2,29.84,SW,218,2.2,6.6,67,0.00,,,0.00,951.00,VWS V14.01,2013-07-23 18:31:00,
2013-07-23 14:32:00,88.6,75.7,29.84,NNW,330,3.3,7.7,66,0.00,,,0.00,965.00,VWS V14.01,2013-07-23 18:32:00,
2013-07-23 14:33:00,88.7,76.3,29.84,South,173,3.3,5.5,67,0.00,,,0.00,990.00,VWS V14.01,2013-07-23 18:33:00,
2013-07-23 14:34:00,88.8,76.9,29.84,West,263,2.2,4.4,68,0.00,,,0.00,997.00,VWS V14.01,2013-07-23 18:34:00,
2013-07-23 14:35:00,88.9,77.0,29.83,WNW,286,2.2,3.3,68,0.00,,,0.00,997.00,VWS V14.01,2013-07-23 18:35:00,
2013-07-23 14:36:00,88.9,76.1,29.84,NW,308,3.3,6.6,66,0.00,,,0.00,997.00,VWS V14.01,2013-07-23 18:36:00,
2013-07-23 14:37:00,88.8,76.5,29.84,WNW,286,2.2,6.6,67,0.00,,,0.00,940.00,VWS V14.01,2013-07-23 18:37:00,
2013-07-23 14:38:00,88.8,77.7,29.83,SW,218,1.1,2.2,70,0.00,,,0.00,940.00,VWS V14.01,2013-07-23 18:38:00,
2013-07-23 14:39:00,88.7,76.7,29.83,SW,218,0.0,2.2,68,0.00,,,0.00,206.00,VWS V14.01,2013-07-23 18:39:00,
2013-07-23 14:40:00,88.4,76.6,29.83,WNW,286,2.2,4.4,68,0.00,,,0.00,192.00,VWS V14.01,2013-07-23 18:40:00,
2013-07-23 14:41:00,88.2,75.8,29.84,SSW,196,4.4,7.7,67,0.00,,,0.00,195.00,VWS V14.01,2013-07-23 18:41:00,
2013-07-23 14:42:00,87.9,75.6,29.84,SSW,196,2.2,4.4,67,0.00,,,0.00,1014.00,VWS V14.01,2013-07-23 18:42:00,
2013-07-23 14:43:00,88.1,76.2,29.83,NW,308,0.0,3.3,68,0.00,,,0.00,1014.00,VWS V14.01,2013-07-23 18:43:00,
2013-07-23 14:44:00,88.3,76.9,29.84,SSW,196,3.3,5.5,69,0.00,,,0.00,912.00,VWS V14.01,2013-07-23 18:44:00,
2013-07-23 14:45:00,88.4,76.1,29.83,NW,308,3.3,5.5,67,0.00,,,0.00,977.00,VWS V14.01,2013-07-23 18:45:00,
2013-07-23 14:46:00,88.4,75.2,29.84,SSW,196,2.2,4.4,65,0.00,,,0.00,977.00,VWS V14.01,2013-07-23 18:46:00,
2013-07-23 14:47:00,88.3,76.0,29.83,NE,38,1.1,4.4,67,0.00,,,0.00,283.00,VWS V14.01,2013-07-23 18:47:00,
2013-07-23 14:48:00,88.3,76.4,29.83,NNE,16,0.0,2.2,68,0.00,,,0.00,1086.00,VWS V14.01,2013-07-23 18:48:00,
2013-07-23 14:49:00,88.3,76.0,29.83,NW,308,2.2,3.3,67,0.00,,,0.00,1086.00,VWS V14.01,2013-07-23 18:49:00,
2013-07-23 14:50:00,88.3,76.0,29.83,NNW,330,1.1,2.2,67,0.00,,,0.00,1086.00,VWS V14.01,2013-07-23 18:50:00,
2013-07-23 14:51:00,88.4,76.6,29.83,WSW,240,2.2,4.4,68,0.00,,,0.00,241.00,VWS V14.01,2013-07-23 18:51:00,
2013-07-23 14:52:00,88.3,76.4,29.83,NNW,330,1.1,3.3,68,0.00,,,0.00,329.00,VWS V14.01,2013-07-23 18:52:00,
2013-07-23 14:53:00,88.2,75.8,29.83,WNW,286,2.2,5.5,67,0.00,,,0.00,318.00,VWS V14.01,2013-07-23 18:53:00,
2013-07-23 14:54:00,87.9,75.6,29.83,NNW,330,1.1,2.2,67,0.00,,,0.00,254.00,VWS V14.01,2013-07-23 18:54:00,
2013-07-23 14:55:00,87.8,76.0,29.83,WNW,286,2.2,7.7,68,0.00,,,0.00,178.00,VWS V14.01,2013-07-23 18:55:00,
2013-07-23 14:56:00,87.6,76.1,29.83,West,263,3.3,7.7,69,0.00,,,0.00,200.00,VWS V14.01,2013-07-23 18:56:00,
2013-07-23 14:57:00,87.2,75.8,29.83,West,263,0.0,1.1,69,0.00,,,0.00,169.00,VWS V14.01,2013-07-23 18:57:00,
2013-07-23 14:58:00,87.2,76.2,29.83,NE,38,1.1,2.2,70,0.00,,,0.00,156.00,VWS V14.01,2013-07-23 18:58:00,
2013-07-23 14:59:00,86.9,75.6,29.83,WSW,240,1.1,2.2,69,0.00,,,0.00,218.00,VWS V14.01,2013-07-23 18:59:00,
2013-07-23 15:00:00,87.2,77.0,29.83,SSW,196,3.3,4.4,72,0.00,,,0.00,218.00,VWS V14.01,2013-07-23 19:00:00,
2013-07-23 15:01:00,87.2,76.3,29.83,NW,308,2.2,4.4,70,0.00,,,0.00,200.00,VWS V14.01,2013-07-23 19:01:00,
2013-07-23 15:02:00,87.2,76.7,29.83,SSW,196,1.1,2.2,71,0.00,,,0.00,253.00,VWS V14.01,2013-07-23 19:02:00,
2013-07-23 15:03:00,87.2,77.4,29.83,North,353,2.2,5.5,73,0.00,,,0.00,290.00,VWS V14.01,2013-07-23 19:03:00,
2013-07-23 15:04:00,87.2,76.6,29.83,NW,308,0.0,1.1,71,0.00,,,0.00,229.00,VWS V14.01,2013-07-23 19:04:00,
2013-07-23 15:05:00,87.1,76.1,29.83,SSW,196,2.2,5.5,70,0.00,,,0.00,220.00,VWS V14.01,2013-07-23 19:05:00,
2013-07-23 15:06:00,87.1,76.5,29.83,SW,218,1.1,3.3,71,0.00,,,0.00,220.00,VWS V14.01,2013-07-23 19:06:00,
2013-07-23 15:07:00,87.1,76.1,29.83,NW,308,1.1,2.2,70,0.00,,,0.00,211.00,VWS V14.01,2013-07-23 19:07:00,
2013-07-23 15:08:00,87.1,76.5,29.83,SSW,196,2.2,3.3,71,0.00,,,0.00,223.00,VWS V14.01,2013-07-23 19:08:00,
2013-07-23 15:09:00,87.2,76.2,29.83,South,173,1.1,3.3,70,0.00,,,0.00,223.00,VWS V14.01,2013-07-23 19:09:00,
2013-07-23 15:10:00,87.4,76.9,29.83,SSW,196,2.2,3.3,71,0.00,,,0.00,824.00,VWS V14.01,2013-07-23 19:10:00,
2013-07-23 15:11:00,87.9,77.4,29.83,SW,218,3.3,4.4,71,0.00,,,0.00,754.00,VWS V14.01,2013-07-23 19:11:00,
2013-07-23 15:12:00,88.3,76.4,29.83,SW,218,3.3,5.5,68,0.00,,,0.00,195.00,VWS V14.01,2013-07-23 19:12:00,
2013-07-23 15:13:00,88.4,76.6,29.83,SSW,196,2.2,4.4,68,0.00,,,0.00,202.00,VWS V14.01,2013-07-23 19:13:00,
2013-07-23 15:14:00,88.3,77.3,29.83,WNW,286,1.1,3.3,70,0.00,,,0.00,239.00,VWS V14.01,2013-07-23 19:14:00,
2013-07-23 15:15:00,88.2,76.7,29.83,SSW,196,2.2,5.5,69,0.00,,,0.00,257.00,VWS V14.01,2013-07-23 19:15:00,
2013-07-23 15:16:00,88.1,76.2,29.83,WSW,240,2.2,4.4,68,0.00,,,0.00,269.00,VWS V14.01,2013-07-23 19:16:00,
2013-07-23 15:17:00,87.9,76.1,29.83,WSW,240,0.0,1.1,68,0.00,,,0.00,269.00,VWS V14.01,2013-07-23 19:17:00,
2013-07-23 15:18:00,87.9,76.9,29.83,South,173,0.0,3.3,70,0.00,,,0.00,269.00,VWS V14.01,2013-07-23 19:18:00,
2013-07-23 15:19:00,87.9,76.9,29.83,SW,218,2.2,4.4,70,0.00,,,0.00,197.00,VWS V14.01,2013-07-23 19:19:00,
2013-07-23 15:20:00,87.9,76.1,29.83,SSW,196,5.5,7.7,68,0.00,,,0.00,186.00,VWS V14.01,2013-07-23 19:20:00,
2013-07-23 15:21:00,87.8,76.4,29.83,WSW,240,2.2,4.4,69,0.00,,,0.00,213.00,VWS V14.01,2013-07-23 19:21:00,
2013-07-23 15:22:00,87.8,75.9,29.83,South,173,1.1,4.4,68,0.00,,,0.00,197.00,VWS V14.01,2013-07-23 19:22:00,
2013-07-23 15:23:00,87.7,76.7,29.82,South,173,0.0,1.1,70,0.00,,,0.00,190.00,VWS V14.01,2013-07-23 19:23:00,
2013-07-23 15:24:00,87.6,76.6,29.82,South,173,0.0,1.1,70,0.00,,,0.00,185.00,VWS V14.01,2013-07-23 19:24:00,
2013-07-23 15:25:00,87.4,76.5,29.82,NW,308,0.0,2.2,70,0.00,,,0.00,251.00,VWS V14.01,2013-07-23 19:25:00,
2013-07-23 15:26:00,87.2,77.1,29.82,NW,308,0.0,1.1,72,0.00,,,0.00,251.00,VWS V14.01,2013-07-23 19:26:00,
2013-07-23 15:27:00,87.3,77.6,29.82,WNW,286,1.1,3.3,73,0.00,,,0.00,251.00,VWS V14.01,2013-07-23 19:27:00,
2013-07-23 15:28:00,87.2,75.8,29.82,SSW,196,1.1,2.2,69,0.00,,,0.00,190.00,VWS V14.01,2013-07-23 19:28:00,
2013-07-23 15:29:00,87.2,76.2,29.82,SW,218,0.0,1.1,70,0.00,,,0.00,256.00,VWS V14.01,2013-07-23 19:29:00,
2013-07-23 15:30:00,87.1,76.1,29.82,South,173,3.3,5.5,70,0.00,,,0.00,320.00,VWS V14.01,2013-07-23 19:30:00,
2013-07-23 15:31:00,87.1,76.1,29.82,SSW,196,1.1,3.3,70,0.00,,,0.00,320.00,VWS V14.01,2013-07-23 19:31:00,
2013-07-23 15:32:00,87.2,77.0,29.82,West,263,0.0,1.1,72,0.00,,,0.00,932.00,VWS V14.01,2013-07-23 19:32:00,
2013-07-23 15:33:00,87.3,77.2,29.82,West,263,1.1,2.2,72,0.00,,,0.00,902.00,VWS V14.01,2013-07-23 19:33:00,
2013-07-23 15:34:00,87.6,76.6,29.82,NW,308,1.1,2.2,70,0.00,,,0.00,902.00,VWS V14.01,2013-07-23 19:34:00,
2013-07-23 15:35:00,87.8,77.6,29.82,NW,308,1.1,4.4,72,0.00,,,0.00,888.00,VWS V14.01,2013-07-23 19:35:00,
2013-07-23 15:36:00,87.9,76.9,29.82,NW,308,3.3,6.6,70,0.00,,,0.00,893.00,VWS V14.01,2013-07-23 19:36:00,
2013-07-23 15:37:00,88.2,76.7,29.82,North,353,3.3,7.7,69,0.00,,,0.00,877.00,VWS V14.01,2013-07-23 19:37:00,
2013-07-23 15:38:00,88.2,76.8,29.82,NW,308,2.2,4.4,69,0.00,,,0.00,874.00,VWS V14.01,2013-07-23 19:38:00,
2013-07-23 15:39:00,88.4,76.6,29.82,NW,308,2.2,3.3,68,0.00,,,0.00,844.00,VWS V14.01,2013-07-23 19:39:00,
2013-07-23 15:40:00,88.6,77.1,29.82,NNE,16,1.1,2.2,69,0.00,,,0.00,835.00,VWS V14.01,2013-07-23 19:40:00,
2013-07-23 15:41:00,88.8,77.4,29.82,NNE,16,0.0,1.1,69,0.00,,,0.00,822.00,VWS V14.01,2013-07-23 19:41:00,
2013-07-23 15:42:00,89.1,78.0,29.82,SW,218,1.1,5.5,70,0.00,,,0.00,810.00,VWS V14.01,2013-07-23 19:42:00,
2013-07-23 15:43:00,89.2,76.3,29.82,South,173,3.3,6.6,66,0.00,,,0.00,821.00,VWS V14.01,2013-07-23 19:43:00,
2013-07-23 15:44:00,89.2,75.9,29.82,SW,218,1.1,3.3,65,0.00,,,0.00,824.00,VWS V14.01,2013-07-23 19:44:00,
2013-07-23 15:45:00,89.6,76.7,29.82,SW,218,2.2,3.3,66,0.00,,,0.00,835.00,VWS V14.01,2013-07-23 19:45:00,
2013-07-23 15:46:00,89.8,76.4,29.82,SSW,196,2.2,5.5,65,0.00,,,0.00,838.00,VWS V14.01,2013-07-23 19:46:00,
2013-07-23 15:47:00,89.8,76.9,29.82,WSW,240,1.1,3.3,66,0.00,,,0.00,838.00,VWS V14.01,2013-07-23 19:47:00,
2013-07-23 15:48:00,89.8,77.3,29.82,SW,218,4.4,5.5,67,0.00,,,0.00,849.00,VWS V14.01,2013-07-23 19:48:00,
2013-07-23 15:49:00,89.8,76.9,29.82,WSW,240,1.1,4.4,66,0.00,,,0.00,849.00,VWS V14.01,2013-07-23 19:49:00,
2013-07-23 15:50:00,89.8,76.4,29.82,West,263,2.2,4.4,65,0.00,,,0.00,849.00,VWS V14.01,2013-07-23 19:50:00,
2013-07-23 15:51:00,89.6,76.2,29.82,WSW,240,1.1,3.3,65,0.00,,,0.00,849.00,VWS V14.01,2013-07-23 19:51:00,
2013-07-23 15:52:00,89.3,76.5,29.82,West,263,1.1,3.3,66,0.00,,,0.00,237.00,VWS V14.01,2013-07-23 19:52:00,
2013-07-23 15:53:00,89.2,76.9,29.82,WSW,240,3.3,5.5,67,0.00,,,0.00,237.00,VWS V14.01,2013-07-23 19:53:00,
2013-07-23 15:54:00,89.2,76.4,29.82,SSW,196,3.3,7.7,66,0.00,,,0.00,241.00,VWS V14.01,2013-07-23 19:54:00,
2013-07-23 15:55:00,89.2,76.4,29.82,NNW,330,2.2,7.7,66,0.00,,,0.00,241.00,VWS V14.01,2013-07-23 19:55:00,
2013-07-23 15:56:00,89.1,76.2,29.82,NNW,330,1.1,3.3,66,0.00,,,0.00,241.00,VWS V14.01,2013-07-23 19:56:00,
2013-07-23 15:57:00,88.8,76.0,29.82,WSW,240,1.1,2.2,66,0.00,,,0.00,241.00,VWS V14.01,2013-07-23 19:57:00,
2013-07-23 15:58:00,88.8,75.9,29.82,SSW,196,3.3,5.5,66,0.00,,,0.00,195.00,VWS V14.01,2013-07-23 19:58:00,
2013-07-23 15:59:00,88.4,75.2,29.82,SSW,196,2.2,4.4,65,0.00,,,0.00,191.00,VWS V14.01,2013-07-23 19:59:00,
2013-07-23 16:00:00,88.3,76.0,29.82,SSE,150,3.3,5.5,67,0.00,,,0.00,265.00,VWS V14.01,2013-07-23 20:00:00,
2013-07-23 16:01:00,88.2,75.9,29.82,SSE,150,1.1,3.3,67,0.00,,,0.00,200.00,VWS V14.01,2013-07-23 20:01:00,
2013-07-23 16:02:00,88.1,75.7,29.82,NW,308,2.2,4.4,67,0.00,,,0.00,186.00,VWS V14.01,2013-07-23 20:02:00,
2013-07-23 16:03:00,87.8,76.4,29.82,ESE,106,2.2,4.4,69,0.00,,,0.00,193.00,VWS V14.01,2013-07-23 20:03:00,
2013-07-23 16:04:00,87.8,75.9,29.82,SW,218,1.1,3.3,68,0.00,,,0.00,217.00,VWS V14.01,2013-07-23 20:04:00,
2013-07-23 16:05:00,87.8,76.4,29.82,SW,218,0.0,1.1,69,0.00,,,0.00,223.00,VWS V14.01,2013-07-23 20:05:00,
2013-07-23 16:08:00,87.8,76.4,29.82,SW,218,0.0,1.1,69,0.00,,,0.00,223.00,VWS V14.01,2013-07-23 20:08:00,
2013-07-23 16:09:00,88.2,76.8,29.82,West,268,1.1,1.1,69,0.00,,,0.00,765.00,VWS V14.01,2013-07-23 20:09:00,
2013-07-23 16:10:00,88.6,78.4,29.81,SE,135,1.1,2.2,72,0.00,,,0.00,726.00,VWS V14.01,2013-07-23 20:10:00,
2013-07-23 16:11:00,88.6,78.4,29.81,SE,135,1.1,1.1,72,0.00,,,0.00,726.00,VWS V14.01,2013-07-23 20:11:00,
2013-07-23 16:12:00,89.1,77.1,29.82,NW,322,2.2,3.3,68,0.00,,,0.00,744.00,VWS V14.01,2013-07-23 20:12:00,
2013-07-23 16:13:00,89.2,76.9,29.81,SSW,210,2.2,4.4,67,0.00,,,0.00,789.00,VWS V14.01,2013-07-23 20:13:00,
2013-07-23 16:14:00,89.2,77.3,29.81,West,275,3.3,4.4,68,0.00,,,0.00,789.00,VWS V14.01,2013-07-23 20:14:00,
2013-07-23 16:15:00,89.3,77.8,29.81,NW,304,0.0,3.3,69,0.00,,,0.00,793.00,VWS V14.01,2013-07-23 20:15:00,
2013-07-23 16:16:00,89.3,76.5,29.81,SW,232,0.0,2.2,66,0.00,,,0.00,793.00,VWS V14.01,2013-07-23 20:16:00,
2013-07-23 16:17:00,89.2,75.9,29.81,South,184,3.3,4.4,65,0.00,,,0.00,793.00,VWS V14.01,2013-07-23 20:17:00,
2013-07-23 16:18:00,89.4,76.1,29.81,WSW,237,0.0,5.5,65,0.00,,,0.00,793.00,VWS V14.01,2013-07-23 20:18:00,
2013-07-23 16:19:00,89.6,76.2,29.81,WNW,296,1.1,1.1,65,0.00,,,0.00,793.00,VWS V14.01,2013-07-23 20:19:00,
2013-07-23 16:20:00,89.6,77.6,29.81,WNW,296,0.0,1.1,68,0.00,,,0.00,793.00,VWS V14.01,2013-07-23 20:20:00,
2013-07-23 16:21:00,89.7,76.8,29.81,NNW,336,5.5,5.5,66,0.00,,,0.00,693.00,VWS V14.01,2013-07-23 20:21:00,
2013-07-23 16:22:00,89.7,76.8,29.81,WNW,289,1.1,6.6,66,0.00,,,0.00,628.00,VWS V14.01,2013-07-23 20:22:00,
2013-07-23 16:23:00,89.6,78.0,29.81,NE,53,1.1,6.6,69,0.00,,,0.00,626.00,VWS V14.01,2013-07-23 20:23:00,
2013-07-23 16:24:00,89.6,76.2,29.81,WSW,251,0.0,3.3,65,0.00,,,0.00,626.00,VWS V14.01,2013-07-23 20:24:00,
2013-07-23 16:25:00,89.2,75.9,29.81,ENE,74,1.1,4.4,65,0.00,,,0.00,144.00,VWS V14.01,2013-07-23 20:25:00,
2013-07-23 16:26:00,89.1,75.8,29.81,NNW,334,1.1,5.5,65,0.00,,,0.00,139.00,VWS V14.01,2013-07-23 20:26:00,
2013-07-23 16:27:00,88.8,75.6,29.81,North,358,1.1,2.2,65,0.00,,,0.00,160.00,VWS V14.01,2013-07-23 20:27:00,
2013-07-23 16:28:00,88.7,76.3,29.81,NW,321,2.2,3.3,67,0.00,,,0.00,225.00,VWS V14.01,2013-07-23 20:28:00,
2013-07-23 16:29:00,88.2,75.9,29.81,West,272,4.4,4.4,67,0.00,,,0.00,225.00,VWS V14.01,2013-07-23 20:29:00,
2013-07-23 16:30:00,88.1,75.7,29.81,WNW,297,0.0,3.3,67,0.00,,,0.00,714.00,VWS V14.01,2013-07-23 20:30:00,
2013-07-23 16:31:00,87.9,76.1,29.81,WNW,283,1.1,3.3,68,0.00,,,0.00,649.00,VWS V14.01,2013-07-23 20:31:00,
2013-07-23 16:32:00,88.1,77.0,29.81,WNW,288,1.1,1.1,70,0.00,,,0.00,656.00,VWS V14.01,2013-07-23 20:32:00,
2013-07-23 16:33:00,88.2,76.4,29.81,NNE,13,2.2,6.6,68,0.00,,,0.00,689.00,VWS V14.01,2013-07-23 20:33:00,
2013-07-23 16:34:00,88.3,76.4,29.81,SW,216,2.2,3.3,68,0.00,,,0.00,712.00,VWS V14.01,2013-07-23 20:34:00,
2013-07-23 16:35:00,88.7,77.2,29.81,WSW,241,1.1,2.2,69,0.00,,,0.00,707.00,VWS V14.01,2013-07-23 20:35:00,
2013-07-23 16:36:00,88.9,77.0,29.81,SW,233,3.3,3.3,68,0.00,,,0.00,700.00,VWS V14.01,2013-07-23 20:36:00,
2013-07-23 16:37:00,89.2,75.8,29.81,WSW,250,5.5,7.7,65,0.00,,,0.00,680.00,VWS V14.01,2013-07-23 20:37:00,
2013-07-23 16:38:00,89.3,77.0,29.81,NNW,336,0.0,5.5,67,0.00,,,0.00,682.00,VWS V14.01,2013-07-23 20:38:00,
2013-07-23 16:39:00,89.6,76.2,29.81,WSW,248,3.3,8.8,65,0.00,,,0.00,682.00,VWS V14.01,2013-07-23 20:39:00,
2013-07-23 16:40:00,89.8,76.4,29.81,WNW,293,2.2,5.5,65,0.00,,,0.00,647.00,VWS V14.01,2013-07-23 20:40:00,
2013-07-23 16:41:00,89.8,76.4,29.81,West,270,2.2,3.3,65,0.00,,,0.00,664.00,VWS V14.01,2013-07-23 20:41:00,
2013-07-23 16:42:00,89.8,75.5,29.81,West,266,2.2,6.6,63,0.00,,,0.00,659.00,VWS V14.01,2013-07-23 20:42:00,
2013-07-23 16:43:00,89.7,76.8,29.81,NNW,348,1.1,4.4,66,0.00,,,0.00,652.00,VWS V14.01,2013-07-23 20:43:00,
2013-07-23 16:44:00,89.7,76.8,29.81,NNW,348,0.0,4.4,66,0.00,,,0.00,652.00,VWS V14.01,2013-07-23 20:44:00,
2013-07-23 16:45:00,89.8,77.3,29.81,NNW,348,0.0,1.1,67,0.00,,,0.00,650.00,VWS V14.01,2013-07-23 20:45:00,
2013-07-23 16:46:00,89.8,77.4,29.80,SSW,203,5.5,5.5,67,0.00,,,0.00,638.00,VWS V14.01,2013-07-23 20:46:00,
2013-07-23 16:47:00,89.9,76.6,29.81,South,182,4.4,5.5,65,0.00,,,0.00,635.00,VWS V14.01,2013-07-23 20:47:00,
2013-07-23 16:48:00,90.2,77.3,29.80,SW,233,3.3,6.6,66,0.00,,,0.00,628.00,VWS V14.01,2013-07-23 20:48:00,
2013-07-23 16:49:00,90.2,76.4,29.80,WSW,254,1.1,6.6,64,0.00,,,0.00,628.00,VWS V14.01,2013-07-23 20:49:00,
2013-07-23 16:50:00,90.2,76.9,29.80,SW,235,0.0,3.3,65,0.00,,,0.00,628.00,VWS V14.01,2013-07-23 20:50:00,
2013-07-23 16:51:00,90.2,76.9,29.80,WSW,243,1.1,4.4,65,0.00,,,0.00,631.00,VWS V14.01,2013-07-23 20:51:00,
2013-07-23 16:52:00,90.2,76.9,29.80,North,4,0.0,2.2,65,0.00,,,0.00,631.00,VWS V14.01,2013-07-23 20:52:00,
2013-07-23 16:53:00,90.2,76.8,29.80,SE,137,6.6,6.6,65,0.00,,,0.00,631.00,VWS V14.01,2013-07-23 20:53:00,
2013-07-23 16:54:00,90.1,76.2,29.80,SSE,156,2.2,8.8,64,0.00,,,0.00,631.00,VWS V14.01,2013-07-23 20:54:00,
2013-07-23 16:55:00,89.8,76.4,29.80,SW,216,1.1,4.4,65,0.00,,,0.00,137.00,VWS V14.01,2013-07-23 20:55:00,
2013-07-23 16:56:00,89.6,77.2,29.80,SW,216,0.0,1.1,67,0.00,,,0.00,137.00,VWS V14.01,2013-07-23 20:56:00,
2013-07-23 16:57:00,89.3,76.5,29.80,South,184,3.3,3.3,66,0.00,,,0.00,510.00,VWS V14.01,2013-07-23 20:57:00,
2013-07-23 16:58:00,89.2,75.8,29.80,South,185,0.0,5.5,65,0.00,,,0.00,144.00,VWS V14.01,2013-07-23 20:58:00,
2013-07-23 16:59:00,89.1,75.8,29.80,SW,225,1.1,3.3,65,0.00,,,0.00,144.00,VWS V14.01,2013-07-23 20:59:00,
2013-07-23 17:00:00,89.1,75.8,29.80,SSW,210,3.3,3.3,65,0.00,,,0.00,144.00,VWS V14.01,2013-07-23 21:00:00,
2013-07-23 17:01:00,89.2,75.4,29.80,SSW,194,1.1,5.5,64,0.00,,,0.00,605.00,VWS V14.01,2013-07-23 21:01:00,
2013-07-23 17:02:00,89.2,75.9,29.80,South,179,2.2,4.4,65,0.00,,,0.00,599.00,VWS V14.01,2013-07-23 21:02:00,
2013-07-23 17:03:00,89.4,76.1,29.80,SW,214,6.6,6.6,65,0.00,,,0.00,575.00,VWS V14.01,2013-07-23 21:03:00,
2013-07-23 17:04:00,89.7,75.9,29.80,SSE,166,3.3,3.3,64,0.00,,,0.00,543.00,VWS V14.01,2013-07-23 21:04:00,
2013-07-23 17:05:00,89.8,76.4,29.80,SW,231,1.1,3.3,65,0.00,,,0.00,559.00,VWS V14.01,2013-07-23 21:05:00,
2013-07-23 17:06:00,89.8,76.9,29.80,SW,222,0.0,1.1,66,0.00,,,0.00,543.00,VWS V14.01,2013-07-23 21:06:00,
2013-07-23 17:07:00,89.8,76.4,29.80,SSW,194,1.1,2.2,65,0.00,,,0.00,443.00,VWS V14.01,2013-07-23 21:07:00,
2013-07-23 17:08:00,89.8,76.4,29.80,NW,314,1.1,4.4,65,0.00,,,0.00,457.00,VWS V14.01,2013-07-23 21:08:00,
2013-07-23 17:09:00,89.7,76.8,29.80,SE,140,3.3,3.3,66,0.00,,,0.00,452.00,VWS V14.01,2013-07-23 21:09:00,
2013-07-23 17:10:00,89.7,76.8,29.80,South,170,1.1,4.4,66,0.00,,,0.00,452.00,VWS V14.01,2013-07-23 21:10:00,
2013-07-23 17:11:00,89.7,75.9,29.80,NNW,333,1.1,4.4,64,0.00,,,0.00,325.00,VWS V14.01,2013-07-23 21:11:00,
2013-07-23 17:12:00,89.6,76.2,29.80,North,353,4.4,4.4,65,0.00,,,0.00,353.00,VWS V14.01,2013-07-23 21:12:00,
2013-07-23 17:13:00,89.6,76.2,29.80,WNW,289,0.0,4.4,65,0.00,,,0.00,401.00,VWS V14.01,2013-07-23 21:13:00,
2013-07-23 17:14:00,89.2,75.9,29.80,ESE,106,2.2,2.2,65,0.00,,,0.00,425.00,VWS V14.01,2013-07-23 21:14:00,
2013-07-23 17:15:00,89.2,75.8,29.80,South,191,2.2,5.5,65,0.00,,,0.00,587.00,VWS V14.01,2013-07-23 21:15:00,
2013-07-23 17:16:00,89.2,75.9,29.80,SSE,155,0.0,3.3,65,0.00,,,0.00,564.00,VWS V14.01,2013-07-23 21:16:00,
2013-07-23 17:17:00,89.2,75.5,29.80,SSW,192,0.0,0.0,64,0.00,,,0.00,582.00,VWS V14.01,2013-07-23 21:17:00,
2013-07-23 17:18:00,89.3,76.0,29.80,WSW,252,2.2,5.5,65,0.00,,,0.00,573.00,VWS V14.01,2013-07-23 21:18:00,
2013-07-23 17:19:00,89.4,76.6,29.80,WSW,248,1.1,1.1,66,0.00,,,0.00,601.00,VWS V14.01,2013-07-23 21:19:00,
2013-07-23 17:20:00,89.4,76.1,29.80,West,261,3.3,3.3,65,0.00,,,0.00,601.00,VWS V14.01,2013-07-23 21:20:00,
2013-07-23 17:21:00,89.4,76.1,29.80,SSE,149,1.1,3.3,65,0.00,,,0.00,578.00,VWS V14.01,2013-07-23 21:21:00,
2013-07-23 17:22:00,89.6,77.2,29.80,South,186,1.1,2.2,67,0.00,,,0.00,570.00,VWS V14.01,2013-07-23 21:22:00,
2013-07-23 17:23:00,89.8,76.9,29.80,SSW,194,0.0,2.2,66,0.00,,,0.00,517.00,VWS V14.01,2013-07-23 21:23:00,
2013-07-23 17:24:00,90.1,77.2,29.80,South,171,5.5,7.7,66,0.00,,,0.00,589.00,VWS V14.01,2013-07-23 21:24:00,
2013-07-23 17:25:00,90.2,76.8,29.80,South,177,3.3,7.7,65,0.00,,,0.00,589.00,VWS V14.01,2013-07-23 21:25:00,
2013-07-23 17:26:00,90.2,76.4,29.80,SSW,208,0.0,3.3,64,0.00,,,0.00,568.00,VWS V14.01,2013-07-23 21:26:00,
2013-07-23 17:27:00,90.3,77.9,29.80,SSE,150,6.6,6.6,67,0.00,,,0.00,557.00,VWS V14.01,2013-07-23 21:27:00,
2013-07-23 17:28:00,90.2,76.0,29.80,SE,138,6.6,6.6,63,0.00,,,0.00,526.00,VWS V14.01,2013-07-23 21:28:00,
2013-07-23 17:29:00,90.2,75.9,29.79,SSE,149,0.0,3.3,63,0.00,,,0.00,533.00,VWS V14.01,2013-07-23 21:29:00,
2013-07-23 17:30:00,90.2,76.3,29.79,SSW,204,2.2,3.3,64,0.00,,,0.00,533.00,VWS V14.01,2013-07-23 21:30:00,
2013-07-23 17:31:00,90.2,76.3,29.80,SSW,193,0.0,2.2,64,0.00,,,0.00,480.00,VWS V14.01,2013-07-23 21:31:00,
2013-07-23 17:32:00,90.2,76.8,29.80,South,173,2.2,3.3,65,0.00,,,0.00,408.00,VWS V14.01,2013-07-23 21:32:00,
2013-07-23 17:33:00,90.2,76.4,29.80,SW,214,0.0,3.3,64,0.00,,,0.00,408.00,VWS V14.01,2013-07-23 21:33:00,
2013-07-23 17:34:00,90.2,76.4,29.80,SSW,196,2.2,2.2,64,0.00,,,0.00,197.00,VWS V14.01,2013-07-23 21:34:00,
2013-07-23 17:35:00,90.2,76.3,29.80,SSW,196,0.0,2.2,64,0.00,,,0.00,241.00,VWS V14.01,2013-07-23 21:35:00,
2013-07-23 17:36:00,90.1,76.2,29.80,SSW,208,1.1,6.6,64,0.00,,,0.00,267.00,VWS V14.01,2013-07-23 21:36:00,
2013-07-23 17:37:00,90.1,76.2,29.80,SSW,208,1.1,5.5,64,0.00,,,0.00,209.00,VWS V14.01,2013-07-23 21:37:00,
2013-07-23 17:38:00,90.1,77.2,29.79,WSW,255,3.3,3.3,66,0.00,,,0.00,169.00,VWS V14.01,2013-07-23 21:38:00,
2013-07-23 17:39:00,89.8,75.6,29.80,SSW,198,6.6,6.6,63,0.00,,,0.00,158.00,VWS V14.01,2013-07-23 21:39:00,
2013-07-23 17:40:00,89.8,75.5,29.80,SW,235,1.1,6.6,63,0.00,,,0.00,156.00,VWS V14.01,2013-07-23 21:40:00,
2013-07-23 17:42:00,89.4,75.2,29.80,WNW,300,2.2,6.6,63,0.00,,,0.00,125.00,VWS V14.01,2013-07-23 21:42:00,
2013-07-23 17:43:00,89.3,76.0,29.80,SE,146,3.3,5.5,65,0.00,,,0.00,121.00,VWS V14.01,2013-07-23 21:43:00,
2013-07-23 17:44:00,89.2,76.4,29.80,West,267,3.3,3.3,66,0.00,,,0.00,125.00,VWS V14.01,2013-07-23 21:44:00,
2013-07-23 17:45:00,89.2,76.3,29.80,SW,231,2.2,3.3,66,0.00,,,0.00,123.00,VWS V14.01,2013-07-23 21:45:00,
2013-07-23 17:46:00,89.2,75.4,29.80,SSW,212,0.0,2.2,64,0.00,,,0.00,120.00,VWS V14.01,2013-07-23 21:46:00,
2013-07-23 17:47:00,89.2,75.8,29.79,SSW,212,0.0,0.0,65,0.00,,,0.00,118.00,VWS V14.01,2013-07-23 21:47:00,
2013-07-23 17:48:00,89.2,75.8,29.79,NNE,21,3.3,4.4,65,0.00,,,0.00,113.00,VWS V14.01,2013-07-23 21:48:00,
2013-07-23 17:49:00,89.1,75.3,29.79,NNW,331,2.2,3.3,64,0.00,,,0.00,107.00,VWS V14.01,2013-07-23 21:49:00,
2013-07-23 17:50:00,89.1,75.3,29.79,NNW,331,2.2,3.3,64,0.00,,,0.00,107.00,VWS V14.01,2013-07-23 21:50:00,
2013-07-23 17:51:00,88.9,75.7,29.80,NNW,331,0.0,2.2,65,0.00,,,0.00,113.00,VWS V14.01,2013-07-23 21:51:00,
2013-07-23 17:52:00,88.9,76.1,29.80,WNW,297,1.1,1.1,66,0.00,,,0.00,111.00,VWS V14.01,2013-07-23 21:52:00,
2013-07-23 17:53:00,88.8,76.5,29.80,SSW,196,1.1,4.4,67,0.00,,,0.00,105.00,VWS V14.01,2013-07-23 21:53:00,
2013-07-23 17:54:00,88.8,75.6,29.80,SSW,208,3.3,4.4,65,0.00,,,0.00,98.00,VWS V14.01,2013-07-23 21:54:00,
2013-07-23 17:55:00,88.8,75.6,29.80,WNW,299,2.2,4.4,65,0.00,,,0.00,98.00,VWS V14.01,2013-07-23 21:55:00,
2013-07-23 17:56:00,88.8,75.5,29.80,SSW,203,2.2,6.6,65,0.00,,,0.00,98.00,VWS V14.01,2013-07-23 21:56:00,
2013-07-23 17:57:00,88.7,75.4,29.80,WSW,245,1.1,4.4,65,0.00,,,0.00,102.00,VWS V14.01,2013-07-23 21:57:00,
2013-07-23 17:58:00,88.6,75.8,29.80,SW,234,0.0,5.5,66,0.00,,,0.00,107.00,VWS V14.01,2013-07-23 21:58:00,
2013-07-23 17:59:00,88.4,75.7,29.79,SSW,210,0.0,1.1,66,0.00,,,0.00,105.00,VWS V14.01,2013-07-23 21:59:00,
2013-07-23 18:00:00,88.4,76.1,29.79,SSW,210,0.0,1.1,67,0.00,,,0.00,105.00,VWS V14.01,2013-07-23 22:00:00,
2013-07-23 18:01:00,88.3,76.4,29.79,SW,222,0.0,1.1,68,0.00,,,0.00,109.00,VWS V14.01,2013-07-23 22:01:00,
2013-07-23 18:02:00,88.2,77.2,29.79,WNW,293,1.1,1.1,70,0.00,,,0.00,116.00,VWS V14.01,2013-07-23 22:02:00,
2013-07-23 18:03:00,88.2,76.3,29.79,West,278,0.0,1.1,68,0.00,,,0.00,118.00,VWS V14.01,2013-07-23 22:03:00,
2013-07-23 18:04:00,88.1,76.2,29.79,WNW,283,1.1,5.5,68,0.00,,,0.00,114.00,VWS V14.01,2013-07-23 22:04:00,
2013-07-23 18:05:00,88.1,76.2,29.79,WNW,283,1.1,5.5,68,0.00,,,0.00,114.00,VWS V14.01,2013-07-23 22:05:00,
2013-07-23 18:06:00,88.1,76.6,29.79,SSW,197,0.0,2.2,69,0.00,,,0.00,116.00,VWS V14.01,2013-07-23 22:06:00,
2013-07-23 18:07:00,88.2,76.3,29.79,South,179,3.3,3.3,68,0.00,,,0.00,118.00,VWS V14.01,2013-07-23 22:07:00,
2013-07-23 18:08:00,88.2,76.3,29.79,South,185,2.2,3.3,68,0.00,,,0.00,139.00,VWS V14.01,2013-07-23 22:08:00,
2013-07-23 18:09:00,88.2,76.3,29.79,SSW,211,1.1,3.3,68,0.00,,,0.00,158.00,VWS V14.01,2013-07-23 22:09:00,
2013-07-23 18:10:00,88.1,75.7,29.79,SSW,195,3.3,3.3,67,0.00,,,0.00,148.00,VWS V14.01,2013-07-23 22:10:00,
2013-07-23 18:11:00,88.1,75.7,29.79,SSW,195,0.0,3.3,67,0.00,,,0.00,120.00,VWS V14.01,2013-07-23 22:11:00,
2013-07-23 18:12:00,88.2,75.8,29.79,South,178,5.5,5.5,67,0.00,,,0.00,113.00,VWS V14.01,2013-07-23 22:12:00,
2013-07-23 18:13:00,88.2,75.8,29.79,South,174,0.0,7.7,67,0.00,,,0.00,107.00,VWS V14.01,2013-07-23 22:13:00,
2013-07-23 18:14:00,88.1,75.7,29.79,SW,216,2.2,2.2,67,0.00,,,0.00,88.00,VWS V14.01,2013-07-23 22:14:00,
2013-07-23 18:15:00,88.1,76.2,29.79,SSW,204,3.3,3.3,68,0.00,,,0.00,98.00,VWS V14.01,2013-07-23 22:15:00,
2013-07-23 18:16:00,87.9,75.6,29.79,SSW,208,0.0,3.3,67,0.00,,,0.00,104.00,VWS V14.01,2013-07-23 22:16:00,
2013-07-23 18:17:00,87.8,76.0,29.79,SSW,208,0.0,1.1,68,0.00,,,0.00,105.00,VWS V14.01,2013-07-23 22:17:00,
2013-07-23 18:18:00,87.8,76.0,29.79,SW,227,3.3,6.6,68,0.00,,,0.00,104.00,VWS V14.01,2013-07-23 22:18:00,
2013-07-23 18:19:00,87.8,75.9,29.79,SW,222,0.0,3.3,68,0.00,,,0.00,102.00,VWS V14.01,2013-07-23 22:19:00,
2013-07-23 18:20:00,87.7,75.8,29.79,WSW,245,2.2,2.2,68,0.00,,,0.00,107.00,VWS V14.01,2013-07-23 22:20:00,
2013-07-23 18:21:00,87.6,75.7,29.79,SSW,210,5.5,5.5,68,0.00,,,0.00,109.00,VWS V14.01,2013-07-23 22:21:00,
2013-07-23 18:22:00,87.6,76.1,29.79,South,191,2.2,7.7,69,0.00,,,0.00,107.00,VWS V14.01,2013-07-23 22:22:00,
2013-07-23 18:23:00,87.7,75.8,29.79,South,177,0.0,2.2,68,0.00,,,0.00,109.00,VWS V14.01,2013-07-23 22:23:00,
2013-07-23 18:24:00,87.7,76.2,29.79,WSW,252,4.4,4.4,69,0.00,,,0.00,113.00,VWS V14.01,2013-07-23 22:24:00,
2013-07-23 18:25:00,87.8,75.9,29.79,South,179,1.1,1.1,68,0.00,,,0.00,139.00,VWS V14.01,2013-07-23 22:25:00,
2013-07-23 18:26:00,87.8,75.9,29.79,SSW,202,2.2,4.4,68,0.00,,,0.00,139.00,VWS V14.01,2013-07-23 22:26:00,
2013-07-23 18:27:00,87.8,76.3,29.79,SSW,202,1.1,2.2,69,0.00,,,0.00,127.00,VWS V14.01,2013-07-23 22:27:00,
2013-07-23 18:28:00,87.8,76.3,29.79,South,190,1.1,3.3,69,0.00,,,0.00,128.00,VWS V14.01,2013-07-23 22:28:00,
2013-07-23 18:29:00,87.8,76.0,29.79,South,175,3.3,6.6,68,0.00,,,0.00,118.00,VWS V14.01,2013-07-23 22:29:00,
2013-07-23 18:30:00,87.8,76.0,29.79,SW,222,0.0,1.1,68,0.00,,,0.00,102.00,VWS V14.01,2013-07-23 22:30:00,
2013-07-23 18:31:00,87.8,76.0,29.79,WSW,240,2.2,2.2,68,0.00,,,0.00,100.00,VWS V14.01,2013-07-23 22:31:00,
2013-07-23 18:32:00,87.9,76.1,29.79,SW,225,1.1,2.2,68,0.00,,,0.00,97.00,VWS V14.01,2013-07-23 22:32:00,
2013-07-23 18:33:00,87.9,76.1,29.79,SW,220,2.2,4.4,68,0.00,,,0.00,93.00,VWS V14.01,2013-07-23 22:33:00,
2013-07-23 18:34:00,87.9,76.1,29.79,SSW,208,1.1,2.2,68,0.00,,,0.00,91.00,VWS V14.01,2013-07-23 22:34:00,
2013-07-23 18:35:00,88.1,75.7,29.79,SSW,194,1.1,1.1,67,0.00,,,0.00,90.00,VWS V14.01,2013-07-23 22:35:00,
2013-07-23 18:36:00,88.1,76.2,29.79,SSW,193,0.0,1.1,68,0.00,,,0.00,90.00,VWS V14.01,2013-07-23 22:36:00,
2013-07-23 18:37:00,88.1,76.2,29.79,SSW,193,0.0,1.1,68,0.00,,,0.00,88.00,VWS V14.01,2013-07-23 22:37:00,
2013-07-23 18:38:00,88.1,77.0,29.79,SSW,193,0.0,0.0,70,0.00,,,0.00,84.00,VWS V14.01,2013-07-23 22:38:00,
2013-07-23 18:39:00,87.9,77.4,29.79,SSW,193,0.0,0.0,71,0.00,,,0.00,83.00,VWS V14.01,2013-07-23 22:39:00,
2013-07-23 18:40:00,87.8,76.8,29.79,SSW,210,1.1,1.1,70,0.00,,,0.00,81.00,VWS V14.01,2013-07-23 22:40:00,
2013-07-23 18:41:00,87.8,76.3,29.79,SSW,197,2.2,3.3,69,0.00,,,0.00,79.00,VWS V14.01,2013-07-23 22:41:00,
2013-07-23 18:42:00,87.8,76.8,29.79,SSW,195,1.1,2.2,70,0.00,,,0.00,76.00,VWS V14.01,2013-07-23 22:42:00,
2013-07-23 18:43:00,87.8,76.3,29.79,WSW,250,0.0,1.1,69,0.00,,,0.00,79.00,VWS V14.01,2013-07-23 22:43:00,
2013-07-23 18:44:00,87.8,76.3,29.78,WSW,244,0.0,1.1,69,0.00,,,0.00,86.00,VWS V14.01,2013-07-23 22:44:00,
2013-07-23 18:45:00,87.8,76.8,29.78,WSW,244,1.1,1.1,70,0.00,,,0.00,76.00,VWS V14.01,2013-07-23 22:45:00,
2013-07-23 18:46:00,87.8,76.8,29.78,WSW,243,1.1,1.1,70,0.00,,,0.00,69.00,VWS V14.01,2013-07-23 22:46:00,
2013-07-23 18:47:00,87.8,76.3,29.78,SW,230,2.2,2.2,69,0.00,,,0.00,67.00,VWS V14.01,2013-07-23 22:47:00,
2013-07-23 18:48:00,87.8,76.3,29.79,SSW,206,1.1,2.2,69,0.00,,,0.00,65.00,VWS V14.01,2013-07-23 22:48:00,
2013-07-23 18:49:00,87.8,76.3,29.79,South,183,3.3,4.4,69,0.00,,,0.00,63.00,VWS V14.01,2013-07-23 22:49:00,
2013-07-23 18:50:00,87.8,76.4,29.79,WSW,243,0.0,1.1,69,0.00,,,0.00,63.00,VWS V14.01,2013-07-23 22:50:00,
2013-07-23 18:51:00,87.8,76.4,29.79,WSW,243,0.0,1.1,69,0.00,,,0.00,62.00,VWS V14.01,2013-07-23 22:51:00,
2013-07-23 18:52:00,87.8,76.8,29.79,WSW,239,0.0,1.1,70,0.00,,,0.00,62.00,VWS V14.01,2013-07-23 22:52:00,
2013-07-23 18:53:00,87.6,77.0,29.79,NW,312,0.0,0.0,71,0.00,,,0.00,60.00,VWS V14.01,2013-07-23 22:53:00,
2013-07-23 18:54:00,87.4,76.9,29.79,NW,312,0.0,0.0,71,0.00,,,0.00,60.00,VWS V14.01,2013-07-23 22:54:00,
2013-07-23 18:55:00,87.2,77.1,29.79,NW,312,0.0,0.0,72,0.00,,,0.00,56.00,VWS V14.01,2013-07-23 22:55:00,
2013-07-23 18:56:00,87.2,77.4,29.79,SSE,161,1.1,3.3,73,0.00,,,0.00,56.00,VWS V14.01,2013-07-23 22:56:00,
2013-07-23 18:57:00,87.1,76.1,29.79,SE,143,2.2,3.3,70,0.00,,,0.00,54.00,VWS V14.01,2013-07-23 22:57:00,
2013-07-23 18:58:00,87.1,76.1,29.79,SSE,160,0.0,2.2,70,0.00,,,0.00,54.00,VWS V14.01,2013-07-23 22:58:00,
2013-07-23 18:59:00,87.2,76.2,29.79,NNW,333,2.2,2.2,70,0.00,,,0.00,53.00,VWS V14.01,2013-07-23 22:59:00,
2013-07-23 19:00:00,87.2,76.2,29.79,NW,316,0.0,0.0,70,0.00,,,0.00,51.00,VWS V14.01,2013-07-23 23:00:00,
2013-07-23 19:01:00,87.2,76.2,29.79,South,185,3.3,3.3,70,0.00,,,0.00,51.00,VWS V14.01,2013-07-23 23:01:00,
2013-07-23 19:02:00,87.1,76.1,29.79,SW,219,0.0,5.5,70,0.00,,,0.00,49.00,VWS V14.01,2013-07-23 23:02:00,
2013-07-23 19:03:00,87.2,76.2,29.79,SW,219,0.0,0.0,70,0.00,,,0.00,49.00,VWS V14.01,2013-07-23 23:03:00,
2013-07-23 19:04:00,87.1,76.5,29.79,SSW,206,2.2,2.2,71,0.00,,,0.00,47.00,VWS V14.01,2013-07-23 23:04:00,
2013-07-23 19:05:00,87.1,76.1,29.79,SSW,198,2.2,3.3,70,0.00,,,0.00,47.00,VWS V14.01,2013-07-23 23:05:00,
2013-07-23 19:06:00,87.1,76.1,29.79,SSW,198,3.3,4.4,70,0.00,,,0.00,47.00,VWS V14.01,2013-07-23 23:06:00,
2013-07-23 19:07:00,87.2,75.8,29.79,SSW,210,1.1,4.4,69,0.00,,,0.00,46.00,VWS V14.01,2013-07-23 23:07:00,
2013-07-23 19:08:00,87.2,75.8,29.79,SSW,210,0.0,1.1,69,0.00,,,0.00,44.00,VWS V14.01,2013-07-23 23:08:00,
2013-07-23 19:09:00,87.2,76.2,29.79,SSW,210,0.0,1.1,70,0.00,,,0.00,44.00,VWS V14.01,2013-07-23 23:09:00,
2013-07-23 19:10:00,87.2,76.6,29.79,SE,131,0.0,0.0,71,0.00,,,0.00,42.00,VWS V14.01,2013-07-23 23:10:00,
2013-07-23 19:11:00,87.1,76.1,29.79,SSW,193,4.4,5.5,70,0.00,,,0.00,42.00,VWS V14.01,2013-07-23 23:11:00,
2013-07-23 19:12:00,87.1,76.1,29.79,SSW,209,1.1,4.4,70,0.00,,,0.00,42.00,VWS V14.01,2013-07-23 23:12:00,
2013-07-23 19:13:00,87.1,75.7,29.79,South,189,1.1,3.3,69,0.00,,,0.00,40.00,VWS V14.01,2013-07-23 23:13:00,
2013-07-23 19:14:00,87.2,76.2,29.79,South,191,2.2,2.2,70,0.00,,,0.00,40.00,VWS V14.01,2013-07-23 23:14:00,
2013-07-23 19:15:00,87.2,76.2,29.79,SW,234,1.1,1.1,70,0.00,,,0.00,40.00,VWS V14.01,2013-07-23 23:15:00,
2013-07-23 19:16:00,87.2,76.2,29.79,SW,234,0.0,1.1,70,0.00,,,0.00,39.00,VWS V14.01,2013-07-23 23:16:00,
2013-07-23 19:17:00,87.2,76.2,29.79,South,189,0.0,2.2,70,0.00,,,0.00,39.00,VWS V14.01,2013-07-23 23:17:00,
2013-07-23 19:18:00,87.2,76.2,29.79,South,189,0.0,1.1,70,0.00,,,0.00,39.00,VWS V14.01,2013-07-23 23:18:00,
2013-07-23 19:19:00,87.1,76.5,29.79,South,189,1.1,2.2,71,0.00,,,0.00,37.00,VWS V14.01,2013-07-23 23:19:00,
2013-07-23 19:20:00,87.1,76.1,29.79,SSE,150,0.0,1.1,70,0.00,,,0.00,37.00,VWS V14.01,2013-07-23 23:20:00,
2013-07-23 19:21:00,87.1,76.1,29.79,SSE,150,1.1,1.1,70,0.00,,,0.00,37.00,VWS V14.01,2013-07-23 23:21:00,
2013-07-23 19:22:00,86.9,76.0,29.79,SSE,150,0.0,1.1,70,0.00,,,0.00,35.00,VWS V14.01,2013-07-23 23:22:00,
2013-07-23 19:23:00,86.9,76.4,29.79,SSE,154,1.1,1.1,71,0.00,,,0.00,35.00,VWS V14.01,2013-07-23 23:23:00,
2013-07-23 19:24:00,86.9,76.4,29.79,SSE,156,2.2,2.2,71,0.00,,,0.00,33.00,VWS V14.01,2013-07-23 23:24:00,
2013-07-23 19:25:00,86.8,76.3,29.79,SW,217,0.0,3.3,71,0.00,,,0.00,33.00,VWS V14.01,2013-07-23 23:25:00,
2013-07-23 19:26:00,86.8,76.3,29.79,SW,217,0.0,3.3,71,0.00,,,0.00,33.00,VWS V14.01,2013-07-23 23:26:00,
2013-07-23 19:27:00,86.8,76.2,29.79,SW,217,0.0,1.1,71,0.00,,,0.00,32.00,VWS V14.01,2013-07-23 23:27:00,
2013-07-23 19:28:00,86.8,77.1,29.79,SW,217,0.0,0.0,73,0.00,,,0.00,32.00,VWS V14.01,2013-07-23 23:28:00,
2013-07-23 19:29:00,86.6,76.4,29.79,WSW,239,0.0,1.1,72,0.00,,,0.00,32.00,VWS V14.01,2013-07-23 23:29:00,
2013-07-23 19:30:00,86.4,77.2,29.79,NW,314,0.0,0.0,74,0.00,,,0.00,30.00,VWS V14.01,2013-07-23 23:30:00,
2013-07-23 19:31:00,86.3,77.1,29.79,South,181,2.2,2.2,74,0.00,,,0.00,30.00,VWS V14.01,2013-07-23 23:31:00,
2013-07-23 19:32:00,86.2,76.6,29.79,SSW,192,0.0,2.2,73,0.00,,,0.00,28.00,VWS V14.01,2013-07-23 23:32:00,
2013-07-23 19:33:00,86.2,76.5,29.79,SSW,193,1.1,1.1,73,0.00,,,0.00,28.00,VWS V14.01,2013-07-23 23:33:00,
2013-07-23 19:34:00,86.2,76.5,29.79,SW,216,0.0,2.2,73,0.00,,,0.00,28.00,VWS V14.01,2013-07-23 23:34:00,
2013-07-23 19:35:00,86.1,76.8,29.79,SSW,204,0.0,1.1,74,0.00,,,0.00,26.00,VWS V14.01,2013-07-23 23:35:00,
2013-07-23 19:36:00,86.1,76.8,29.79,SSW,204,0.0,1.1,74,0.00,,,0.00,26.00,VWS V14.01,2013-07-23 23:36:00,
2013-07-23 19:37:00,86.1,76.4,29.79,SSW,210,0.0,3.3,73,0.00,,,0.00,26.00,VWS V14.01,2013-07-23 23:37:00,
2013-07-23 19:38:00,86.1,76.4,29.79,South,181,0.0,2.2,73,0.00,,,0.00,26.00,VWS V14.01,2013-07-23 23:38:00,
2013-07-23 19:39:00,86.2,76.5,29.79,South,181,0.0,0.0,73,0.00,,,0.00,25.00,VWS V14.01,2013-07-23 23:39:00,
2013-07-23 19:40:00,86.2,76.5,29.79,South,179,0.0,1.1,73,0.00,,,0.00,25.00,VWS V14.01,2013-07-23 23:40:00,
2013-07-23 19:41:00,86.2,76.5,29.79,South,179,1.1,1.1,73,0.00,,,0.00,25.00,VWS V14.01,2013-07-23 23:41:00,
2013-07-23 19:42:00,86.2,76.5,29.79,South,179,0.0,1.1,73,0.00,,,0.00,23.00,VWS V14.01,2013-07-23 23:42:00,
2013-07-23 19:43:00,86.1,77.2,29.79,SSW,195,0.0,0.0,75,0.00,,,0.00,23.00,VWS V14.01,2013-07-23 23:43:00,
2013-07-23 19:44:00,85.8,77.0,29.79,SSW,193,0.0,1.1,75,0.00,,,0.00,23.00,VWS V14.01,2013-07-23 23:44:00,
2013-07-23 19:45:00,85.8,77.3,29.79,SSW,193,0.0,0.0,76,0.00,,,0.00,21.00,VWS V14.01,2013-07-23 23:45:00,
2013-07-23 19:46:00,85.6,77.1,29.79,SSW,193,0.0,1.1,76,0.00,,,0.00,21.00,VWS V14.01,2013-07-23 23:46:00,
2013-07-23 19:47:00,85.4,77.0,29.79,SSW,193,0.0,1.1,76,0.00,,,0.00,19.00,VWS V14.01,2013-07-23 23:47:00,
2013-07-23 19:48:00,85.3,76.9,29.79,SSW,193,0.0,0.0,76,0.00,,,0.00,18.00,VWS V14.01,2013-07-23 23:48:00,
2013-07-23 19:49:00,85.2,76.8,29.79,South,179,1.1,1.1,76,0.00,,,0.00,18.00,VWS V14.01,2013-07-23 23:49:00,
2013-07-23 19:50:00,85.1,76.6,29.79,South,179,0.0,1.1,76,0.00,,,0.00,16.00,VWS V14.01,2013-07-23 23:50:00,
2013-07-23 19:51:00,85.1,77.0,29.79,South,179,0.0,0.0,77,0.00,,,0.00,16.00,VWS V14.01,2013-07-23 23:51:00,
2013-07-23 19:52:00,84.9,76.9,29.79,SSW,197,0.0,2.2,77,0.00,,,0.00,16.00,VWS V14.01,2013-07-23 23:52:00,
2013-07-23 19:53:00,84.8,77.1,29.79,SSW,197,0.0,0.0,78,0.00,,,0.00,14.00,VWS V14.01,2013-07-23 23:53:00,
2013-07-23 19:54:00,84.7,77.0,29.79,SSW,198,0.0,0.0,78,0.00,,,0.00,14.00,VWS V14.01,2013-07-23 23:54:00,
2013-07-23 19:55:00,84.3,77.1,29.79,SSW,198,0.0,0.0,79,0.00,,,0.00,14.00,VWS V14.01,2013-07-23 23:55:00,
2013-07-23 19:56:00,83.9,77.1,29.79,SSW,200,1.1,1.1,80,0.00,,,0.00,14.00,VWS V14.01,2013-07-23 23:56:00,
2013-07-23 19:57:00,83.8,76.6,29.79,SSW,200,0.0,2.2,79,0.00,,,0.00,14.00,VWS V14.01,2013-07-23 23:57:00,
2013-07-23 19:58:00,83.8,76.9,29.79,SW,232,0.0,2.2,80,0.00,,,0.00,14.00,VWS V14.01,2013-07-23 23:58:00,
2013-07-23 19:59:00,83.7,76.8,29.79,SW,232,0.0,0.0,80,0.00,,,0.00,12.00,VWS V14.01,2013-07-23 23:59:00,
2013-07-23 20:00:00,83.6,77.1,29.79,SW,231,1.1,3.3,81,0.00,,,0.00,11.00,VWS V14.01,2013-07-24 00:00:00,
2013-07-23 20:01:00,83.4,76.6,29.79,SW,231,0.0,1.1,80,0.00,,,0.00,9.00,VWS V14.01,2013-07-24 00:01:00,
2013-07-23 20:02:00,83.3,76.9,29.79,SW,231,0.0,0.0,81,0.00,,,0.00,9.00,VWS V14.01,2013-07-24 00:02:00,
2013-07-23 20:03:00,83.2,76.8,29.79,South,175,0.0,1.1,81,0.00,,,0.00,9.00,VWS V14.01,2013-07-24 00:03:00,
2013-07-23 20:04:00,83.2,76.8,29.79,South,175,0.0,0.0,81,0.00,,,0.00,7.00,VWS V14.01,2013-07-24 00:04:00,
2013-07-23 20:05:00,83.2,77.1,29.79,SSE,154,3.3,3.3,82,0.00,,,0.00,7.00,VWS V14.01,2013-07-24 00:05:00,
2013-07-23 20:06:00,83.2,76.7,29.79,SSE,154,0.0,3.3,81,0.00,,,0.00,7.00,VWS V14.01,2013-07-24 00:06:00,
2013-07-23 20:07:00,83.2,76.7,29.79,SSE,154,0.0,1.1,81,0.00,,,0.00,5.00,VWS V14.01,2013-07-24 00:07:00,
2013-07-23 20:08:00,83.2,77.2,29.79,SSE,154,0.0,0.0,82,0.00,,,0.00,5.00,VWS V14.01,2013-07-24 00:08:00,
2013-07-23 20:09:00,83.2,77.1,29.79,SSE,157,1.1,1.1,82,0.00,,,0.00,5.00,VWS V14.01,2013-07-24 00:09:00,
2013-07-23 20:10:00,83.1,76.6,29.79,South,171,0.0,1.1,81,0.00,,,0.00,5.00,VWS V14.01,2013-07-24 00:10:00,
2013-07-23 20:11:00,82.8,76.8,29.79,South,171,0.0,0.0,82,0.00,,,0.00,5.00,VWS V14.01,2013-07-24 00:11:00,
2013-07-23 20:12:00,82.8,76.8,29.79,South,171,0.0,0.0,82,0.00,,,0.00,0.00,VWS V14.01,2013-07-24 00:12:00,
2013-07-23 20:13:00,82.6,76.9,29.79,SW,227,1.1,3.3,83,0.00,,,0.00,0.00,VWS V14.01,2013-07-24 00:13:00,
2013-07-23 20:14:00,82.6,76.5,29.79,SW,231,2.2,3.3,82,0.00,,,0.00,0.00,VWS V14.01,2013-07-24 00:14:00,
2013-07-23 20:15:00,82.6,76.5,29.79,SW,231,0.0,2.2,82,0.00,,,0.00,0.00,VWS V14.01,2013-07-24 00:15:00,
2013-07-23 20:16:00,82.8,76.7,29.79,WSW,241,0.0,0.0,82,0.00,,,0.00,0.00,VWS V14.01,2013-07-24 00:16:00,
2013-07-23 20:17:00,82.8,76.7,29.79,WSW,241,0.0,0.0,82,0.00,,,0.00,0.00,VWS V14.01,2013-07-24 00:17:00,
2013-07-23 20:18:00,82.7,76.6,29.79,WSW,241,0.0,0.0,82,0.00,,,0.00,0.00,VWS V14.01,2013-07-24 00:18:00,
2013-07-23 20:19:00,82.6,76.9,29.79,WSW,241,0.0,0.0,83,0.00,,,0.00,0.00,VWS V14.01,2013-07-24 00:19:00,
2013-07-23 20:20:00,82.3,76.7,29.79,WSW,241,0.0,0.0,83,0.00,,,0.00,0.00,VWS V14.01,2013-07-24 00:20:00,
2013-07-23 20:21:00,82.2,76.5,29.79,WSW,237,0.0,0.0,83,0.00,,,0.00,0.00,VWS V14.01,2013-07-24 00:21:00,
2013-07-23 20:22:00,82.1,76.4,29.79,WSW,237,0.0,0.0,83,0.00,,,0.00,0.00,VWS V14.01,2013-07-24 00:22:00,
2013-07-23 20:23:00,81.9,76.6,29.79,WSW,237,0.0,0.0,84,0.00,,,0.00,0.00,VWS V14.01,2013-07-24 00:23:00,
2013-07-23 20:24:00,81.8,76.5,29.79,WSW,237,0.0,0.0,84,0.00,,,0.00,0.00,VWS V14.01,2013-07-24 00:24:00,
2013-07-23 20:25:00,81.8,76.5,29.79,WSW,237,0.0,0.0,84,0.00,,,0.00,0.00,VWS V14.01,2013-07-24 00:25:00,
2013-07-23 20:26:00,81.7,76.3,29.79,WSW,237,0.0,0.0,84,0.00,,,0.00,0.00,VWS V14.01,2013-07-24 00:26:00,
2013-07-23 20:27:00,81.7,76.7,29.79,WSW,237,0.0,0.0,85,0.00,,,0.00,0.00,VWS V14.01,2013-07-24 00:27:00,
2013-07-23 20:28:00,81.4,76.5,29.79,WSW,237,0.0,0.0,85,0.00,,,0.00,0.00,VWS V14.01,2013-07-24 00:28:00,
2013-07-23 20:29:00,81.3,76.4,29.80,WSW,237,0.0,0.0,85,0.00,,,0.00,0.00,VWS V14.01,2013-07-24 00:29:00,
2013-07-23 20:30:00,81.2,76.3,29.80,WSW,237,0.0,0.0,85,0.00,,,0.00,0.00,VWS V14.01,2013-07-24 00:30:00,
2013-07-23 20:31:00,81.1,76.1,29.80,WSW,237,0.0,0.0,85,0.00,,,0.00,0.00,VWS V14.01,2013-07-24 00:31:00,
2013-07-23 20:32:00,81.1,76.5,29.80,WSW,237,0.0,0.0,86,0.00,,,0.00,0.00,VWS V14.01,2013-07-24 00:32:00,
2013-07-23 20:33:00,80.9,76.4,29.80,WSW,237,0.0,0.0,86,0.00,,,0.00,0.00,VWS V14.01,2013-07-24 00:33:00,
2013-07-23 20:34:00,80.8,76.3,29.80,WSW,237,0.0,0.0,86,0.00,,,0.00,0.00,VWS V14.01,2013-07-24 00:34:00,
2013-07-23 20:35:00,80.8,76.3,29.80,WSW,237,0.0,0.0,86,0.00,,,0.00,0.00,VWS V14.01,2013-07-24 00:35:00,
2013-07-23 20:36:00,80.8,76.3,29.80,WSW,237,0.0,0.0,86,0.00,,,0.00,0.00,VWS V14.01,2013-07-24 00:36:00,
2013-07-23 20:37:00,80.8,76.3,29.80,WSW,237,0.0,1.1,86,0.00,,,0.00,0.00,VWS V14.01,2013-07-24 00:37:00,
2013-07-23 20:38:00,80.8,76.3,29.80,SW,214,0.0,2.2,86,0.00,,,0.00,0.00,VWS V14.01,2013-07-24 00:38:00,
2013-07-23 20:39:00,80.9,76.0,29.80,SW,214,0.0,1.1,85,0.00,,,0.00,0.00,VWS V14.01,2013-07-24 00:39:00,
2013-07-23 20:40:00,81.1,76.1,29.80,SSW,213,0.0,1.1,85,0.00,,,0.00,0.00,VWS V14.01,2013-07-24 00:40:00,
2013-07-23 20:41:00,81.2,76.2,29.80,SSW,213,0.0,1.1,85,0.00,,,0.00,0.00,VWS V14.01,2013-07-24 00:41:00,
2013-07-23 20:42:00,81.2,76.2,29.80,SSW,213,0.0,0.0,85,0.00,,,0.00,0.00,VWS V14.01,2013-07-24 00:42:00,
2013-07-23 20:43:00,81.2,76.3,29.80,SSW,213,0.0,0.0,85,0.00,,,0.00,0.00,VWS V14.01,2013-07-24 00:43:00,
2013-07-23 20:44:00,81.2,76.2,29.80,SSW,213,0.0,0.0,85,0.00,,,0.00,0.00,VWS V14.01,2013-07-24 00:44:00,
2013-07-23 20:45:00,81.1,76.1,29.80,SSW,213,0.0,0.0,85,0.00,,,0.00,0.00,VWS V14.01,2013-07-24 00:45:00,
2013-07-23 20:46:00,80.9,76.0,29.80,SSW,205,0.0,0.0,85,0.00,,,0.00,0.00,VWS V14.01,2013-07-24 00:46:00,
2013-07-23 20:47:00,80.8,76.2,29.80,SSW,205,0.0,0.0,86,0.00,,,0.00,0.00,VWS V14.01,2013-07-24 00:47:00,
2013-07-23 20:48:00,80.6,76.0,29.80,SSW,205,0.0,0.0,86,0.00,,,0.00,0.00,VWS V14.01,2013-07-24 00:48:00,
2013-07-23 20:49:00,80.4,76.2,29.80,SSW,206,0.0,0.0,87,0.00,,,0.00,0.00,VWS V14.01,2013-07-24 00:49:00,
2013-07-23 20:50:00,80.3,76.1,29.80,SSW,206,0.0,1.1,87,0.00,,,0.00,0.00,VWS V14.01,2013-07-24 00:50:00,
2013-07-23 20:51:00,80.2,76.0,29.80,SSW,206,0.0,0.0,87,0.00,,,0.00,0.00,VWS V14.01,2013-07-24 00:51:00,
2013-07-23 20:52:00,80.2,75.9,29.80,SSW,206,1.1,1.1,87,0.00,,,0.00,0.00,VWS V14.01,2013-07-24 00:52:00,
2013-07-23 20:53:00,80.2,75.9,29.80,SSW,206,0.0,1.1,87,0.00,,,0.00,0.00,VWS V14.01,2013-07-24 00:53:00,
2013-07-23 20:54:00,80.2,75.9,29.80,SSW,206,0.0,0.0,87,0.00,,,0.00,0.00,VWS V14.01,2013-07-24 00:54:00,
2013-07-23 20:55:00,80.2,76.0,29.80,South,185,0.0,2.2,87,0.00,,,0.00,0.00,VWS V14.01,2013-07-24 00:55:00,
2013-07-23 20:56:00,80.2,76.0,29.80,South,185,0.0,0.0,87,0.00,,,0.00,0.00,VWS V14.01,2013-07-24 00:56:00,
2013-07-23 20:57:00,80.2,76.0,29.80,South,185,0.0,0.0,87,0.00,,,0.00,0.00,VWS V14.01,2013-07-24 00:57:00,
2013-07-23 20:58:00,80.2,76.0,29.80,South,185,0.0,0.0,87,0.00,,,0.00,0.00,VWS V14.01,2013-07-24 00:58:00,
2013-07-23 20:59:00,80.2,76.0,29.81,South,185,0.0,0.0,87,0.00,,,0.00,0.00,VWS V14.01,2013-07-24 00:59:00,
2013-07-23 21:00:00,80.2,76.0,29.81,South,185,0.0,0.0,87,0.00,,,0.00,0.00,VWS V14.01,2013-07-24 01:00:00,
2013-07-23 21:01:00,80.2,75.9,29.81,South,185,0.0,0.0,87,0.00,,,0.00,0.00,VWS V14.01,2013-07-24 01:01:00,
2013-07-23 21:02:00,80.2,75.9,29.81,South,185,0.0,0.0,87,0.00,,,0.00,0.00,VWS V14.01,2013-07-24 01:02:00,
2013-07-23 21:03:00,80.2,75.9,29.81,SE,146,0.0,0.0,87,0.00,,,0.00,0.00,VWS V14.01,2013-07-24 01:03:00,
2013-07-23 21:04:00,80.2,75.9,29.81,SE,146,0.0,0.0,87,0.00,,,0.00,0.00,VWS V14.01,2013-07-24 01:04:00,
2013-07-23 21:05:00,80.1,75.8,29.81,SE,146,0.0,0.0,87,0.00,,,0.00,0.00,VWS V14.01,2013-07-24 01:05:00,
2013-07-23 21:06:00,79.9,75.7,29.81,SE,146,0.0,0.0,87,0.00,,,0.00,0.00,VWS V14.01,2013-07-24 01:06:00,
2013-07-23 21:07:00,79.8,76.0,29.81,SW,226,1.1,3.3,88,0.00,,,0.00,0.00,VWS V14.01,2013-07-24 01:07:00,
2013-07-23 21:08:00,79.8,76.0,29.81,SW,226,0.0,3.3,88,0.00,,,0.00,0.00,VWS V14.01,2013-07-24 01:08:00,
2013-07-23 21:09:00,79.8,75.9,29.81,SSW,202,0.0,2.2,88,0.00,,,0.00,0.00,VWS V14.01,2013-07-24 01:09:00,
2013-07-23 21:10:00,79.8,75.9,29.81,SSW,199,0.0,1.1,88,0.00,,,0.00,0.00,VWS V14.01,2013-07-24 01:10:00,
2013-07-23 21:11:00,79.8,75.9,29.81,SSW,199,0.0,0.0,88,0.00,,,0.00,0.00,VWS V14.01,2013-07-24 01:11:00,
2013-07-23 21:12:00,79.8,75.9,29.81,SSW,199,0.0,0.0,88,0.00,,,0.00,0.00,VWS V14.01,2013-07-24 01:12:00,
2013-07-23 21:13:00,79.8,76.0,29.81,SSW,199,0.0,1.1,88,0.00,,,0.00,0.00,VWS V14.01,2013-07-24 01:13:00,
2013-07-23 21:14:00,79.8,76.0,29.81,SSW,199,0.0,0.0,88,0.00,,,0.00,0.00,VWS V14.01,2013-07-24 01:14:00,
2013-07-23 21:16:00,79.8,76.0,29.81,SSW,198,0.0,1.1,88,0.00,,,0.00,0.00,VWS V14.01,2013-07-24 01:16:00,
2013-07-23 21:17:00,79.9,76.1,29.81,SSW,198,0.0,0.0,88,0.00,,,0.00,0.00,VWS V14.01,2013-07-24 01:17:00,
2013-07-23 21:18:00,80.1,76.2,29.81,SSW,196,1.1,1.1,88,0.00,,,0.00,0.00,VWS V14.01,2013-07-24 01:18:00,
2013-07-23 21:19:00,80.2,75.9,29.82,SSW,196,0.0,1.1,87,0.00,,,0.00,0.00,VWS V14.01,2013-07-24 01:19:00,
2013-07-23 21:20:00,80.2,76.0,29.82,SSW,196,1.1,1.1,87,0.00,,,0.00,0.00,VWS V14.01,2013-07-24 01:20:00,
2013-07-23 21:21:00,80.2,76.0,29.82,SSW,196,0.0,1.1,87,0.00,,,0.00,0.00,VWS V14.01,2013-07-24 01:21:00,
2013-07-23 21:22:00,80.3,76.1,29.82,SSW,196,0.0,0.0,87,0.00,,,0.00,0.00,VWS V14.01,2013-07-24 01:22:00,
2013-07-23 21:23:00,80.3,76.1,29.82,SSW,196,1.1,1.1,87,0.00,,,0.00,0.00,VWS V14.01,2013-07-24 01:23:00,
2013-07-23 21:24:00,80.4,75.9,29.82,WSW,243,0.0,2.2,86,0.00,,,0.00,0.00,VWS V14.01,2013-07-24 01:24:00,
2013-07-23 21:26:00,80.8,76.2,29.82,WSW,241,0.0,1.1,86,0.00,,,0.00,0.00,VWS V14.01,2013-07-24 01:26:00,
2013-07-23 21:27:00,80.8,75.9,29.82,SSW,194,0.0,1.1,85,0.00,,,0.00,0.00,VWS V14.01,2013-07-24 01:27:00,
2013-07-23 21:29:00,80.8,75.9,29.82,SSW,193,0.0,0.0,85,0.00,,,0.00,0.00,VWS V14.01,2013-07-24 01:29:00,
2013-07-23 21:30:00,80.9,76.0,29.82,SSW,193,0.0,1.1,85,0.00,,,0.00,0.00,VWS V14.01,2013-07-24 01:30:00,
2013-07-23 21:31:00,80.8,75.9,29.82,SSW,193,0.0,0.0,85,0.00,,,0.00,0.00,VWS V14.01,2013-07-24 01:31:00,
2013-07-23 21:32:00,80.8,75.9,29.82,SSW,209,0.0,1.1,85,0.00,,,0.00,0.00,VWS V14.01,2013-07-24 01:32:00,
2013-07-23 21:33:00,80.8,75.9,29.82,SSW,210,2.2,2.2,85,0.00,,,0.00,0.00,VWS V14.01,2013-07-24 01:33:00,
2013-07-23 21:34:00,80.8,75.9,29.82,SSW,208,0.0,2.2,85,0.00,,,0.00,0.00,VWS V14.01,2013-07-24 01:34:00,
2013-07-23 21:35:00,80.9,76.0,29.82,NW,306,1.1,2.2,85,0.00,,,0.00,0.00,VWS V14.01,2013-07-24 01:35:00,
2013-07-23 21:36:00,81.1,76.1,29.82,WNW,300,0.0,1.1,85,0.00,,,0.00,0.00,VWS V14.01,2013-07-24 01:36:00,
2013-07-23 21:37:00,81.1,76.1,29.82,WNW,283,0.0,1.1,85,0.00,,,0.00,0.00,VWS V14.01,2013-07-24 01:37:00,
2013-07-23 21:38:00,81.1,76.1,29.82,WNW,289,0.0,4.4,85,0.00,,,0.00,0.00,VWS V14.01,2013-07-24 01:38:00,
2013-07-23 21:39:00,81.1,76.1,29.82,WNW,289,0.0,0.0,85,0.00,,,0.00,0.00,VWS V14.01,2013-07-24 01:39:00,
2013-07-23 21:40:00,81.2,76.2,29.82,WNW,288,0.0,0.0,85,0.00,,,0.00,0.00,VWS V14.01,2013-07-24 01:40:00,
2013-07-23 21:41:00,81.1,76.1,29.82,WSW,253,0.0,0.0,85,0.00,,,0.00,0.00,VWS V14.01,2013-07-24 01:41:00,
2013-07-23 21:42:00,81.1,76.1,29.82,WSW,253,0.0,0.0,85,0.00,,,0.00,0.00,VWS V14.01,2013-07-24 01:42:00,
2013-07-23 21:43:00,81.1,76.1,29.82,WSW,253,0.0,0.0,85,0.00,,,0.00,0.00,VWS V14.01,2013-07-24 01:43:00,
2013-07-23 21:44:00,81.1,76.1,29.83,WSW,253,0.0,0.0,85,0.00,,,0.00,0.00,VWS V14.01,2013-07-24 01:44:00,
2013-07-23 21:45:00,81.1,76.1,29.82,WSW,246,0.0,1.1,85,0.00,,,0.00,0.00,VWS V14.01,2013-07-24 01:45:00,
2013-07-23 21:46:00,81.1,76.1,29.83,WSW,245,0.0,1.1,85,0.00,,,0.00,0.00,VWS V14.01,2013-07-24 01:46:00,
2013-07-23 21:47:00,81.2,76.2,29.83,SW,222,3.3,4.4,85,0.00,,,0.00,0.00,VWS V14.01,2013-07-24 01:47:00,
2013-07-23 21:48:00,81.2,76.3,29.83,SW,216,0.0,0.0,85,0.00,,,0.00,0.00,VWS V14.01,2013-07-24 01:48:00,
2013-07-23 21:49:00,81.3,76.4,29.83,South,189,1.1,1.1,85,0.00,,,0.00,0.00,VWS V14.01,2013-07-24 01:49:00,
2013-07-23 21:50:00,81.3,76.1,29.83,South,183,1.1,1.1,84,0.00,,,0.00,0.00,VWS V14.01,2013-07-24 01:50:00,
2013-07-23 21:51:00,81.4,76.2,29.83,WNW,293,1.1,1.1,84,0.00,,,0.00,0.00,VWS V14.01,2013-07-24 01:51:00,
2013-07-23 21:52:00,81.4,76.2,29.83,SSE,164,2.2,4.4,84,0.00,,,0.00,0.00,VWS V14.01,2013-07-24 01:52:00,
2013-07-23 21:53:00,81.6,76.2,29.83,WSW,247,0.0,0.0,84,0.00,,,0.00,0.00,VWS V14.01,2013-07-24 01:53:00,
2013-07-23 21:54:00,81.6,76.2,29.83,South,185,0.0,0.0,84,0.00,,,0.00,0.00,VWS V14.01,2013-07-24 01:54:00,
2013-07-23 21:55:00,81.7,76.3,29.83,South,190,3.3,4.4,84,0.00,,,0.00,0.00,VWS V14.01,2013-07-24 01:55:00,
2013-07-23 21:56:00,81.7,76.3,29.83,WSW,245,1.1,3.3,84,0.00,,,0.00,0.00,VWS V14.01,2013-07-24 01:56:00,
2013-07-23 21:57:00,81.7,76.3,29.83,WSW,244,0.0,1.1,84,0.00,,,0.00,0.00,VWS V14.01,2013-07-24 01:57:00,
2013-07-23 21:58:00,81.8,76.4,29.82,South,183,0.0,2.2,84,0.00,,,0.00,0.00,VWS V14.01,2013-07-24 01:58:00,
2013-07-23 21:59:00,81.8,76.4,29.82,SSW,203,2.2,2.2,84,0.00,,,0.00,0.00,VWS V14.01,2013-07-24 01:59:00,
2013-07-23 22:00:00,81.8,76.4,29.83,SW,215,0.0,2.2,84,0.00,,,0.00,0.00,VWS V14.01,2013-07-24 02:00:00,
2013-07-23 22:01:00,81.8,76.4,29.83,SW,216,1.1,3.3,84,0.00,,,0.00,0.00,VWS V14.01,2013-07-24 02:01:00,
2013-07-23 22:02:00,81.8,76.5,29.82,SSW,199,2.2,3.3,84,0.00,,,0.00,0.00,VWS V14.01,2013-07-24 02:02:00,
2013-07-23 22:03:00,81.8,76.2,29.82,SSW,201,0.0,1.1,83,0.00,,,0.00,0.00,VWS V14.01,2013-07-24 02:03:00,
2013-07-23 22:04:00,81.9,76.3,29.82,SSW,201,0.0,1.1,83,0.00,,,0.00,0.00,VWS V14.01,2013-07-24 02:04:00,
2013-07-23 22:05:00,81.9,76.3,29.82,SSW,200,2.2,3.3,83,0.00,,,0.00,0.00,VWS V14.01,2013-07-24 02:05:00,
2013-07-23 22:06:00,81.9,76.3,29.82,SSW,200,0.0,2.2,83,0.00,,,0.00,0.00,VWS V14.01,2013-07-24 02:06:00,
2013-07-23 22:07:00,81.9,76.3,29.82,SSW,200,0.0,1.1,83,0.00,,,0.00,0.00,VWS V14.01,2013-07-24 02:07:00,
2013-07-23 22:08:00,81.9,76.3,29.83,SSW,200,0.0,0.0,83,0.00,,,0.00,0.00,VWS V14.01,2013-07-24 02:08:00,
2013-07-23 22:09:00,81.8,76.2,29.83,WNW,297,0.0,1.1,83,0.00,,,0.00,0.00,VWS V14.01,2013-07-24 02:09:00,
2013-07-23 22:10:00,81.8,76.5,29.83,SW,230,0.0,2.2,84,0.00,,,0.00,0.00,VWS V14.01,2013-07-24 02:10:00,
2013-07-23 22:11:00,81.8,76.5,29.83,SW,222,0.0,1.1,84,0.00,,,0.00,0.00,VWS V14.01,2013-07-24 02:11:00,
2013-07-23 22:12:00,81.8,76.5,29.83,SW,218,1.1,2.2,84,0.00,,,0.00,0.00,VWS V14.01,2013-07-24 02:12:00,
2013-07-23 22:13:00,81.8,76.4,29.83,SW,218,0.0,0.0,84,0.00,,,0.00,0.00,VWS V14.01,2013-07-24 02:13:00,
2013-07-23 22:14:00,81.8,76.4,29.83,SW,218,0.0,1.1,84,0.00,,,0.00,0.00,VWS V14.01,2013-07-24 02:14:00,
2013-07-23 22:15:00,81.8,76.4,29.83,SW,218,1.1,2.2,84,0.00,,,0.00,0.00,VWS V14.01,2013-07-24 02:15:00,
2013-07-23 22:16:00,81.8,76.4,29.83,SSW,196,1.1,2.2,84,0.00,,,0.00,0.00,VWS V14.01,2013-07-24 02:16:00,
2013-07-23 22:17:00,81.8,76.4,29.83,SSW,196,1.1,2.2,84,0.00,,,0.00,0.00,VWS V14.01,2013-07-24 02:17:00,
2013-07-23 22:18:00,81.8,76.4,29.83,SW,214,1.1,1.1,84,0.00,,,0.00,0.00,VWS V14.01,2013-07-24 02:18:00,
2013-07-23 22:19:00,81.8,76.4,29.83,SSW,213,0.0,1.1,84,0.00,,,0.00,0.00,VWS V14.01,2013-07-24 02:19:00,
2013-07-23 22:20:00,81.8,76.4,29.83,SSW,213,0.0,0.0,84,0.00,,,0.00,0.00,VWS V14.01,2013-07-24 02:20:00,
2013-07-23 22:21:00,81.8,76.4,29.83,SW,216,1.1,1.1,84,0.00,,,0.00,0.00,VWS V14.01,2013-07-24 02:21:00,
2013-07-23 22:22:00,81.7,76.3,29.83,SW,216,0.0,0.0,84,0.00,,,0.00,0.00,VWS V14.01,2013-07-24 02:22:00,
2013-07-23 22:23:00,81.7,76.3,29.83,SW,216,0.0,1.1,84,0.00,,,0.00,0.00,VWS V14.01,2013-07-24 02:23:00,
2013-07-23 22:24:00,81.6,76.2,29.83,SW,216,0.0,1.1,84,0.00,,,0.00,0.00,VWS V14.01,2013-07-24 02:24:00,
2013-07-23 22:25:00,81.4,76.2,29.83,SW,216,1.1,1.1,84,0.00,,,0.00,0.00,VWS V14.01,2013-07-24 02:25:00,
2013-07-23 22:26:00,81.4,76.5,29.82,SW,216,0.0,1.1,85,0.00,,,0.00,0.00,VWS V14.01,2013-07-24 02:26:00,
2013-07-23 22:27:00,81.2,76.3,29.82,SW,216,0.0,0.0,85,0.00,,,0.00,0.00,VWS V14.01,2013-07-24 02:27:00,
2013-07-23 22:28:00,81.2,76.3,29.82,NNW,336,0.0,1.1,85,0.00,,,0.00,0.00,VWS V14.01,2013-07-24 02:28:00,
2013-07-23 22:29:00,81.2,76.3,29.82,NNW,336,0.0,1.1,85,0.00,,,0.00,0.00,VWS V14.01,2013-07-24 02:29:00,
2013-07-23 22:30:00,81.2,76.3,29.82,NNW,336,0.0,0.0,85,0.00,,,0.00,0.00,VWS V14.01,2013-07-24 02:30:00,
2013-07-23 22:31:00,81.2,76.3,29.82,WNW,289,0.0,1.1,85,0.00,,,0.00,0.00,VWS V14.01,2013-07-24 02:31:00,
2013-07-23 22:32:00,81.2,76.3,29.82,WNW,289,0.0,0.0,85,0.00,,,0.00,0.00,VWS V14.01,2013-07-24 02:32:00,
2013-07-23 22:33:00,81.2,76.3,29.82,WNW,289,0.0,0.0,85,0.00,,,0.00,0.00,VWS V14.01,2013-07-24 02:33:00,
2013-07-23 22:34:00,81.2,76.2,29.82,WNW,289,0.0,0.0,85,0.00,,,0.00,0.00,VWS V14.01,2013-07-24 02:34:00,
2013-07-23 22:35:00,81.2,76.2,29.83,SSW,210,0.0,2.2,85,0.00,,,0.00,0.00,VWS V14.01,2013-07-24 02:35:00,
2013-07-23 22:36:00,81.1,76.1,29.83,SSW,210,0.0,0.0,85,0.00,,,0.00,0.00,VWS V14.01,2013-07-24 02:36:00,
2013-07-23 22:37:00,80.9,76.4,29.83,SSW,210,0.0,0.0,86,0.00,,,0.00,0.00,VWS V14.01,2013-07-24 02:37:00,
2013-07-23 22:38:00,80.9,76.4,29.83,SSW,210,0.0,0.0,86,0.00,,,0.00,0.00,VWS V14.01,2013-07-24 02:38:00,
2013-07-23 22:39:00,80.8,76.3,29.83,SSW,210,0.0,0.0,86,0.00,,,0.00,0.00,VWS V14.01,2013-07-24 02:39:00,
2013-07-23 22:40:00,80.8,76.2,29.83,SSW,210,0.0,0.0,86,0.00,,,0.00,0.00,VWS V14.01,2013-07-24 02:40:00,
2013-07-23 22:41:00,80.7,76.4,29.83,SSW,210,0.0,0.0,87,0.00,,,0.00,0.00,VWS V14.01,2013-07-24 02:41:00,
2013-07-23 22:42:00,80.4,76.2,29.82,SSW,210,0.0,0.0,87,0.00,,,0.00,0.00,VWS V14.01,2013-07-24 02:42:00,
2013-07-23 22:43:00,80.4,76.2,29.82,SSW,210,0.0,0.0,87,0.00,,,0.00,0.00,VWS V14.01,2013-07-24 02:43:00,
2013-07-23 22:44:00,80.3,76.1,29.82,SSW,204,0.0,1.1,87,0.00,,,0.00,0.00,VWS V14.01,2013-07-24 02:44:00,
2013-07-23 22:45:00,80.3,76.1,29.82,SSW,204,1.1,1.1,87,0.00,,,0.00,0.00,VWS V14.01,2013-07-24 02:45:00,
2013-07-23 22:46:00,80.3,76.1,29.82,SW,214,0.0,2.2,87,0.00,,,0.00,0.00,VWS V14.01,2013-07-24 02:46:00,
2013-07-23 22:47:00,80.6,76.3,29.82,SW,225,0.0,0.0,87,0.00,,,0.00,0.00,VWS V14.01,2013-07-24 02:47:00,
2013-07-23 22:48:00,80.6,76.3,29.82,SW,233,2.2,2.2,87,0.00,,,0.00,0.00,VWS V14.01,2013-07-24 02:48:00,
2013-07-23 22:49:00,80.6,76.3,29.82,West,274,0.0,3.3,87,0.00,,,0.00,0.00,VWS V14.01,2013-07-24 02:49:00,
2013-07-23 22:50:00,80.7,76.4,29.82,West,274,0.0,0.0,87,0.00,,,0.00,0.00,VWS V14.01,2013-07-24 02:50:00,
2013-07-23 22:51:00,80.8,76.5,29.82,South,180,2.2,3.3,87,0.00,,,0.00,0.00,VWS V14.01,2013-07-24 02:51:00,
2013-07-23 22:52:00,80.8,76.2,29.82,South,180,0.0,2.2,86,0.00,,,0.00,0.00,VWS V14.01,2013-07-24 02:52:00,
2013-07-23 22:53:00,80.8,76.2,29.82,South,180,0.0,0.0,86,0.00,,,0.00,0.00,VWS V14.01,2013-07-24 02:53:00,
2013-07-23 22:54:00,80.8,76.3,29.82,South,180,0.0,0.0,86,0.00,,,0.00,0.00,VWS V14.01,2013-07-24 02:54:00,
2013-07-23 22:55:00,80.8,76.3,29.82,South,180,0.0,1.1,86,0.00,,,0.00,0.00,VWS V14.01,2013-07-24 02:55:00,
2013-07-23 22:56:00,80.8,76.3,29.82,South,180,1.1,1.1,86,0.00,,,0.00,0.00,VWS V14.01,2013-07-24 02:56:00,
2013-07-23 22:57:00,80.9,76.4,29.82,South,180,1.1,1.1,86,0.00,,,0.00,0.00,VWS V14.01,2013-07-24 02:57:00,
2013-07-23 22:58:00,80.9,76.4,29.82,SSW,210,2.2,3.3,86,0.00,,,0.00,0.00,VWS V14.01,2013-07-24 02:58:00,
2013-07-23 22:59:00,81.1,76.5,29.83,SSW,210,0.0,1.1,86,0.00,,,0.00,0.00,VWS V14.01,2013-07-24 02:59:00,
2013-07-23 23:00:00,81.1,76.5,29.82,South,183,2.2,2.2,86,0.00,,,0.00,0.00,VWS V14.01,2013-07-24 03:00:00,
2013-07-23 23:01:00,81.1,76.5,29.82,SSW,197,1.1,2.2,86,0.00,,,0.00,0.00,VWS V14.01,2013-07-24 03:01:00,
2013-07-23 23:02:00,81.1,76.5,29.82,SSW,202,0.0,1.1,86,0.00,,,0.00,0.00,VWS V14.01,2013-07-24 03:02:00,
2013-07-23 23:03:00,81.1,76.5,29.82,SSW,202,0.0,2.2,86,0.00,,,0.00,0.00,VWS V14.01,2013-07-24 03:03:00,
2013-07-23 23:04:00,81.1,76.5,29.82,SW,216,0.0,2.2,86,0.00,,,0.00,0.00,VWS V14.01,2013-07-24 03:04:00,
2013-07-23 23:05:00,81.2,76.6,29.82,SW,216,0.0,0.0,86,0.00,,,0.00,0.00,VWS V14.01,2013-07-24 03:05:00,
2013-07-23 23:06:00,81.2,76.6,29.82,SSW,206,1.1,3.3,86,0.00,,,0.00,0.00,VWS V14.01,2013-07-24 03:06:00,
2013-07-23 23:07:00,81.2,76.6,29.82,SSW,206,0.0,1.1,86,0.00,,,0.00,0.00,VWS V14.01,2013-07-24 03:07:00,
2013-07-23 23:08:00,81.2,76.6,29.82,SSW,201,2.2,2.2,86,0.00,,,0.00,0.00,VWS V14.01,2013-07-24 03:08:00,
2013-07-23 23:09:00,81.2,76.6,29.82,SSW,201,0.0,2.2,86,0.00,,,0.00,0.00,VWS V14.01,2013-07-24 03:09:00,
2013-07-23 23:10:00,81.2,76.6,29.82,SSW,201,1.1,1.1,86,0.00,,,0.00,0.00,VWS V14.01,2013-07-24 03:10:00,
2013-07-23 23:11:00,81.2,76.6,29.82,SW,219,1.1,1.1,86,0.00,,,0.00,0.00,VWS V14.01,2013-07-24 03:11:00,
2013-07-23 23:12:00,81.2,76.6,29.82,SW,219,0.0,1.1,86,0.00,,,0.00,0.00,VWS V14.01,2013-07-24 03:12:00,
2013-07-23 23:13:00,81.1,76.5,29.82,SW,218,0.0,0.0,86,0.00,,,0.00,0.00,VWS V14.01,2013-07-24 03:13:00,
2013-07-23 23:14:00,81.1,76.5,29.82,SSW,203,0.0,1.1,86,0.00,,,0.00,0.00,VWS V14.01,2013-07-24 03:14:00,
2013-07-23 23:15:00,81.1,76.5,29.82,SSW,203,1.1,1.1,86,0.00,,,0.00,0.00,VWS V14.01,2013-07-24 03:15:00,
2013-07-23 23:16:00,81.1,76.5,29.82,SSW,210,0.0,1.1,86,0.00,,,0.00,0.00,VWS V14.01,2013-07-24 03:16:00,
2013-07-23 23:17:00,81.1,76.5,29.82,South,177,1.1,1.1,86,0.00,,,0.00,0.00,VWS V14.01,2013-07-24 03:17:00,
2013-07-23 23:18:00,81.1,76.5,29.82,South,179,0.0,1.1,86,0.00,,,0.00,0.00,VWS V14.01,2013-07-24 03:18:00,
2013-07-23 23:19:00,81.1,76.5,29.82,SSW,198,1.1,3.3,86,0.00,,,0.00,0.00,VWS V14.01,2013-07-24 03:19:00,
2013-07-23 23:20:00,81.1,76.5,29.82,South,189,1.1,1.1,86,0.00,,,0.00,0.00,VWS V14.01,2013-07-24 03:20:00,
2013-07-23 23:21:00,81.1,76.5,29.82,South,191,3.3,3.3,86,0.00,,,0.00,0.00,VWS V14.01,2013-07-24 03:21:00,
2013-07-23 23:22:00,81.2,76.6,29.82,South,191,0.0,3.3,86,0.00,,,0.00,0.00,VWS V14.01,2013-07-24 03:22:00,
2013-07-23 23:23:00,81.1,76.5,29.82,South,191,0.0,0.0,86,0.00,,,0.00,0.00,VWS V14.01,2013-07-24 03:23:00,
2013-07-23 23:24:00,81.1,76.5,29.82,South,191,0.0,1.1,86,0.00,,,0.00,0.00,VWS V14.01,2013-07-24 03:24:00,
2013-07-23 23:25:00,81.1,76.5,29.82,SSW,208,0.0,1.1,86,0.00,,,0.00,0.00,VWS V14.01,2013-07-24 03:25:00,
2013-07-23 23:26:00,81.1,76.5,29.82,SW,214,1.1,3.3,86,0.00,,,0.00,0.00,VWS V14.01,2013-07-24 03:26:00,
2013-07-23 23:27:00,81.1,76.5,29.82,SW,214,2.2,2.2,86,0.00,,,0.00,0.00,VWS V14.01,2013-07-24 03:27:00,
2013-07-23 23:28:00,80.9,76.4,29.82,SSW,204,0.0,1.1,86,0.00,,,0.00,0.00,VWS V14.01,2013-07-24 03:28:00,
2013-07-23 23:29:00,80.9,76.4,29.82,SSW,204,1.1,1.1,86,0.00,,,0.00,0.00,VWS V14.01,2013-07-24 03:29:00,
2013-07-23 23:30:00,80.8,76.3,29.82,SSW,204,1.1,1.1,86,0.00,,,0.00,0.00,VWS V14.01,2013-07-24 03:30:00,
2013-07-23 23:31:00,80.8,76.3,29.82,South,171,0.0,1.1,86,0.00,,,0.00,0.00,VWS V14.01,2013-07-24 03:31:00,
2013-07-23 23:32:00,80.8,76.3,29.82,SSW,195,4.4,4.4,86,0.00,,,0.00,0.00,VWS V14.01,2013-07-24 03:32:00,
2013-07-23 23:33:00,80.8,76.5,29.82,WSW,244,2.2,2.2,87,0.00,,,0.00,0.00,VWS V14.01,2013-07-24 03:33:00,
2013-07-23 23:34:00,80.8,76.5,29.82,WSW,241,0.0,2.2,87,0.00,,,0.00,0.00,VWS V14.01,2013-07-24 03:34:00,
2013-07-23 23:35:00,80.8,76.5,29.83,WSW,241,0.0,0.0,87,0.00,,,0.00,0.00,VWS V14.01,2013-07-24 03:35:00,
2013-07-23 23:36:00,80.8,76.5,29.83,WSW,248,2.2,4.4,87,0.00,,,0.00,0.00,VWS V14.01,2013-07-24 03:36:00,
2013-07-23 23:37:00,80.8,76.5,29.82,South,175,1.1,2.2,87,0.00,,,0.00,0.00,VWS V14.01,2013-07-24 03:37:00,
2013-07-23 23:38:00,80.8,76.5,29.82,South,187,0.0,1.1,87,0.00,,,0.00,0.00,VWS V14.01,2013-07-24 03:38:00,
2013-07-23 23:39:00,80.8,76.5,29.82,South,187,0.0,1.1,87,0.00,,,0.00,0.00,VWS V14.01,2013-07-24 03:39:00,
2013-07-23 23:40:00,80.8,76.5,29.82,South,187,0.0,0.0,87,0.00,,,0.00,0.00,VWS V14.01,2013-07-24 03:40:00,
2013-07-23 23:41:00,80.8,76.5,29.82,South,187,0.0,1.1,87,0.00,,,0.00,0.00,VWS V14.01,2013-07-24 03:41:00,
2013-07-23 23:42:00,80.8,76.5,29.82,SW,220,0.0,1.1,87,0.00,,,0.00,0.00,VWS V14.01,2013-07-24 03:42:00,
2013-07-23 23:43:00,80.8,76.5,29.82,SSW,205,0.0,2.2,87,0.00,,,0.00,0.00,VWS V14.01,2013-07-24 03:43:00,
2013-07-23 23:44:00,80.8,76.5,29.83,SSW,206,0.0,2.2,87,0.00,,,0.00,0.00,VWS V14.01,2013-07-24 03:44:00,
2013-07-23 23:45:00,80.8,76.5,29.83,SSW,199,0.0,1.1,87,0.00,,,0.00,0.00,VWS V14.01,2013-07-24 03:45:00,
2013-07-23 23:46:00,80.8,76.5,29.83,South,179,1.1,2.2,87,0.00,,,0.00,0.00,VWS V14.01,2013-07-24 03:46:00,
2013-07-23 23:47:00,80.8,76.5,29.83,South,179,0.0,1.1,87,0.00,,,0.00,0.00,VWS V14.01,2013-07-24 03:47:00,
2013-07-23 23:48:00,80.8,76.5,29.83,SSW,200,1.1,1.1,87,0.00,,,0.00,0.00,VWS V14.01,2013-07-24 03:48:00,
2013-07-23 23:49:00,80.7,76.4,29.83,SSW,212,2.2,3.3,87,0.00,,,0.00,0.00,VWS V14.01,2013-07-24 03:49:00,
2013-07-23 23:50:00,80.8,76.5,29.83,SSW,202,1.1,4.4,87,0.00,,,0.00,0.00,VWS V14.01,2013-07-24 03:50:00,
2013-07-23 23:51:00,80.8,76.5,29.83,South,179,0.0,1.1,87,0.00,,,0.00,0.00,VWS V14.01,2013-07-24 03:51:00,
2013-07-23 23:52:00,80.8,76.5,29.83,SSE,155,2.2,2.2,87,0.00,,,0.00,0.00,VWS V14.01,2013-07-24 03:52:00,
2013-07-23 23:53:00,80.8,76.5,29.83,SSW,199,4.4,5.5,87,0.00,,,0.00,0.00,VWS V14.01,2013-07-24 03:53:00,
2013-07-23 23:54:00,80.8,76.5,29.83,SW,214,3.3,3.3,87,0.00,,,0.00,0.00,VWS V14.01,2013-07-24 03:54:00,
2013-07-23 23:55:00,80.8,76.5,29.83,SSW,213,0.0,3.3,87,0.00,,,0.00,0.00,VWS V14.01,2013-07-24 03:55:00,
2013-07-23 23:56:00,80.8,76.5,29.83,SSW,213,0.0,1.1,87,0.00,,,0.00,0.00,VWS V14.01,2013-07-24 03:56:00,
2013-07-23 23:57:00,80.8,76.5,29.83,SSW,213,0.0,0.0,87,0.00,,,0.00,0.00,VWS V14.01,2013-07-24 03:57:00,
2013-07-23 23:58:00,80.8,76.5,29.83,South,177,2.2,2.2,87,0.00,,,0.00,0.00,VWS V14.01,2013-07-24 03:58:00,
2013-07-23 23:59:00,80.8,76.5,29.83,SW,223,2.2,2.2,87,0.00,,,0.00,0.00,VWS V14.01,2013-07-24 03:59:00,